GFSGL_con_mucape_000.txt.gz
CAPE
877 1362 1210 209 288 556 291 291 375 773 358 200 283 895 701 354 291 220 340 218 263 186 242 250 202 192 185 278 361 557 335 454 218 252 211 499 299 348 223 257 294 261 235
1150 1004 1036 585 311 822 505 453 385 608 652 238 205 142 299 287 185 253 210 218 168 160 167 124 74 119 228 299 425 410 542 617 295 203 196 317 262 392 178 179 138 157 159
1673 762 822 838 998 1004 716 675 586 582 389 340 366 430 257 44 29 28 46 27 12 20 25 29 29 50 32 44 188 268 456 377 383 231 175 245 143 247 242 114 71 94 121
1135 984 674 736 662 1008 1187 1012 838 578 364 226 77 87 137 116 28 23 14 4 24 42 12 6 9 5 16 5 54 41 122 157 186 123 108 89 87 188 188 118 80 58 64
978 1249 1212 668 905 769 1131 887 734 557 441 222 30 129 79 11 8 4 6 4 11 12 5 20 11 16 41 9 10 17 9 110 146 105 61 74 108 254 237 152 205 67 69
622 1313 1217 888 784 594 956 613 693 552 397 239 172 81 60 0 16 13 18 24 27 30 28 14 7 18 13 42 42 9 3 45 110 76 170 106 119 111 75 54 47 65 18
1019 1141 720 993 800 634 453 581 605 386 232 136 17 20 33 25 5 7 0 7 4 13 10 10 26 35 23 4 9 2 19 47 69 98 90 93 73 65 70 14 22 30 22
1347 879 703 742 488 500 517 263 278 125 31 0 0 0 0 0 1 21 36 0 0 3 8 0 0 0 1 9 8 52 52 55 52 39 43 41 46 49 54 67 60 51 47
1382 1140 546 273 318 128 207 170 44 21 5 0 0 0 2 15 10 4 11 14 3 1 4 8 1 11 9 32 47 72 39 51 57 51 47 65 88 97 83 71 64 42 37
593 465 103 80 110 79 93 80 38 45 1 0 0 0 0 16 23 5 5 23 85 55 23 44 6 18 52 41 36 39 14 22 53 49 60 41 6 0 15 1 4 13 4
470 520 219 103 74 57 77 79 50 53 46 75 72 18 1 0 2 2 2 4 36 40 30 14 15 52 43 6 17 13 19 15 11 20 0 3 0 0 1 1 1 1 0
417 139 106 71 81 73 43 57 68 77 68 49 36 75 50 34 32 23 28 23 24 35 18 18 22 28 8 39 22 17 27 11 6 1 0 0 0 0 0 0 0 0 0
115 91 89 70 89 43 46 51 47 16 36 24 34 21 18 17 21 7 0 4 4 2 6 8 12 8 1 2 3 5 4 2 3 3 5 0 0 0 0 4 5 8 4
44 54 60 77 100 36 13 1 5 7 27 27 23 51 7 7 2 0 0 3 7 12 9 8 3 5 3 0 0 0 0 0 0 0 0 0 0 0 0 0 0 0 0
38 30 33 9 17 13 11 10 3 4 5 10 4 2 6 1 3 9 3 0 0 0 0 0 3 6 5 4 0 0 0 0 0 0 0 0 0 0 0 0 0 0 0
8 1 1 0 8 10 2 5 3 0 0 0 0 0 0 0 0 0 0 0 0 0 1 7 9 4 0 0 0 3 0 0 0 0 0 0 0 0 0 0 0 0 0
10 0 0 0 0 0 0 0 0 0 0 0 0 0 0 0 0 0 0 0 0 0 0 0 0 0 0 0 0 0 0 0 4 21 0 0 0 0 0 0 0 0 0
0 0 0 0 0 0 0 0 0 0 0 0 0 0 0 0 0 0 0 0 0 0 0 0 0 2 28 6 0 0 0 0 0 0 0 0 0 0 0 0 0 0 0
0 0 0 2 1 1 4 2 0 0 0 0 0 0 0 0 0 0 0 0 0 0 0 0 0 0 2 0 0 16 6 0 0 2 13 0 0 0 0 0 0 0 0
3 4 1 0 0 2 5 4 4 11 20 0 0 0 0 0 0 0 0 0 0 0 0 0 2 0 0 0 17 11 17 21 29 7 0 0 0 0 0 0 0 2 7
0 0 0 7 11 0 0 3 5 0 13 0 0 0 0 0 0 0 0 0 0 0 0 0 0 0 6 15 8 7 13 11 12 0 0 0 0 0 0 0 0 0 5
5 7 11 6 0 1 8 3 5 1 4 0 0 0 0 0 0 0 0 0 0 0 0 0 0 0 0 0 1 7 0 19 4 0 0 0 0 0 0 0 0 2 1
31 26 16 10 5 0 0 0 4 6 4 0 0 0 0 0 0 0 0 0 0 0 0 0 0 1 2 11 9 22 10 8 0 0 0 0 0 0 0 0 0 0 0
30 3 0 24 7 2 3 6 8 0 0 0 0 0 0 0 0 0 0 0 0 0 6 1 0 0 0 0 1 9 0 0 0 0 0 0 0 0 0 0 0 0 0
4 15 0 32 13 14 13 18 21 0 0 0 0 0 0 0 0 0 0 0 0 10 0 0 0 0 0 0 0 0 0 0 0 0 0 0 0 0 0 0 0 0 0
0 0 0 6 26 16 27 9 6 0 0 0 0 0 0 0 0 0 0 0 0 5 5 0 1 0 0 0 0 0 0 0 0 0 0 0 0 0 0 0 0 0 0

GFSGL_con_mucape_003.txt.gz
CAPE
501 746 277 198 240 34 96 38 89 43 48 102 212 240 129 69 76 156 139 140 105 70 70 97 74 66 100 111 52 49 67 101 97 108 118 184 169 181 232 207 221 292 224
770 781 437 265 391 196 143 107 126 158 64 17 71 115 87 95 129 113 67 53 57 70 77 65 54 49 38 56 42 72 171 139 96 129 133 86 99 150 81 77 211 180 218
1021 581 567 353 274 234 147 115 114 43 47 64 48 50 44 29 64 46 13 3 14 15 25 69 42 43 49 22 14 15 34 57 128 149 117 87 41 77 59 63 118 135 178
974 632 493 418 265 388 264 222 92 77 21 107 71 8 3 19 27 34 31 12 13 20 23 41 30 45 51 6 5 6 28 54 80 74 51 34 17 49 68 77 82 72 102
943 863 346 222 256 418 246 217 113 57 0 20 18 1 0 0 0 3 3 4 3 3 7 13 22 6 25 4 0 4 13 21 65 85 75 59 61 61 114 72 51 71 53
1426 899 358 191 206 308 195 171 129 101 26 3 0 0 0 1 11 2 6 7 1 3 6 17 19 13 26 59 12 17 5 11 59 74 51 34 58 58 79 88 78 91 59
955 818 477 239 201 157 112 110 84 43 25 3 1 0 10 12 2 4 2 0 1 4 5 4 11 26 21 9 10 16 23 6 38 45 54 60 73 77 70 57 73 70 51
1055 505 309 204 79 70 87 70 38 19 8 18 27 5 0 0 12 9 5 1 3 0 14 17 1 0 0 0 1 5 26 36 48 54 55 54 48 49 48 41 56 46 48
958 654 85 138 65 65 65 82 76 48 1 0 0 0 0 0 6 8 0 2 0 0 0 0 0 0 11 22 33 4 9 60 37 30 38 35 6 26 32 14 4 19 6
224 698 111 113 86 87 60 75 76 22 0 15 2 1 2 2 4 2 3 6 6 6 7 13 21 8 0 18 3 9 42 41 33 24 46 39 12 4 19 25 16 10 8
18 378 228 95 84 81 56 44 25 9 46 49 102 91 62 35 20 11 16 9 37 36 38 7 9 3 3 14 5 2 1 9 12 11 27 5 4 12 9 3 5 9 0
41 124 147 110 96 75 67 25 33 43 31 69 82 59 63 48 37 13 3 8 10 18 11 8 16 15 0 4 5 8 14 11 13 9 2 6 4 2 6 6 2 0 0
33 76 68 53 79 79 53 36 52 26 11 44 36 45 6 4 3 8 4 2 7 5 4 0 5 0 0 2 3 2 3 4 12 3 0 0 0 0 0 0 0 0 0
27 35 23 31 32 33 46 3 31 1 6 9 11 12 6 1 9 14 9 16 16 5 3 0 1 0 0 0 0 0 0 0 0 0 0 0 0 0 0 0 0 0 0
22 16 15 5 14 8 4 14 18 11 1 2 4 10 4 2 10 13 21 13 6 0 0 0 0 0 0 0 0 0 0 0 0 0 0 0 0 0 0 0 0 0 0
0 0 3 3 4 1 2 2 0 0 0 0 0 2 0 0 0 0 0 0 0 0 0 0 0 0 0 0 0 0 0 0 0 0 0 0 0 0 0 0 0 0 0
0 0 0 0 0 0 0 0 0 0 0 0 0 0 0 0 0 0 0 0 0 0 0 0 0 0 0 0 0 0 0 0 0 0 0 0 0 0 0 0 0 0 0
0 0 0 0 0 0 0 0 0 0 0 0 0 0 0 0 0 0 0 0 0 0 0 0 0 0 0 0 0 0 0 0 0 0 0 0 0 0 0 0 0 0 0
0 0 0 0 0 0 0 0 0 0 0 0 0 0 0 0 0 0 0 0 0 0 0 0 0 0 0 0 0 0 0 0 0 0 0 0 0 0 0 0 0 0 0
0 0 0 0 0 0 0 0 0 0 0 0 0 0 0 0 0 0 0 0 0 0 0 0 0 0 0 0 0 0 0 0 0 0 0 0 0 0 0 0 0 0 0
0 0 0 0 0 0 0 0 0 0 0 0 0 0 0 0 0 0 0 0 0 0 0 0 0 0 0 0 0 0 0 0 0 0 0 0 0 0 0 0 0 0 0
0 2 2 0 0 0 0 0 0 0 0 0 0 0 0 0 0 0 0 0 0 0 0 0 0 0 0 0 0 0 0 0 0 0 0 0 0 0 0 0 0 0 0
4 5 2 0 1 0 0 0 0 0 0 0 0 0 0 0 0 0 0 0 0 0 0 0 0 0 0 0 0 0 0 0 0 0 0 0 0 0 0 0 0 0 0
9 3 3 0 0 0 0 0 0 0 0 0 0 0 0 0 0 0 0 0 0 0 0 0 0 0 0 0 0 0 0 0 0 0 0 0 0 0 0 0 0 0 0
0 0 2 2 2 0 0 0 0 0 0 0 0 0 0 0 0 0 0 0 0 0 0 0 0 0 0 0 0 0 0 0 0 0 0 0 0 0 0 0 0 0 0
0 0 0 0 1 0 4 2 1 0 0 0 0 0 0 0 0 0 0 0 0 0 0 0 0 0 0 0 0 0 0 0 0 0 0 0 0 0 0 0 0 0 0

GFSGL_con_mucape_006.txt.gz
CAPE
515 421 35 47 0 42 51 60 21 36 80 132 158 136 84 78 81 83 82 118 94 60 78 79 100 134 66 54 45 19 42 49 52 64 117 148 164 202 92 77 66 55 72
520 547 183 92 23 28 42 53 47 37 29 76 71 54 67 89 105 115 74 65 51 50 66 72 76 76 9 37 33 18 50 44 45 60 80 107 114 62 31 19 39 134 103
611 702 277 58 95 65 42 61 42 56 39 39 41 33 41 42 44 48 41 43 57 45 38 49 32 39 47 35 31 33 47 18 17 63 81 67 53 66 46 16 46 89 59
931 413 460 204 184 134 118 75 47 66 62 23 3 4 22 27 13 14 12 13 6 26 58 61 32 24 34 36 28 19 27 15 10 4 15 51 51 33 42 13 16 57 90
960 421 274 169 182 241 76 32 0 37 38 8 0 0 0 0 1 2 10 14 19 15 22 44 39 18 20 21 18 14 2 2 4 30 39 42 16 24 43 16 26 41 67
967 619 467 271 361 152 97 67 0 0 0 0 0 0 0 0 0 0 0 0 1 5 15 11 27 11 2 14 13 8 15 16 23 18 36 13 13 38 54 37 56 60 56
724 661 289 333 138 62 59 44 13 0 0 0 0 0 0 0 1 0 0 0 3 8 17 13 17 32 46 36 32 29 30 28 25 23 10 6 34 47 45 45 44 68 68
724 604 305 174 62 58 53 26 15 2 1 1 0 0 0 0 1 3 0 0 0 0 2 14 11 20 5 0 0 0 0 2 26 40 46 47 44 57 68 63 55 58 67
848 555 293 88 78 76 63 44 28 11 0 0 0 0 0 0 5 4 0 0 0 0 0 0 0 0 0 3 16 8 8 2 11 5 3 8 5 4 13 15 29 19 4
371 339 201 150 47 84 67 61 59 47 0 0 0 1 1 4 2 2 0 0 0 0 2 0 2 14 4 5 14 7 16 17 29 57 7 9 10 17 19 15 15 16 15
4 43 147 88 65 76 66 62 71 25 0 6 2 2 9 8 23 12 4 16 4 13 12 9 0 0 0 0 4 15 19 8 18 14 18 16 25 35 10 3 3 8 47
7 33 77 69 77 67 63 67 50 1 6 7 28 60 50 45 6 11 4 2 0 15 24 30 15 10 0 4 3 6 5 3 1 2 12 7 4 3 4 1 1 0 0
18 49 48 69 96 44 73 54 14 23 15 19 34 35 52 28 21 10 6 4 1 1 7 8 3 1 0 0 0 10 3 3 8 1 2 0 0 0 0 0 0 0 0
13 26 6 32 48 15 19 22 18 1 0 6 8 14 1 9 7 3 6 1 11 14 15 7 2 0 0 0 0 0 0 0 0 0 0 0 0 0 0 0 0 0 0
25 16 20 12 12 4 18 0 1 0 0 0 0 4 11 18 9 3 6 13 6 0 0 0 0 0 0 0 0 0 0 0 0 0 0 0 0 0 0 0 0 0 0
8 16 15 6 2 0 0 1 0 0 0 0 0 0 0 0 0 0 0 0 0 0 0 0 0 0 0 0 0 0 0 0 0 0 0 0 0 0 0 0 0 0 0
0 0 0 0 0 0 0 0 0 0 0 0 0 0 0 0 0 0 0 0 0 0 0 0 0 0 0 0 0 0 0 0 0 0 0 0 0 0 0 0 0 0 0
0 0 0 0 0 0 0 4 7 6 0 0 0 0 0 0 0 0 0 0 0 0 0 0 0 0 0 0 0 0 0 0 0 0 0 0 0 0 0 0 0 0 0
0 0 0 0 0 0 0 0 0 0 0 0 0 0 0 0 0 0 0 0 0 0 0 0 0 0 0 0 0 0 0 0 0 0 0 0 0 0 0 0 0 0 0
0 0 0 0 0 0 0 0 0 0 0 0 0 0 0 0 0 0 0 0 0 0 0 0 0 0 0 0 0 0 0 0 0 0 0 0 0 0 0 0 0 0 0
0 0 0 0 0 0 0 0 0 0 0 0 0 0 0 0 0 0 0 0 0 0 0 0 0 0 0 0 0 0 0 0 0 0 0 0 0 0 0 0 0 0 0
0 0 0 0 0 0 0 0 0 0 0 0 0 0 0 0 0 0 0 0 0 0 0 0 0 0 0 0 0 0 0 0 0 0 0 0 0 0 0 0 0 0 0
6 4 0 0 0 3 0 0 0 0 0 0 0 0 0 0 0 0 0 0 0 0 0 0 0 0 0 0 0 0 0 0 0 0 0 0 0 0 0 0 0 0 0
8 0 0 3 7 5 0 0 0 0 0 0 0 0 0 0 0 0 0 0 0 0 0 0 0 0 0 0 0 0 0 0 0 0 0 0 0 0 0 0 0 0 0
1 0 0 0 5 2 0 0 0 0 0 0 0 0 0 0 0 0 0 0 0 0 0 0 0 0 0 0 0 0 0 0 0 0 0 0 0 0 0 0 0 0 0
0 0 0 0 0 0 0 0 0 0 0 0 0 0 0 0 0 0 0 0 0 0 0 0 0 0 0 0 0 0 0 0 0 0 0 0 0 0 0 0 0 0 0

GFSGL_con_mucape_012.txt.gz
CAPE
345 212 15 41 30 55 56 48 42 53 64 70 85 93 109 169 256 242 301 383 677 421 351 128 180 167 147 106 99 84 61 65 50 37 35 53 88 83 89 29 34 20 7
499 259 118 94 69 56 33 28 46 58 52 35 44 55 62 64 88 103 106 97 368 356 161 126 106 106 92 73 62 73 72 72 63 60 43 37 47 20 15 19 14 17 20
511 435 124 139 114 73 43 39 47 14 15 12 22 27 30 53 63 80 96 72 136 69 72 61 60 59 56 56 56 62 59 55 29 48 32 47 39 27 3 3 6 13 5
365 596 357 139 156 85 24 48 32 0 0 2 4 0 0 3 9 21 31 42 35 48 47 34 33 44 60 60 54 44 46 58 57 26 23 34 20 28 20 4 3 0 9
463 611 504 214 188 124 3 16 13 0 0 0 0 0 0 0 0 0 0 8 11 13 26 10 30 33 26 18 11 15 22 29 5 10 16 15 4 3 4 17 16 5 15
582 562 319 254 205 111 0 0 0 0 0 0 0 0 0 0 2 3 6 4 3 6 6 8 4 1 0 1 2 3 2 2 12 8 6 6 17 19 23 10 11 1 4
413 681 573 138 199 71 17 0 0 0 0 0 0 0 0 0 0 0 0 0 4 5 5 1 3 8 9 6 15 8 1 1 2 4 4 11 1 2 1 0 7 1 2
520 383 627 389 192 102 39 0 0 0 0 0 0 0 0 0 0 0 0 0 0 0 0 1 2 0 4 3 5 4 1 1 2 6 3 21 34 27 14 23 1 30 25
116 437 387 419 271 194 39 12 6 0 3 0 0 3 4 0 0 0 0 0 0 0 0 0 0 0 0 0 0 0 0 0 0 0 1 0 1 4 11 2 1 1 1
0 103 306 400 320 152 24 15 25 28 27 7 0 0 0 0 0 0 0 0 0 0 0 0 0 0 0 0 0 0 0 0 0 2 0 6 6 6 12 2 1 0 11
0 2 179 360 253 112 47 34 49 52 53 27 1 0 0 0 1 0 0 6 12 0 0 2 6 4 1 0 2 2 1 0 2 2 5 3 1 1 2 9 10 11 12
0 4 6 89 209 87 90 49 76 75 80 54 55 1 0 1 7 4 3 9 7 3 11 1 1 1 0 1 13 11 3 5 6 4 0 0 2 5 10 4 1 0 0
2 0 5 30 20 99 80 74 85 61 58 74 4 2 2 4 15 4 6 10 4 10 19 12 9 2 4 17 20 14 0 0 0 0 0 0 0 0 0 0 0 0 0
0 3 1 13 19 11 71 53 27 17 37 3 31 17 4 16 6 7 18 3 8 0 1 1 3 0 0 0 0 0 0 0 0 0 0 0 0 0 0 0 0 0 0
0 0 1 1 9 10 6 7 13 2 3 0 0 1 4 0 0 11 8 3 0 1 0 0 0 0 0 0 0 0 0 0 0 0 0 0 0 0 0 0 0 0 0
0 0 0 1 14 12 6 24 5 3 2 3 0 0 3 11 17 16 1 1 0 0 0 0 0 0 0 0 0 0 0 0 0 0 0 0 0 0 0 0 0 0 0
0 0 0 0 10 4 0 0 3 0 0 0 0 0 0 0 0 0 0 0 0 0 0 0 0 0 0 0 0 0 0 0 0 0 0 0 0 0 0 0 0 0 0
0 0 0 0 0 0 0 0 0 0 0 0 0 0 0 0 0 0 0 0 0 0 0 0 0 0 0 0 0 0 0 0 0 0 0 0 0 0 0 0 0 0 0
0 0 0 0 0 0 0 0 0 0 0 0 0 0 0 0 0 0 0 0 0 0 0 0 0 0 0 0 0 0 0 0 0 0 0 0 0 0 0 0 0 0 0
0 0 0 0 0 0 0 0 0 0 0 0 0 0 0 0 0 0 0 0 0 0 0 0 0 0 0 0 0 0 0 0 0 0 0 0 0 0 0 0 0 0 0
0 0 0 0 0 0 0 0 0 0 0 0 0 0 0 0 0 0 0 0 0 0 0 0 0 0 0 0 0 0 0 0 0 0 0 0 0 0 0 0 0 0 0
0 0 0 0 0 0 0 0 0 0 0 0 0 0 0 0 0 0 0 0 0 0 0 0 0 0 0 0 0 0 0 0 0 0 0 0 0 0 0 0 0 0 0
0 0 0 0 0 0 0 0 0 0 0 0 0 0 0 0 0 0 0 0 0 0 0 0 0 0 0 0 0 0 0 0 0 0 0 0 0 0 0 0 0 0 0
0 0 0 1 1 0 0 0 6 0 0 0 0 0 0 0 0 0 0 0 0 0 0 0 0 0 0 0 0 0 0 0 0 0 0 0 0 0 0 0 0 0 0
8 3 2 1 6 5 0 0 1 0 0 0 0 0 0 0 0 0 0 0 0 0 0 0 0 0 0 0 0 0 0 0 0 0 0 0 0 0 0 0 0 0 0
5 1 0 0 0 0 0 0 2 8 8 3 2 1 0 0 0 0 0 0 0 0 0 0 0 0 0 0 0 0 0 0 0 0 0 0 0 0 0 0 0 0 0

GFSGL_con_mucape_015.txt.gz
CAPE
802 728 286 233 191 247 214 243 260 174 196 117 36 64 147 430 623 498 325 586 387 479 373 356 516 538 648 602 619 581 496 360 295 169 83 49 40 57 65 61 58 50 32
863 765 370 430 265 209 204 200 171 87 85 120 45 41 117 52 206 426 254 389 520 394 220 425 413 466 537 615 551 338 73 58 62 10 45 17 33 47 31 40 62 55 45
896 877 439 534 558 326 170 130 76 72 65 46 35 19 36 61 62 117 143 41 53 112 230 164 126 156 88 121 110 93 63 67 89 65 37 7 30 60 52 13 16 6 7
912 913 683 502 591 377 161 76 39 31 32 24 25 10 4 0 4 18 30 29 34 26 33 44 49 35 36 60 51 54 49 35 30 48 45 40 43 6 16 18 11 13 13
907 863 976 464 496 314 41 26 11 9 10 10 14 10 5 0 1 2 0 4 6 17 14 18 27 15 25 20 24 18 9 16 16 14 12 12 12 18 27 21 10 3 14
823 901 1083 751 487 186 24 9 8 8 8 10 0 0 0 0 1 2 2 3 7 7 1 7 13 1 0 0 0 0 0 1 9 9 4 1 4 14 19 8 0 0 1
661 897 960 773 583 124 8 0 6 0 0 0 0 0 0 0 0 0 0 1 2 5 6 5 3 2 9 7 15 12 1 0 0 0 1 9 5 3 2 10 1 6 4
446 459 990 672 421 100 69 8 0 0 0 0 0 0 0 0 0 0 0 0 0 0 0 0 0 0 0 0 0 0 0 0 0 0 0 0 10 21 11 14 2 3 0
307 414 307 615 222 103 108 31 8 0 0 0 2 0 0 0 0 0 0 0 0 0 0 0 0 0 0 0 0 0 0 0 0 0 0 0 0 0 0 12 11 7 3
0 2 311 364 341 232 137 76 33 5 12 9 1 0 0 0 0 0 0 0 0 0 0 0 0 0 0 0 0 0 0 0 0 0 0 0 0 0 0 0 0 0 2
0 1 21 239 430 502 145 76 44 25 16 34 46 16 2 0 0 0 0 0 0 9 8 6 1 5 3 4 3 6 13 3 0 1 1 0 0 0 0 0 0 1 0
0 0 3 3 48 67 95 115 58 42 36 34 62 26 12 0 0 4 2 0 4 9 2 8 18 2 1 1 7 6 0 0 0 0 0 0 0 0 0 0 0 0 0
0 3 2 7 15 22 39 61 80 42 63 48 23 10 4 2 0 1 2 0 4 0 8 10 5 6 0 0 4 0 0 0 0 0 0 0 0 0 0 0 0 0 3
0 1 0 1 13 11 29 38 37 6 31 15 2 1 1 0 0 0 0 16 3 3 0 0 0 0 0 0 0 0 0 0 0 0 0 0 0 0 0 0 0 0 0
0 0 0 0 0 1 9 23 15 10 8 3 0 0 0 2 0 2 0 1 5 1 0 0 0 0 0 0 0 0 0 0 0 0 0 0 0 0 0 0 0 0 0
0 0 0 0 1 7 4 6 4 8 1 7 2 3 2 2 3 5 5 7 0 0 0 0 0 0 0 0 0 0 0 0 0 0 0 0 0 0 0 0 0 0 0
0 0 0 0 1 7 0 1 17 0 0 0 0 0 1 2 2 2 0 0 0 0 0 0 0 0 0 0 0 0 0 0 0 0 0 0 0 0 0 0 0 0 0
0 0 0 0 0 0 0 0 0 0 0 0 0 0 0 0 0 0 0 0 0 0 0 0 0 0 0 0 0 0 0 0 0 0 0 0 0 0 0 0 0 0 0
0 0 0 0 0 0 0 0 0 0 0 0 0 0 0 0 0 0 0 0 0 0 0 0 0 0 0 0 0 0 0 0 0 0 0 0 0 0 0 0 0 0 0
0 0 0 0 0 0 0 0 0 0 0 0 0 0 0 0 0 0 0 0 0 0 0 0 0 0 0 0 0 0 0 0 0 0 0 0 0 0 0 0 0 0 0
0 0 0 0 0 0 0 0 0 0 0 0 0 0 0 0 0 0 0 0 0 0 0 0 0 0 0 0 0 0 0 0 0 0 0 0 0 0 0 0 0 0 0
0 0 0 0 0 0 0 0 0 0 0 0 0 0 0 0 0 0 0 0 0 0 0 0 0 0 0 0 0 0 0 0 0 0 0 0 0 0 0 0 0 0 0
0 0 0 0 0 0 0 0 0 0 0 0 0 0 0 0 0 0 0 0 0 0 0 0 0 0 0 0 0 0 0 0 0 0 0 0 0 0 0 0 0 0 0
0 0 0 0 0 1 8 0 0 0 0 0 0 0 0 0 0 0 0 0 0 0 0 0 0 0 0 0 0 0 0 0 0 0 0 0 0 0 0 0 0 0 0
4 3 0 0 0 0 0 0 0 0 4 3 0 0 0 0 0 0 0 0 0 0 0 0 0 0 0 0 0 0 0 0 0 0 0 0 0 0 0 0 0 0 0
0 0 9 1 0 0 0 0 0 0 3 11 16 13 12 13 13 9 2 0 0 0 0 0 0 0 0 0 0 0 0 0 0 0 0 0 0 0 0 0 0 0 0

GFSGL_con_mucape_018.txt.gz
CAPE
1186 1030 731 830 782 731 593 539 484 492 447 431 98 104 440 801 951 944 1007 494 698 508 558 659 793 956 1007 941 1704 1494 1549 1408 1022 1283 388 341 155 48 48 57 71 57 53
1123 1132 857 914 812 800 641 520 344 364 266 197 258 42 50 79 402 554 376 255 558 537 730 493 406 482 903 1067 1432 1008 907 544 298 132 100 67 44 31 30 56 43 43 53
1082 1186 925 864 922 863 623 467 434 192 120 109 59 35 58 48 25 28 21 7 10 31 236 258 143 224 194 220 123 131 180 152 130 115 117 56 27 36 45 56 46 55 52
1226 1305 1125 937 995 811 522 253 281 104 111 56 38 19 16 10 36 22 4 1 5 14 7 5 10 4 3 16 45 36 23 51 47 41 23 22 53 19 15 2 3 4 6
1347 1239 1301 1125 1013 839 291 139 84 45 44 61 17 11 18 9 7 24 8 0 1 2 31 29 11 9 1 3 8 11 13 43 23 19 9 12 9 8 11 12 9 14 19
1441 1394 1359 1349 1106 820 278 85 65 56 11 22 8 11 11 0 0 0 5 0 1 1 1 2 2 0 0 0 0 0 0 1 7 1 7 2 0 1 9 7 4 2 4
1442 1339 1392 1450 1177 686 350 94 51 5 4 42 9 12 12 0 0 0 0 13 0 0 1 1 2 0 1 2 4 10 9 0 0 0 1 4 23 9 4 2 8 5 8
567 717 1150 1446 975 671 346 67 19 7 0 1 8 9 8 0 0 0 0 0 0 0 0 0 0 0 0 0 0 0 0 0 0 0 0 0 1 10 11 10 1 0 4
169 221 274 280 941 555 179 70 40 10 0 0 18 21 4 0 0 0 0 0 0 0 0 0 0 0 0 0 0 0 0 0 0 0 0 0 0 0 0 0 0 1 5
0 0 0 152 646 345 161 125 64 11 14 18 12 0 0 0 0 0 0 0 0 0 0 0 0 0 0 0 0 0 0 0 0 0 0 0 0 0 0 0 0 0 0
10 0 0 4 145 255 85 119 90 40 23 23 26 23 21 2 2 0 0 0 0 0 6 3 0 0 1 0 0 0 1 11 2 0 0 0 0 0 0 0 0 0 0
0 0 1 1 4 15 60 71 56 57 42 32 21 26 18 0 0 0 0 0 0 5 8 6 1 2 5 0 1 1 8 6 0 0 0 0 0 0 0 0 0 1 0
0 0 1 0 6 13 23 28 20 19 15 39 69 40 3 3 1 1 0 12 1 16 4 3 0 0 0 0 0 0 0 0 0 0 0 0 0 0 0 0 0 2 0
0 2 2 0 2 7 12 19 24 64 24 20 11 8 2 0 0 5 5 7 5 14 13 4 0 0 0 0 0 0 0 0 0 0 0 0 0 0 0 0 0 0 2
0 0 0 0 0 2 5 6 7 5 12 7 3 1 4 0 0 4 3 0 1 11 7 4 0 0 0 0 0 0 0 0 0 0 0 0 0 0 0 0 0 0 0
0 0 0 0 2 1 0 3 7 3 6 10 3 3 1 2 3 2 7 5 6 1 0 0 0 0 0 0 0 0 0 0 0 0 0 0 0 0 0 0 0 0 0
0 0 0 0 0 0 5 4 13 10 12 7 3 1 0 0 3 7 10 1 0 0 0 0 0 0 0 0 0 0 0 0 0 0 0 0 0 0 0 0 0 0 0
0 0 0 0 0 0 0 0 0 0 0 0 0 0 0 0 0 0 0 0 0 0 0 0 0 0 0 0 0 0 0 0 0 0 0 0 0 0 0 0 0 0 0
0 0 0 0 0 0 0 0 0 0 0 0 0 0 0 0 0 0 0 0 0 0 0 0 0 0 0 0 0 0 0 0 0 0 0 0 0 0 0 0 0 0 0
0 0 0 0 0 0 0 0 0 0 0 0 0 0 0 0 0 0 0 0 0 0 0 0 0 0 0 0 0 0 0 0 0 0 0 0 0 0 0 0 0 0 0
0 0 0 0 0 0 0 0 0 0 0 0 0 0 0 0 0 0 0 0 0 0 0 0 0 0 0 0 0 0 0 0 0 0 0 0 0 0 0 0 0 0 0
0 0 0 0 0 0 0 0 0 0 0 0 0 0 0 0 0 0 0 0 0 0 0 0 0 0 0 0 0 0 0 0 0 0 0 0 0 0 0 0 0 0 0
0 0 1 3 2 0 0 0 3 1 0 0 0 0 0 0 0 0 0 0 0 0 0 0 0 0 0 0 0 0 0 0 0 0 0 0 0 0 0 0 0 0 0
4 9 22 34 46 36 34 38 42 1 4 14 7 0 0 0 0 0 0 0 0 0 0 0 0 0 0 0 0 0 0 0 0 0 0 0 0 0 0 0 0 0 0
12 23 40 18 21 17 10 2 0 24 49 50 37 24 20 6 1 2 4 0 0 0 0 0 0 0 0 0 0 0 0 0 0 0 0 0 0 0 0 0 0 0 0
6 0 1 0 9 8 3 9 0 4 34 55 67 52 57 46 69 41 11 10 4 0 0 0 0 0 0 0 0 0 0 0 0 0 0 0 0 0 0 0 0 0 0

GFSGL_con_mucape_021.txt.gz
CAPE
1459 978 892 882 823 1411 849 874 689 707 813 699 533 370 468 868 1240 1382 983 872 975 870 751 715 741 1044 1581 2369 2505 1991 1362 1570 1020 567 403 456 87 36 38 21 26 19 35
1446 1225 1040 959 857 927 800 715 768 482 818 624 625 420 452 338 388 434 211 371 421 353 729 433 440 695 893 1143 1369 1207 1102 1034 834 558 342 57 26 33 10 18 14 34 33
1521 1380 1062 1019 1172 1032 822 503 643 293 232 392 242 382 306 221 69 42 20 0 0 9 50 250 171 115 153 107 99 105 140 323 216 145 89 23 29 26 21 28 24 1 4
1319 1202 1215 1161 1212 1102 664 421 425 255 285 208 195 114 161 50 28 18 18 0 0 0 0 0 0 0 4 4 12 9 33 23 4 4 12 13 18 15 7 10 4 2 0
1414 1344 1370 1309 1119 1162 680 388 226 184 66 24 51 26 12 11 4 19 8 4 0 0 0 10 10 11 4 1 0 1 9 9 15 12 6 2 11 6 3 6 1 2 5
1364 1335 1723 1587 1332 1300 719 259 275 52 13 8 9 12 8 0 0 0 7 15 7 0 0 0 0 0 0 0 1 1 3 2 7 15 9 0 0 3 11 7 7 7 5
2413 1794 1681 1809 1840 1414 882 349 61 9 7 9 11 13 9 0 0 0 1 7 7 0 0 0 0 0 2 0 1 1 1 3 0 2 0 0 4 8 4 0 0 1 2
1651 1482 1589 1808 1964 1693 1082 643 56 4 3 3 9 6 5 0 0 0 0 14 3 4 2 0 2 0 0 0 0 0 0 0 0 0 0 0 1 3 12 10 0 2 2
849 277 208 569 1146 1310 1105 537 200 42 11 25 11 13 10 0 0 0 0 0 0 0 0 0 0 0 0 0 0 0 0 0 0 0 0 0 0 0 0 0 0 0 0
43 0 0 0 129 601 617 536 100 87 15 3 3 2 1 1 0 0 0 0 0 0 0 0 0 0 0 0 0 0 0 0 0 0 0 0 0 0 0 0 0 0 55
29 0 0 1 212 110 97 23 49 50 19 7 9 7 13 11 7 2 0 0 0 0 0 0 1 2 0 0 0 0 0 2 6 3 0 0 0 0 0 0 0 0 0
0 0 0 0 1 4 3 11 19 52 49 16 17 9 10 16 14 3 0 0 0 0 0 0 6 0 0 0 0 0 0 0 0 0 0 0 0 0 0 0 0 0 0
0 0 0 0 0 1 11 11 16 7 5 21 3 2 20 16 3 0 0 0 1 1 3 4 0 0 0 0 0 0 0 0 0 0 0 0 0 0 0 0 0 0 0
0 0 0 0 0 2 5 24 2 14 19 9 16 13 0 3 17 2 0 0 4 5 7 7 9 12 0 0 0 0 0 0 0 0 0 0 0 0 0 0 0 0 4
0 0 0 0 0 0 0 0 2 1 1 5 10 0 1 0 3 0 0 3 6 2 12 12 11 2 0 0 0 0 0 0 0 0 0 0 0 0 0 0 0 0 0
0 0 0 0 0 0 0 0 6 11 4 0 3 3 5 0 3 3 13 3 5 1 1 1 0 0 0 0 0 0 0 0 0 0 0 0 0 0 0 0 0 0 0
0 0 0 0 0 0 0 0 0 6 6 12 14 6 8 0 0 0 2 7 4 0 0 0 0 0 0 0 0 0 0 0 0 0 0 0 0 0 0 0 0 0 0
0 0 0 0 0 0 0 0 0 0 0 0 0 0 0 0 0 0 0 0 0 0 0 0 0 0 0 0 0 0 0 0 0 0 0 0 0 0 0 0 0 0 0
0 0 0 0 0 0 0 0 0 0 0 0 0 0 0 0 0 0 0 0 0 0 0 0 0 0 0 0 0 0 0 0 0 0 0 0 0 0 0 0 0 0 0
0 0 0 0 0 0 0 0 0 0 0 0 0 0 0 0 0 0 0 0 0 0 0 0 0 0 0 0 0 0 0 0 0 0 0 0 0 0 0 0 0 0 0
0 0 0 0 0 0 0 0 0 0 0 0 0 0 0 0 0 0 0 0 0 0 0 0 0 0 0 0 0 0 0 0 0 0 0 0 0 0 0 0 0 0 0
0 0 0 0 0 1 0 2 3 1 0 0 0 0 0 0 0 0 0 0 0 0 0 0 0 0 0 0 0 0 0 0 0 0 0 0 0 0 0 0 0 0 0
0 2 2 10 10 0 13 22 22 21 16 9 4 0 0 0 0 0 0 0 0 0 0 0 0 0 0 0 0 0 0 0 0 2 1 2 0 0 0 0 0 0 0
11 14 21 21 17 31 40 45 26 12 21 18 24 23 15 12 6 4 0 0 1 1 0 0 0 0 0 0 0 0 0 0 0 0 0 0 0 0 0 0 0 0 0
33 28 60 59 36 10 14 41 7 22 14 32 26 36 36 34 32 29 29 15 15 6 3 2 1 0 0 0 0 0 0 0 0 0 0 0 0 0 0 0 0 0 0
26 40 8 16 20 21 3 12 12 12 13 24 48 40 56 57 68 78 68 94 68 24 14 24 22 7 9 13 4 0 0 0 0 0 0 0 0 0 0 0 0 0 0

GFSGL_con_mucape_024.txt.gz
CAPE
2327 2096 1854 1797 1647 1703 1107 1143 843 988 811 533 413 370 231 325 827 941 579 865 781 782 700 697 725 703 726 640 1222 848 492 351 459 298 148 61 30 2 9 4 0 4 24
2456 2045 2109 2029 1614 1295 1143 1122 860 749 594 325 212 512 530 197 34 44 53 57 58 43 74 159 299 381 416 462 750 696 641 504 406 253 126 72 47 8 1 0 0 3 0
2202 2077 2037 2085 1720 1611 969 980 728 516 400 212 146 335 47 11 26 15 15 0 0 1 0 0 9 6 20 317 17 108 143 160 153 114 70 34 19 8 3 6 1 0 0
2067 1961 2033 2038 1974 1404 1237 945 684 629 367 284 112 71 61 27 5 7 4 0 0 0 0 0 0 0 0 2 9 5 5 6 0 7 30 27 14 9 7 0 0 0 1
2298 1893 2526 1593 1592 1392 1007 875 626 399 15 91 105 39 14 1 2 5 5 3 0 0 0 0 0 0 0 1 4 1 5 0 0 13 8 19 18 7 0 0 0 0 4
2331 1645 2535 1917 1844 1336 1114 707 528 77 5 173 34 6 0 0 0 1 4 6 3 4 2 0 0 0 0 0 0 0 0 28 4 2 2 7 0 0 2 5 4 0 0
2138 2195 1918 1712 1787 1227 1053 495 359 16 19 57 27 10 0 0 0 1 0 7 12 12 16 16 0 0 0 0 0 0 0 0 0 1 0 0 0 3 6 5 0 1 0
1776 1467 1511 1470 1726 1513 1251 644 406 57 59 1 19 12 0 0 0 0 0 14 0 0 0 3 0 0 0 0 0 0 0 0 0 0 0 0 0 0 0 1 2 0 1
1076 759 301 357 789 1682 985 805 681 148 34 3 19 21 0 0 0 0 0 0 0 0 0 0 0 0 0 0 0 0 0 0 0 0 0 0 0 0 0 1 0 0 0
555 261 14 0 47 858 920 504 299 50 17 25 0 0 0 0 5 0 3 1 0 0 0 0 0 0 0 0 15 0 0 0 0 0 0 0 0 0 0 0 0 0 8
142 70 19 1 53 298 314 134 173 25 67 17 0 0 1 4 0 0 0 1 0 0 0 0 0 0 0 0 0 0 0 0 0 5 6 0 1 0 0 0 0 0 0
108 17 0 0 1 87 103 54 116 17 1 16 23 19 15 7 2 1 11 6 0 0 0 0 5 1 0 0 0 0 0 0 0 0 0 0 0 0 0 0 0 0 0
0 0 0 0 0 4 6 11 13 14 17 9 4 17 4 4 5 0 5 0 1 3 1 6 2 3 0 6 0 0 0 0 0 0 0 0 0 0 0 6 7 0 0
0 0 0 0 0 0 1 0 7 8 4 14 16 16 16 7 15 3 12 1 1 2 12 3 11 21 20 15 2 0 0 0 0 0 0 0 0 0 0 0 18 18 7
0 0 0 0 0 0 0 0 0 0 1 1 3 10 12 9 16 19 8 0 1 10 14 3 12 14 11 0 0 0 3 0 4 0 0 0 0 0 0 0 0 0 1
0 0 0 0 0 0 0 0 0 0 5 17 8 8 15 14 12 2 0 7 10 2 4 0 0 7 5 8 11 9 0 0 0 0 0 0 0 0 0 0 0 0 0
0 0 0 0 0 0 0 0 0 0 0 0 2 17 8 11 0 0 0 0 3 1 0 0 27 15 10 0 0 0 2 0 0 0 0 0 0 0 0 0 0 0 4
1 0 11 10 0 0 1 0 0 0 0 0 0 0 0 0 0 0 0 0 0 0 0 1 17 8 0 0 0 2 3 0 0 0 0 0 0 0 0 0 0 0 0
0 0 0 0 0 0 0 0 0 0 0 0 0 0 0 0 0 0 0 0 0 0 9 7 1 0 0 0 0 0 0 0 0 0 0 0 0 0 0 0 0 0 0
0 0 0 0 0 0 0 0 0 0 0 0 0 0 0 0 0 0 0 0 0 1 2 1 4 1 0 0 0 0 0 0 0 0 0 0 10 0 0 0 0 0 0
0 0 0 0 0 0 0 0 0 0 0 0 0 0 0 0 0 0 0 0 0 0 10 2 0 0 3 4 0 0 0 0 3 6 4 1 12 0 0 0 0 0 0
0 0 0 0 0 0 0 0 1 0 0 0 0 0 0 0 0 0 2 0 2 8 0 0 0 0 0 1 1 0 0 0 0 3 11 3 0 6 3 0 0 0 0
0 0 0 4 6 1 12 20 17 37 30 31 8 2 0 0 0 0 0 0 0 0 0 0 0 0 0 0 0 0 0 0 0 6 19 13 8 4 2 0 0 0 0
10 18 40 12 21 20 31 41 22 2 9 13 19 40 8 5 15 39 18 24 16 10 20 0 0 0 0 0 0 0 0 0 0 0 0 0 0 0 0 0 0 0 0
32 42 40 31 10 22 27 10 7 12 12 9 14 33 10 24 11 40 78 112 96 78 79 84 60 17 29 42 7 0 0 0 0 0 0 0 0 0 0 0 0 0 0
8 6 7 7 5 6 6 14 20 36 2 7 21 45 65 57 45 61 88 129 93 104 47 110 68 43 9 42 10 0 0 0 0 0 0 0 0 0 0 0 0 0 0

GFSGL_con_mucape_027.txt.gz
CAPE
1276 1161 877 780 547 441 437 77 223 37 6 138 156 27 4 0 0 0 0 0 1 4 7 53 72 176 127 139 156 167 217 212 160 476 121 78 91 78 74 43 20 11 2
1157 750 897 645 498 449 447 105 23 172 8 6 11 7 1 4 0 0 0 0 0 0 1 3 1 1 2 46 58 80 142 214 153 108 107 129 71 47 26 22 4 2 0
1033 1017 1028 775 586 411 262 110 122 98 1 5 2 0 0 1 1 0 0 0 0 0 0 0 0 0 0 2 0 2 13 51 63 77 55 64 31 27 37 24 15 0 0
1246 1160 1178 793 609 459 259 95 65 45 1 1 0 0 0 0 4 1 0 0 0 0 0 0 0 0 0 0 0 0 0 0 2 7 8 64 42 41 36 21 11 7 3
1656 1349 1266 1178 729 486 342 173 2 0 1 5 0 0 0 0 4 0 0 0 0 0 0 0 0 0 0 0 0 0 0 0 0 0 2 6 13 17 18 6 0 5 9
1487 1394 1305 1061 740 592 366 242 50 0 20 0 0 0 0 0 2 3 3 1 1 0 0 0 0 0 0 0 0 0 0 0 0 0 4 11 0 0 1 5 7 2 0
1628 1522 1272 1102 956 579 526 402 539 39 13 0 0 0 0 0 1 3 4 0 0 0 0 0 0 0 0 0 0 0 0 0 0 1 0 1 1 5 3 6 5 4 0
1649 1413 1202 1137 1092 797 572 504 466 288 51 10 4 0 0 0 0 0 0 0 0 0 0 0 0 0 0 0 0 0 0 0 0 0 0 0 0 0 0 0 0 0 0
1250 996 957 531 677 1074 751 580 500 174 33 9 7 2 0 0 0 0 0 0 0 0 0 0 0 0 0 0 0 0 0 0 0 0 0 0 0 0 0 0 0 0 0
940 693 165 47 135 759 919 704 280 82 7 16 41 2 0 1 0 0 0 0 0 0 0 0 0 0 0 0 0 0 0 0 0 0 0 0 0 0 0 0 0 0 2
469 200 85 24 48 332 414 275 90 11 8 12 23 11 0 13 7 0 4 0 0 0 0 0 0 0 0 0 0 0 0 0 0 0 0 0 0 0 0 0 0 0 0
209 103 8 1 3 35 164 60 86 24 18 10 17 39 29 6 15 16 5 0 0 0 4 0 6 7 2 1 0 6 3 0 0 0 0 0 0 0 0 0 0 0 0
124 0 0 0 1 5 20 42 32 11 13 14 17 24 14 8 21 18 5 3 2 7 0 0 13 15 23 7 6 3 0 0 0 0 0 0 0 0 0 0 0 0 0
0 0 0 0 0 3 3 5 6 7 9 4 17 25 27 20 26 20 14 16 15 1 0 10 6 0 6 12 15 0 0 0 0 0 0 0 0 0 0 0 0 0 0
0 0 0 0 0 0 0 0 2 3 1 0 1 4 15 22 18 8 15 22 22 2 11 6 4 0 0 0 0 0 0 0 0 0 0 0 0 0 0 0 0 0 0
0 0 0 0 0 0 0 0 0 0 0 0 1 1 2 10 18 17 17 4 0 10 4 0 0 0 0 0 0 0 0 0 0 0 0 0 0 0 0 0 0 0 0
0 0 0 0 0 0 0 0 0 0 0 0 0 0 5 4 5 1 1 0 5 0 0 0 0 0 0 0 0 0 0 0 0 0 0 0 0 0 0 0 0 0 0
0 0 0 0 0 0 0 0 0 0 0 0 0 0 0 0 0 0 0 0 0 0 0 0 0 0 0 0 0 0 0 0 0 0 0 0 0 0 0 0 0 0 0
0 0 0 0 0 0 0 0 0 0 0 0 0 0 0 0 0 0 0 0 0 0 0 0 0 0 0 0 0 0 0 0 0 0 0 0 0 0 0 0 0 0 0
0 0 0 0 0 0 0 0 0 0 0 0 0 0 0 0 0 0 0 0 0 0 0 0 0 0 0 0 0 0 0 0 0 0 0 0 0 0 0 0 0 0 0
0 0 0 0 0 0 0 0 0 0 0 0 0 0 0 0 0 0 0 0 0 0 0 0 0 0 0 0 0 0 0 0 0 0 0 0 0 0 0 0 0 0 0
0 0 0 0 0 0 0 0 0 4 2 0 0 0 0 0 0 0 0 0 0 0 0 0 0 0 0 0 0 0 0 0 0 0 0 0 0 0 0 0 0 0 0
0 0 0 0 0 0 5 5 8 13 11 6 10 5 2 0 1 0 0 0 0 0 0 0 0 0 0 0 0 0 0 0 0 0 0 0 0 0 0 0 0 0 0
2 0 0 2 10 11 6 20 16 9 3 3 2 3 3 6 12 11 9 12 11 6 1 11 12 3 0 0 0 0 0 0 0 0 0 0 0 0 0 0 0 0 0
3 0 1 3 0 5 9 0 6 1 0 0 10 1 9 0 6 8 21 32 19 4 13 12 23 12 6 6 4 4 1 0 0 0 0 0 0 0 0 0 0 0 0
0 0 6 10 3 13 12 2 0 0 0 0 0 0 0 0 0 0 0 0 0 0 6 10 11 6 21 20 17 20 33 21 26 4 0 0 0 0 0 0 0 0 0

GFSGL_con_mucape_030.txt.gz
CAPE
1107 1013 815 515 390 227 66 3 0 0 1 26 11 0 0 0 0 0 0 0 0 0 6 10 10 34 39 72 95 84 96 101 71 60 48 23 11 56 37 4 0 21 2
1240 1044 890 625 435 199 43 0 0 0 0 1 0 0 0 0 0 1 0 0 0 0 0 0 0 0 2 7 15 22 38 51 35 37 16 73 22 51 29 39 31 13 2
1368 921 774 689 578 207 34 0 0 0 0 0 0 0 0 0 0 0 0 0 0 0 0 0 0 0 0 0 0 0 0 21 36 0 5 14 33 18 15 34 24 26 17
1000 1031 794 727 672 394 121 51 0 0 0 0 0 0 0 0 0 0 0 0 0 0 0 0 0 3 0 0 0 0 0 0 32 67 71 67 8 59 40 35 34 17 19
1168 1021 1083 705 669 314 288 155 0 0 0 0 0 0 0 0 0 0 0 0 0 0 0 0 0 0 0 0 0 0 0 0 0 20 34 10 16 12 38 27 20 6 4
1238 1065 1164 935 766 553 316 213 71 0 0 0 0 0 0 0 0 0 0 0 0 0 0 0 0 0 0 0 0 0 0 0 0 0 4 7 0 0 7 5 2 8 1
1491 1421 1246 992 829 619 484 349 271 43 45 1 0 0 0 0 0 0 0 0 0 0 0 0 0 0 0 0 0 0 0 0 0 1 0 1 2 7 2 7 4 3 3
1296 1136 1138 939 888 695 540 449 215 114 71 9 2 2 0 0 0 0 0 0 0 0 0 0 0 0 0 0 0 0 0 0 0 0 0 0 0 1 0 0 1 5 1
1018 1105 970 947 1019 890 970 670 422 283 30 30 5 8 0 0 0 0 0 0 0 0 0 0 0 0 0 0 0 0 0 0 0 0 0 0 0 0 0 0 0 0 0
823 716 557 253 118 783 678 551 400 139 24 12 17 16 1 0 0 0 0 1 0 0 0 0 0 0 0 0 0 0 0 0 0 0 0 0 0 0 0 0 1 0 14
672 484 217 60 164 470 582 365 258 13 13 6 21 10 6 3 14 3 6 23 2 0 0 0 0 0 0 0 0 0 0 0 0 0 0 0 0 0 0 0 0 3 29
507 282 131 17 19 198 283 195 96 28 30 35 17 18 28 26 19 8 17 21 13 2 0 3 0 1 7 13 12 4 2 4 0 0 0 0 0 0 0 0 0 0 0
361 189 6 0 2 21 99 66 37 30 41 43 19 20 17 33 26 13 24 5 14 9 1 0 0 0 0 2 15 6 0 0 0 0 0 0 0 0 0 0 0 0 0
105 0 0 0 0 1 2 20 38 30 25 7 24 21 17 28 26 50 48 26 17 11 9 22 2 3 0 0 0 0 0 0 0 0 0 0 0 0 0 0 0 0 0
0 0 0 0 0 0 0 3 4 6 9 14 9 9 7 9 14 18 21 31 21 20 16 2 0 0 0 0 0 0 0 0 0 0 0 0 0 0 0 0 0 0 0
0 0 0 0 0 0 0 0 0 0 0 0 1 4 2 2 10 13 23 17 5 2 3 1 0 0 0 0 0 0 0 0 0 0 0 0 0 0 0 0 0 0 0
0 0 0 0 0 0 0 0 0 0 0 0 0 0 0 2 3 1 5 0 1 2 0 0 0 0 0 0 0 0 0 0 0 0 0 0 0 0 0 0 0 0 0
0 0 0 0 0 0 0 0 0 0 0 0 0 0 0 0 0 0 0 0 0 0 0 0 0 0 0 0 0 0 0 0 0 0 0 0 0 0 0 0 0 0 0
0 0 0 0 0 0 0 0 0 0 0 0 0 0 0 0 0 0 0 0 0 0 0 0 0 0 0 0 0 0 0 0 0 0 0 0 0 0 0 0 0 0 0
0 0 0 0 0 0 0 0 0 0 0 0 0 0 0 0 0 0 0 0 0 0 0 0 0 0 0 0 0 0 0 0 0 0 0 0 0 0 0 0 0 0 0
0 0 0 0 0 0 0 0 0 0 0 0 0 0 0 0 0 0 0 0 0 0 0 0 0 0 0 0 0 0 0 0 0 0 0 0 0 0 0 0 0 0 0
0 0 0 0 0 0 0 0 0 0 0 0 0 0 0 0 0 0 0 0 0 0 0 0 0 0 0 0 0 0 0 0 0 0 0 0 0 0 0 0 0 0 0
0 0 0 0 0 0 0 0 1 0 0 0 0 0 2 0 0 0 1 0 6 1 0 0 6 0 0 8 8 1 0 0 0 0 0 0 0 0 0 0 0 0 0
0 0 0 0 0 0 0 7 7 10 13 2 0 0 3 0 0 0 0 7 12 13 0 10 19 0 7 16 3 0 0 0 0 0 0 0 0 0 0 0 0 0 0
0 0 0 0 0 1 8 11 11 11 0 0 0 0 0 0 2 0 7 19 34 40 41 39 15 34 39 24 17 20 25 26 23 22 34 11 1 3 0 0 0 0 0
0 0 0 2 10 7 4 12 15 14 14 15 9 1 1 0 0 0 0 0 13 23 24 32 37 32 16 8 2 9 10 8 8 17 24 22 12 8 0 0 0 0 0

GFSGL_con_mucape_033.txt.gz
CAPE
1160 983 569 361 263 132 35 0 0 0 0 0 0 0 0 0 0 0 0 0 0 0 0 0 4 11 47 73 98 129 68 30 23 20 85 23 9 7 5 38 1 1 1
1068 900 755 402 319 92 0 0 0 0 0 0 0 0 0 0 0 0 0 0 0 0 0 0 0 0 0 0 1 12 31 48 41 36 13 0 7 6 5 26 4 10 21
1091 955 845 610 442 145 8 0 0 0 0 0 0 0 0 0 0 0 0 0 0 0 0 0 0 0 0 0 0 0 14 23 25 15 2 2 3 9 7 6 29 28 34
1062 1020 825 609 454 312 154 48 0 0 0 0 0 0 0 0 0 0 0 0 0 0 0 0 0 0 0 0 0 0 0 23 25 32 11 29 26 0 27 23 46 27 20
1169 958 876 674 512 349 261 186 27 0 0 0 0 0 0 0 0 0 0 0 0 0 0 0 0 0 0 0 0 0 0 3 48 76 64 75 23 28 17 33 13 10 4
1440 1080 949 827 674 449 307 257 114 22 15 0 0 0 0 0 0 0 0 0 0 0 0 0 0 0 0 0 0 0 0 0 5 11 33 36 34 29 8 19 14 0 0
1401 1272 1050 1002 870 601 346 241 120 30 18 10 0 0 0 0 0 0 0 0 0 0 0 0 0 0 0 0 0 0 0 0 0 1 2 3 3 6 11 27 16 2 0
1558 1455 1253 928 871 712 343 356 241 65 50 3 1 0 0 0 0 0 0 0 0 0 0 0 0 0 0 0 0 0 0 0 0 0 0 1 4 7 8 7 7 5 11
1206 1065 923 902 892 579 473 441 431 204 136 10 10 3 2 0 0 0 0 0 0 0 0 0 0 0 0 0 0 0 0 0 0 0 0 0 0 0 0 0 0 0 2
507 478 574 550 816 782 799 546 380 188 113 12 9 14 9 1 0 0 0 0 3 8 0 0 0 0 0 0 0 0 0 0 0 0 0 0 0 0 0 0 0 0 11
130 282 343 223 77 327 514 595 298 185 167 12 14 11 17 3 3 16 3 6 3 19 15 1 0 0 0 0 0 1 0 0 0 0 0 0 0 0 0 0 0 0 5
183 467 365 128 121 299 442 492 315 165 33 13 27 11 27 18 6 24 7 30 27 24 18 8 2 0 0 0 0 11 16 5 0 0 0 0 0 0 0 0 0 0 0
461 386 171 24 13 138 306 230 102 37 35 37 50 16 7 19 11 16 5 6 34 18 18 14 18 11 2 0 0 0 0 0 0 0 0 0 0 0 0 0 0 0 0
282 189 39 0 1 43 135 98 40 34 33 39 41 19 11 28 14 46 26 22 33 23 8 6 18 9 0 0 0 0 0 0 0 0 0 0 0 0 0 0 0 0 0
148 23 0 0 0 4 4 12 19 23 23 13 13 3 13 3 17 16 21 17 22 11 24 4 12 0 0 0 0 0 0 0 0 0 0 0 0 0 0 0 0 0 0
19 0 0 0 0 0 0 0 1 2 2 0 0 0 4 5 15 12 14 18 16 11 5 0 1 0 0 0 0 0 0 0 0 0 0 0 0 0 0 0 0 0 0
4 0 0 0 0 0 0 0 0 0 0 0 0 0 0 0 0 1 0 2 0 2 0 1 0 0 0 0 0 0 0 0 0 0 0 0 0 0 0 0 0 0 0
0 0 0 0 0 0 0 0 0 0 0 0 0 0 0 0 0 0 0 0 0 0 0 0 0 0 0 0 0 0 0 0 0 0 0 0 0 0 0 0 0 0 0
0 0 0 0 0 0 0 0 0 0 0 0 0 0 0 0 0 0 0 0 0 0 0 0 0 0 0 0 0 0 0 0 0 0 0 0 0 0 0 0 0 0 0
0 0 0 0 0 0 0 0 0 0 0 0 0 0 0 0 0 0 0 0 0 0 0 0 0 0 0 0 0 0 0 0 0 0 0 0 0 0 0 0 0 0 0
0 0 0 0 0 0 0 0 0 0 0 0 0 0 0 0 0 0 0 0 0 0 0 0 0 0 0 0 0 0 0 0 0 0 0 0 0 0 0 0 0 0 0
0 0 0 0 0 0 0 0 0 0 0 0 0 0 0 0 0 0 0 0 0 0 0 0 0 0 1 0 0 0 0 0 0 0 0 0 0 0 0 0 0 0 0
0 0 0 0 0 0 0 0 0 0 0 0 0 0 0 0 0 2 1 0 0 0 0 4 0 0 9 3 2 10 7 7 2 2 3 0 0 2 0 0 0 0 0
0 0 0 0 0 0 0 5 2 0 1 5 2 1 0 1 3 5 8 10 17 21 25 22 11 19 29 14 7 23 26 19 21 18 13 16 19 17 19 3 0 6 0
0 0 0 0 0 0 0 2 0 0 0 7 16 15 10 11 8 3 13 18 15 17 13 18 32 31 21 24 41 40 24 15 16 14 11 10 17 21 31 35 32 14 5
0 0 0 0 0 1 5 12 5 0 10 19 13 7 9 13 10 1 0 0 1 2 6 6 6 9 12 12 6 3 2 0 0 0 0 0 0 0 0 5 13 8 11

GFSGL_con_mucape_036.txt.gz
CAPE
846 631 296 304 235 84 0 0 0 0 0 0 0 0 0 0 0 0 0 0 0 0 0 0 3 23 68 83 99 131 67 54 46 25 36 85 32 2 7 3 7 1 1
740 672 465 351 286 82 0 0 0 0 0 0 0 0 0 0 0 0 0 0 0 0 0 0 0 0 0 0 1 27 53 29 52 25 26 47 17 41 14 6 3 5 13
763 680 669 564 371 108 28 3 0 0 0 0 0 0 0 0 0 0 0 0 0 0 0 0 0 0 0 0 0 0 0 17 36 30 15 11 2 4 4 7 1 19 11
837 827 820 758 560 240 94 67 17 3 0 0 0 0 0 0 0 0 0 0 0 0 0 0 0 0 0 0 0 2 17 38 46 20 19 9 18 7 0 8 11 18 9
1095 1091 881 880 625 460 178 118 62 38 8 0 0 0 0 0 0 0 0 0 0 0 0 0 0 0 0 0 0 0 0 1 2 38 3 21 9 29 30 25 17 21 8
794 1222 977 911 678 493 204 146 75 13 0 1 0 0 0 0 0 0 0 0 0 0 0 0 0 0 0 0 0 0 0 1 1 5 2 3 1 14 18 10 6 14 16
900 1279 1082 991 919 594 406 145 80 23 7 2 2 0 0 0 0 0 0 0 0 0 0 0 0 0 0 0 0 0 0 0 0 2 1 4 4 6 4 5 7 3 1
912 1228 1035 1008 879 692 438 196 123 101 16 16 11 9 0 0 0 0 0 0 0 0 0 0 0 0 0 0 0 0 0 0 0 0 0 0 1 3 2 4 8 0 0
754 1150 1316 897 720 700 508 242 172 271 146 44 8 11 4 2 1 0 0 0 0 0 0 0 0 0 0 0 0 0 0 0 0 0 0 0 0 0 0 0 0 0 0
718 798 638 660 696 614 597 367 339 232 80 61 10 11 16 5 5 1 0 3 0 0 0 0 0 0 0 0 0 0 0 0 0 0 0 0 0 0 0 0 0 10 24
167 155 227 287 328 300 562 798 383 301 25 40 7 20 19 21 8 10 21 7 8 4 3 13 1 4 0 0 0 0 0 1 0 0 0 0 0 0 0 0 0 0 0
43 48 73 189 227 370 445 545 414 346 114 42 15 30 11 15 8 11 10 13 4 1 11 14 9 6 3 0 0 0 0 0 0 0 0 0 0 0 0 0 0 0 0
111 202 214 392 126 182 209 306 363 73 59 14 35 36 13 5 6 10 6 7 8 3 11 5 3 0 3 0 0 0 0 0 0 0 0 0 0 0 0 0 0 0 0
314 359 253 149 9 32 237 190 127 88 17 33 43 46 8 23 15 19 16 9 8 17 9 19 2 1 0 0 0 0 0 0 0 0 0 0 0 0 0 0 0 0 0
249 142 53 2 3 4 18 85 26 28 25 38 32 28 19 5 12 17 14 15 17 4 7 12 1 8 0 0 0 0 0 0 0 0 0 0 0 0 0 0 0 0 0
56 42 1 0 0 4 5 5 10 8 20 12 7 2 4 3 10 5 19 9 2 3 3 0 1 0 0 0 0 0 0 0 0 0 0 0 0 0 0 0 0 0 0
58 37 1 0 0 0 0 0 0 0 0 0 0 0 0 0 0 0 0 0 2 0 0 0 1 0 0 0 0 0 0 0 0 0 0 0 0 0 0 0 0 0 0
0 0 0 0 0 0 0 0 0 0 0 0 0 0 0 0 0 0 0 0 0 0 0 0 0 0 0 0 0 0 0 0 0 0 0 0 0 0 0 0 0 0 0
0 0 0 0 0 0 0 0 0 0 0 0 0 0 0 0 0 0 0 0 0 0 0 0 0 0 0 0 0 0 0 0 0 0 0 0 0 0 0 0 0 0 0
0 0 0 0 0 0 0 0 0 0 0 0 0 0 0 0 0 0 0 0 0 0 0 0 0 0 0 0 0 0 0 0 0 0 0 0 0 0 0 0 0 0 0
0 0 0 0 0 0 0 0 0 0 0 0 0 0 0 0 0 0 0 0 0 0 0 0 0 0 0 0 0 0 0 0 0 0 0 0 0 0 0 0 0 0 0
0 0 0 0 0 0 0 0 0 0 0 0 0 0 0 0 0 0 0 0 0 0 0 0 0 0 0 0 10 5 2 7 8 8 7 4 4 2 0 0 4 0 0
0 0 0 0 0 0 0 0 0 0 0 3 9 7 4 1 2 4 0 6 9 9 6 4 6 13 2 7 18 25 9 7 21 32 22 24 24 15 10 10 11 18 11
0 0 0 0 0 0 0 0 1 0 0 0 8 9 9 9 5 11 9 9 15 18 20 22 23 8 2 8 19 9 0 7 18 15 15 11 11 10 10 15 22 27 31
0 0 0 0 0 0 0 1 6 17 9 0 2 11 17 7 9 2 11 1 12 5 0 0 0 8 11 1 0 1 9 9 7 2 0 0 0 0 0 0 0 0 0
1 0 0 0 0 0 1 14 14 18 7 2 13 16 21 15 14 8 0 1 0 0 0 0 0 0 0 0 0 0 0 0 0 0 0 0 0 0 0 0 0 0 0

GFSGL_con_mucape_039.txt.gz
CAPE
609 923 751 452 392 229 127 125 85 4 5 5 9 9 8 7 6 6 6 12 14 15 12 1 0 20 41 346 808 770 228 158 54 23 22 15 103 43 4 1 2 1 1
469 770 830 474 369 242 121 55 15 3 3 5 5 3 1 0 1 5 6 9 10 10 10 0 0 0 0 8 20 88 409 384 44 42 38 42 33 8 13 10 1 1 2
1265 981 803 563 444 227 116 48 2 2 2 2 3 2 1 1 3 7 6 7 7 0 0 10 0 15 10 1 0 0 1 56 21 32 29 30 46 7 7 7 3 16 17
1294 1266 1125 814 632 289 161 92 20 1 1 5 7 5 1 0 0 0 0 0 0 0 0 0 0 0 13 10 3 3 6 25 68 9 34 45 10 8 19 0 0 8 19
1542 1462 1313 1018 660 333 231 122 33 0 0 0 1 2 2 0 0 0 0 0 0 0 0 0 0 0 0 1 11 25 27 10 1 4 6 16 16 22 29 29 12 16 15
1686 1686 1397 1140 685 388 396 174 47 0 0 0 0 0 1 0 0 0 0 0 0 0 0 0 0 0 0 0 0 0 0 34 34 21 1 4 3 10 3 1 12 4 0
1033 1651 1422 1196 882 508 336 128 51 0 2 4 2 0 2 0 0 0 0 0 0 0 0 0 0 0 0 0 0 0 0 0 1 37 21 38 46 45 22 0 1 2 2
736 1140 1282 846 933 659 354 168 85 64 2 11 12 8 3 2 0 0 0 0 0 0 0 0 0 0 0 0 0 0 0 0 0 0 0 3 29 42 32 27 18 1 0
426 388 310 577 858 560 348 131 155 148 64 41 7 0 4 4 8 2 0 0 0 0 0 0 0 0 0 0 0 0 0 0 0 0 0 0 0 0 1 29 35 60 56
130 109 173 291 508 338 299 336 216 144 105 1 8 10 2 2 12 12 3 1 0 0 0 0 0 0 0 0 0 0 0 0 0 0 0 0 0 0 0 0 0 5 27
178 219 177 266 276 415 440 458 372 116 87 0 18 3 4 16 13 13 17 12 8 6 3 5 1 0 0 0 0 0 0 0 0 0 0 0 0 0 0 0 0 0 17
279 225 27 16 8 87 160 343 364 188 60 4 1 4 8 13 9 13 6 2 9 7 11 8 10 8 0 0 0 0 0 0 0 0 0 0 0 0 0 0 0 0 0
278 130 65 52 37 110 167 280 199 121 170 53 10 7 16 26 14 1 0 0 2 1 2 6 4 0 0 0 0 0 0 0 0 0 0 0 0 0 0 0 0 8 11
190 147 97 195 126 98 149 203 215 198 13 26 2 22 33 21 10 18 11 4 3 0 7 5 1 2 0 0 0 0 0 0 0 0 0 0 0 0 0 0 0 0 0
278 223 193 104 22 22 101 158 58 63 23 20 26 17 26 13 14 8 13 12 5 7 5 2 2 4 0 0 0 0 0 0 0 0 0 0 0 0 0 0 0 0 0
122 93 67 45 13 0 14 22 49 20 12 3 22 13 10 4 1 2 10 5 1 2 0 0 0 0 0 0 0 0 0 0 0 0 0 0 0 0 0 0 0 0 0
68 78 59 41 21 3 2 1 1 1 2 5 0 0 0 0 0 0 0 0 0 0 0 0 0 0 0 0 0 0 0 0 0 0 0 0 0 0 0 0 0 0 0
19 16 0 0 3 0 0 0 0 0 0 0 0 0 0 0 0 0 0 0 0 0 0 0 0 0 0 0 0 0 0 0 0 0 0 0 0 0 0 0 0 1 2
0 0 0 0 0 0 0 0 0 0 0 0 0 0 0 0 0 0 0 0 0 0 0 0 0 0 0 0 0 0 0 0 0 0 0 0 0 0 0 0 0 0 0
0 0 0 0 0 0 0 0 0 0 0 0 0 0 0 0 0 0 0 0 0 0 0 0 0 0 0 0 0 0 0 0 0 0 0 0 0 0 0 0 0 0 1
0 0 0 0 0 0 0 0 0 0 0 0 0 0 0 0 0 0 0 0 0 0 0 0 0 0 0 0 0 1 1 2 0 1 3 4 6 10 8 7 9 13 19
14 7 1 0 0 0 0 0 0 0 0 0 0 0 0 0 0 0 0 0 0 0 1 0 0 0 0 0 0 0 2 5 6 2 2 7 7 19 18 20 24 34 42
11 1 0 0 0 0 0 0 0 0 0 1 1 4 8 1 2 0 2 0 2 3 6 11 13 8 12 12 0 0 2 12 4 0 1 4 6 16 17 36 51 59 62
0 0 0 0 0 0 0 0 0 0 0 0 8 19 9 5 1 4 1 1 6 4 7 10 9 1 0 0 0 0 0 0 0 2 8 7 1 0 0 0 0 4 9
4 0 0 0 0 0 0 0 0 3 3 13 8 4 1 0 3 13 13 10 8 7 6 0 0 0 0 0 0 0 0 0 0 0 0 0 0 0 0 0 0 0 0
2 0 0 0 0 0 3 13 2 11 8 12 5 4 6 6 9 15 10 16 3 0 0 0 0 0 0 0 0 0 0 0 0 0 0 0 0 0 0 0 0 0 0

GFSGL_con_mucape_042.txt.gz
CAPE
973 1534 1390 1107 775 465 248 238 243 148 90 123 9 24 35 64 45 61 85 41 39 16 38 99 157 449 560 938 1280 1273 1132 766 38 13 15 16 14 64 89 4 0 0 0
685 1304 1386 1074 633 396 247 252 204 80 13 10 8 12 11 12 18 16 15 16 8 7 5 12 62 116 330 303 627 394 972 779 64 22 34 15 29 1 2 2 3 2 2
1089 1360 1406 1163 840 601 317 209 181 76 21 6 5 3 4 4 4 9 12 13 17 8 8 14 13 20 11 5 14 11 113 141 26 23 19 27 34 32 3 4 13 7 4
453 1353 1430 1273 1072 743 548 333 164 101 37 8 8 4 2 1 2 2 2 7 9 16 17 16 13 10 12 17 15 31 37 5 90 29 18 26 19 14 11 5 10 13 9
644 1058 1574 1461 1226 991 701 376 203 118 31 4 5 6 3 0 1 3 0 3 5 7 15 9 6 0 0 0 15 41 52 29 4 11 10 6 16 17 10 10 10 8 5
856 1022 1405 1617 1362 1074 819 488 299 166 33 9 3 3 2 0 0 0 0 0 0 0 0 0 2 0 0 0 0 0 0 54 81 30 15 1 1 0 3 0 0 0 10
1178 1364 1604 1941 1568 1248 966 563 382 203 37 11 20 22 10 0 0 0 0 0 0 0 0 0 0 0 0 2 0 0 0 0 4 40 35 50 61 59 54 35 34 23 21
1249 1382 1988 1633 1639 1467 1089 763 537 197 29 0 5 27 12 0 0 0 0 0 0 0 0 0 0 0 0 0 0 0 0 0 0 0 0 0 10 21 22 37 48 45 19
1152 1310 1533 1774 1608 1292 704 893 660 162 89 0 8 29 5 0 0 1 0 0 0 0 0 0 0 0 0 0 0 0 0 0 0 0 0 0 0 0 0 1 33 24 93
1044 1162 677 1090 1238 963 919 1035 427 272 122 4 0 3 5 0 3 7 1 0 8 4 0 0 0 0 0 0 0 0 0 0 0 0 0 0 0 0 0 0 0 0 3
416 333 250 499 653 796 950 833 266 211 109 31 0 6 2 1 7 8 8 16 10 3 7 1 0 0 0 0 0 0 6 3 1 3 3 0 0 0 0 0 0 0 0
165 214 211 146 183 634 438 346 421 337 112 1 5 1 2 4 8 9 11 11 1 16 4 3 0 0 0 0 0 0 0 0 0 6 9 6 0 0 0 0 1 0 0
265 238 237 149 48 103 365 229 292 231 431 36 24 4 6 9 12 6 6 1 0 0 5 0 3 1 0 0 0 0 0 0 0 0 0 0 0 0 0 1 3 6 34
298 189 157 185 121 122 106 109 158 312 69 16 22 8 0 14 12 10 4 6 3 2 6 4 5 0 0 0 0 0 0 0 0 0 0 0 0 0 0 0 0 0 0
273 259 225 184 212 116 108 75 106 72 108 4 6 10 9 2 7 3 7 10 7 7 10 10 3 0 3 0 0 0 0 0 0 0 0 0 0 0 0 0 0 0 0
185 177 130 96 71 11 29 56 76 24 47 5 15 19 4 12 4 1 0 0 5 2 0 0 6 3 0 0 0 0 0 0 0 0 0 0 0 0 0 0 0 0 0
76 67 42 40 40 37 21 0 0 22 3 2 4 3 3 0 0 0 0 0 0 0 0 7 8 1 0 0 0 0 0 0 0 0 0 0 0 0 0 0 0 1 2
74 57 27 11 0 0 0 0 2 3 0 0 0 0 0 0 0 0 0 0 0 0 0 19 8 0 0 0 0 0 0 0 0 0 0 0 0 0 3 4 6 6 7
41 13 2 0 0 0 0 9 29 28 0 17 0 0 0 0 0 0 0 0 3 3 6 2 0 0 0 0 0 0 0 0 0 0 5 7 9 10 15 17 20 1 0
0 0 0 0 0 0 0 0 0 0 0 0 0 0 0 0 0 0 0 0 0 0 0 0 0 2 5 2 4 5 16 27 32 31 32 31 35 37 40 39 45 45 45
0 0 0 0 0 0 0 0 0 0 0 0 0 0 0 0 0 0 0 0 0 0 0 0 0 6 3 6 13 28 37 36 32 43 41 47 38 30 56 67 57 54 58
1 0 0 1 0 0 0 0 0 0 0 0 0 0 0 0 0 0 0 0 0 0 0 0 0 6 13 10 19 24 22 21 19 18 12 9 12 21 23 47 63 73 74
43 48 38 22 0 0 0 0 0 0 0 0 1 0 0 0 0 0 0 0 0 0 0 0 0 0 4 3 0 0 0 0 0 0 0 0 6 32 38 33 30 20 12
31 67 55 4 0 0 0 5 10 0 14 28 44 30 7 0 0 0 0 0 3 1 0 3 5 3 4 2 0 0 0 0 0 0 0 0 0 0 0 0 0 0 0
5 11 9 2 0 6 1 0 0 13 31 30 18 23 18 13 23 2 0 4 10 2 11 1 3 5 2 0 0 0 0 0 0 0 0 0 0 0 0 0 0 0 0
36 29 5 9 0 0 0 0 14 32 49 21 0 0 0 0 0 9 6 10 4 8 6 1 0 0 0 0 0 0 0 0 0 0 0 0 0 0 0 0 0 0 0

GFSGL_con_mucape_045.txt.gz
CAPE
1750 1795 1400 1157 920 540 380 344 342 224 222 222 133 177 123 139 120 156 253 99 117 245 228 382 504 895 1546 1351 1577 1609 1452 1532 50 1 2 9 8 2 35 7 0 0 0
1261 1334 1493 1097 723 481 346 318 262 187 197 123 163 147 80 60 67 40 20 179 12 16 17 71 178 82 366 443 406 844 1122 998 6 13 20 24 9 33 2 12 1 0 0
925 1276 1258 1043 881 707 401 342 243 146 118 63 22 7 10 8 6 9 14 17 8 41 13 21 18 62 64 101 155 140 46 89 3 11 12 11 23 26 17 2 5 15 4
496 1127 1217 1152 1159 824 883 462 297 182 108 64 42 5 2 3 4 2 6 9 12 11 11 7 2 1 9 44 73 341 56 1 1 5 14 18 19 18 11 18 4 18 8
1270 1296 1386 1594 1372 1427 1180 609 433 249 143 82 57 14 2 1 1 0 4 6 6 10 6 0 0 0 0 0 14 36 137 3 3 27 27 31 17 11 20 1 3 0 0
625 1089 1636 1850 1657 1441 1099 760 595 284 194 124 65 39 3 0 0 0 0 0 0 1 1 2 0 0 0 0 0 0 2 130 59 14 0 10 24 24 9 5 13 2 11
1368 1341 1785 1817 1827 1716 1411 1142 715 576 256 129 35 60 32 0 0 0 0 0 0 0 0 0 0 0 8 1 0 0 0 0 13 119 77 71 61 61 58 47 45 55 58
1719 1814 1891 2039 1942 1824 1506 1397 982 558 249 106 92 221 35 0 0 0 0 6 5 0 0 0 0 0 0 0 0 0 0 0 0 0 0 0 0 4 20 38 57 52 33
1015 1417 1589 2059 2032 2005 1704 1461 1418 766 318 82 54 152 19 0 0 0 0 14 2 0 0 0 0 0 0 0 0 0 0 0 0 0 0 0 0 0 0 0 102 11 55
665 1612 1406 1637 1991 2272 1555 1660 1600 918 328 95 128 46 5 3 0 4 6 10 0 2 2 0 0 0 0 0 0 0 0 0 0 0 0 0 0 0 0 0 0 0 2
855 910 1044 802 1048 1654 1618 1805 1346 868 412 225 44 5 1 1 0 1 1 2 7 6 0 1 15 0 0 0 0 0 3 1 0 5 13 8 1 2 0 0 0 0 0
852 559 433 588 1058 1274 1517 1834 1309 495 158 225 30 0 0 1 1 1 0 0 3 0 2 0 3 0 0 0 0 0 0 0 1 6 8 5 0 0 0 0 0 0 0
228 205 160 109 149 684 1416 640 534 294 193 191 227 12 1 0 0 0 5 3 0 3 5 1 0 3 0 0 0 0 0 0 0 0 0 0 0 0 0 27 6 55 58
261 215 188 173 110 124 282 215 283 402 346 377 169 15 8 0 0 1 0 2 1 7 6 7 4 12 0 0 0 0 0 0 0 0 0 0 0 0 0 0 0 0 0
404 317 243 208 171 146 103 120 108 257 248 389 17 6 36 13 9 1 0 0 1 0 5 4 3 0 4 13 1 0 0 0 0 0 0 0 0 0 0 0 0 1 0
211 179 166 179 164 171 142 90 189 228 40 14 24 6 2 0 1 8 5 0 0 0 0 0 0 26 8 0 0 0 0 0 0 0 0 0 0 0 0 1 1 3 5
146 143 99 52 34 22 26 34 37 78 143 105 19 3 12 1 5 0 1 0 0 0 0 16 33 11 1 0 0 0 0 0 0 0 0 0 1 2 1 3 3 6 9
62 70 53 36 10 0 1 30 10 9 0 12 3 9 1 0 0 0 0 0 0 0 0 24 28 7 0 0 0 2 3 7 12 2 5 4 7 4 7 7 9 7 5
5 0 5 0 0 0 0 0 0 20 38 53 0 0 0 0 0 0 0 0 0 0 2 22 14 1 0 4 6 2 1 6 1 0 7 10 13 13 16 18 21 5 1
2 3 0 0 0 0 0 15 37 51 49 0 0 0 0 0 0 0 0 0 2 9 6 4 2 0 7 13 20 22 26 23 45 33 32 25 27 32 19 23 36 34 30
24 12 9 1 40 0 0 0 0 0 0 0 0 0 0 0 0 0 0 0 0 0 0 0 2 7 12 24 14 34 33 31 39 22 37 38 31 13 20 21 8 18 37
14 3 18 1 3 0 0 0 0 0 0 0 0 0 0 0 0 0 0 0 0 0 0 0 0 8 10 31 67 28 30 27 28 32 29 22 28 25 18 21 25 35 26
1 2 12 18 21 15 22 0 0 0 0 2 3 0 0 0 0 3 4 3 4 6 2 0 0 1 11 9 0 1 1 15 11 0 1 0 5 8 9 3 0 0 0
34 0 47 29 40 35 3 0 5 1 6 11 13 6 1 0 0 11 15 16 2 0 0 0 0 2 0 0 0 0 0 0 0 0 0 0 0 0 0 0 0 0 0
124 35 23 11 7 17 6 0 20 19 38 58 17 17 21 26 13 25 54 7 0 0 0 0 1 0 0 0 0 0 0 0 0 0 0 0 0 0 0 0 0 0 0
159 154 48 17 29 5 9 1 1 6 12 0 47 89 38 28 14 3 5 3 2 6 2 0 0 0 0 0 0 0 0 0 0 0 0 0 0 0 0 0 0 0 0

GFSGL_con_mucape_048.txt.gz
CAPE
1492 1226 1928 1631 1455 1174 1335 1142 945 704 321 453 333 340 309 428 450 750 295 79 64 102 129 162 240 415 581 790 687 769 524 197 18 0 0 0 10 27 13 15 4 1 1
1092 745 1005 1576 1122 1192 1150 870 783 731 653 546 411 487 455 324 400 427 97 14 14 3 5 15 32 32 68 137 253 469 446 220 0 0 10 20 29 34 34 29 8 0 6
1464 1009 1496 1423 1250 1309 1143 993 784 707 610 399 424 406 234 202 214 237 138 13 13 6 3 0 5 90 20 234 130 3 0 0 0 0 14 11 19 25 13 22 8 13 0
823 1543 1463 1601 1472 1213 1290 1166 1003 801 622 505 361 272 200 138 60 80 30 60 8 0 0 0 0 0 0 206 152 2 0 1 1 6 5 6 3 10 26 4 8 10 7
688 1344 1926 1895 1827 1490 1384 1236 999 882 640 551 435 191 108 0 0 0 23 16 21 4 0 0 0 0 0 0 0 3 0 0 0 5 20 19 12 8 4 0 0 1 0
1177 1999 2167 1996 1721 1685 1619 1170 1187 904 716 625 474 247 0 0 0 0 0 2 11 12 9 0 0 0 0 0 0 7 7 0 0 0 0 2 0 0 0 4 2 2 1
1506 1874 1921 2147 1889 1814 1714 1246 1011 999 885 553 297 101 0 0 0 0 0 15 7 14 2 0 0 0 0 0 0 0 0 0 2 21 15 27 16 22 23 45 33 48 40
1823 1727 1477 1522 1523 1146 1907 1457 1218 989 824 624 509 298 0 0 0 0 0 30 16 13 0 0 0 0 0 0 0 0 0 0 0 0 0 0 0 0 1 15 72 83 64
1533 960 495 966 1221 1024 1557 1607 1530 1139 791 432 435 211 11 0 0 0 0 54 29 13 0 0 0 0 0 0 0 0 0 0 0 0 0 0 0 0 0 0 16 58 55
581 598 358 310 478 610 957 1712 1497 887 597 241 290 184 21 0 0 0 0 2 39 0 0 2 0 0 0 0 10 2 0 0 0 0 0 0 0 0 0 0 0 0 0
892 380 97 238 200 502 303 615 956 1122 625 363 271 94 64 0 0 0 0 12 0 0 6 2 0 3 7 0 0 0 0 0 3 13 34 30 27 12 0 0 0 0 0
852 581 342 315 467 398 583 451 698 509 568 330 174 67 32 2 0 0 0 0 0 0 0 2 1 0 0 0 0 0 0 0 0 17 66 13 0 0 0 0 0 0 0
688 681 478 312 245 373 462 1369 725 655 451 290 154 86 47 0 0 0 0 0 0 0 0 1 0 0 0 0 0 0 0 0 2 32 10 1 0 0 0 22 38 46 51
365 201 111 103 129 111 125 304 391 368 338 301 256 203 45 3 2 0 0 0 0 0 0 0 0 8 3 0 0 0 0 0 0 0 0 0 3 9 22 0 0 0 0
490 485 403 350 274 187 156 131 105 194 183 413 221 229 234 6 1 0 0 0 0 0 0 0 2 3 0 0 0 6 8 0 8 0 4 6 14 3 7 0 13 18 11
288 189 150 141 132 132 107 99 154 102 64 164 194 157 100 8 5 1 0 1 0 0 0 0 0 0 0 16 23 11 0 0 5 5 16 0 2 11 0 7 17 12 25
267 191 106 72 67 28 20 24 66 144 162 150 241 59 20 18 8 6 7 8 2 0 0 0 0 1 53 11 8 27 9 5 3 30 10 14 11 18 0 33 27 39 16
15 5 1 77 10 27 13 0 0 2 5 6 73 67 64 11 5 6 4 3 0 0 0 0 0 56 33 15 23 28 18 18 16 19 14 14 21 14 21 34 31 43 12
32 8 14 6 19 0 2 2 2 30 38 163 60 8 9 3 5 1 0 0 0 0 0 0 5 12 25 37 77 78 30 33 8 4 6 42 48 32 41 43 34 15 3
44 1 1 10 4 1 1 4 0 1 1 2 1 14 49 10 0 0 0 0 0 0 0 0 23 37 29 83 75 52 20 11 28 17 47 68 70 57 24 2 2 0 0
17 30 5 9 19 24 8 8 69 52 27 23 2 0 0 0 0 0 0 0 0 0 9 37 16 22 49 92 67 43 27 39 39 49 57 95 36 25 42 11 7 3 3
116 24 17 7 20 28 38 38 59 39 69 51 2 0 0 0 0 0 0 0 0 0 24 41 5 19 11 24 24 40 39 34 62 62 59 29 19 24 25 1 0 4 1
153 19 18 9 6 21 3 0 14 9 4 0 0 0 0 0 0 0 8 1 2 1 21 34 6 14 28 72 86 46 24 41 29 18 22 21 13 2 0 0 0 0 0
196 85 49 6 4 50 30 22 5 2 1 9 3 1 0 0 0 4 17 43 30 34 60 16 9 2 1 33 10 5 2 0 0 1 0 0 0 0 0 0 0 0 0
183 174 124 43 1 28 26 16 16 0 0 0 31 23 17 0 0 0 106 48 54 36 13 4 9 0 0 6 1 0 0 0 0 0 0 0 0 0 0 0 0 0 0
273 216 204 192 29 74 71 44 10 3 2 2 3 4 10 7 10 24 17 5 6 7 9 6 5 2 4 0 0 0 0 0 0 0 0 0 0 0 0 0 0 0 0

GFSGL_con_mucape_051.txt.gz
CAPE
562 543 719 710 451 480 243 111 107 39 12 55 43 4 0 0 0 0 0 0 1 3 1 0 1 59 116 175 173 68 49 56 37 1 1 6 12 27 20 14 5 3 3
643 665 921 491 262 436 160 117 106 13 0 5 6 0 0 0 0 0 0 0 1 1 2 3 0 0 0 25 116 116 61 56 40 0 5 14 14 40 31 36 6 0 0
680 549 791 385 364 370 195 105 79 57 0 0 0 0 0 0 0 0 0 0 0 0 0 0 0 2 3 0 0 14 16 0 0 0 1 9 14 6 35 15 10 9 0
718 459 787 486 463 400 207 174 186 84 1 0 0 0 0 0 0 0 0 0 0 0 0 0 0 0 0 0 0 0 0 0 1 4 3 15 48 10 11 7 6 5 1
578 811 712 755 543 470 357 259 155 112 47 0 0 0 0 0 0 0 0 0 0 0 0 0 0 0 0 0 0 0 0 0 0 1 7 10 13 8 6 0 1 0 0
534 629 1029 970 854 491 487 372 244 142 57 33 0 0 0 0 0 0 0 0 0 0 0 0 0 0 0 0 0 0 0 0 0 0 0 0 0 0 0 0 0 0 0
488 1088 1141 911 842 673 691 433 320 171 121 31 0 0 0 0 0 0 0 0 0 0 0 0 0 0 0 0 0 0 0 0 0 0 0 0 0 1 4 1 4 8 28
663 717 767 556 485 644 576 393 412 236 156 95 27 0 0 0 0 0 0 0 0 0 0 0 0 0 0 0 0 0 0 0 0 0 0 0 0 0 5 3 16 45 53
1346 937 531 320 272 243 208 370 365 270 275 134 76 31 0 0 0 0 0 0 0 0 0 0 0 0 0 0 0 0 0 0 0 0 0 0 0 0 0 0 0 0 5
1190 844 404 179 127 13 175 34 77 310 263 189 115 84 48 0 0 0 0 0 0 0 0 0 0 0 0 0 0 0 0 0 0 0 0 0 0 0 0 0 0 0 28
911 536 269 53 28 18 169 172 105 80 232 201 142 94 67 0 0 0 0 0 0 0 0 1 2 0 0 0 0 0 0 0 0 0 0 0 0 0 0 0 0 0 0
702 233 57 206 335 299 279 106 132 214 234 196 160 108 97 24 7 0 0 0 0 0 0 0 2 1 0 0 0 0 0 0 0 0 0 6 3 0 0 0 0 0 0
725 565 475 396 282 312 396 271 221 243 371 299 262 239 112 88 40 0 0 0 0 0 0 0 3 3 0 0 0 0 0 0 0 0 0 0 0 0 0 0 0 0 0
1070 704 432 330 161 123 112 292 577 557 547 601 390 252 243 121 51 0 0 0 0 0 0 0 0 0 0 0 0 0 0 0 0 0 0 0 0 0 0 0 0 0 0
333 632 433 293 237 175 182 189 158 247 334 355 308 279 222 136 126 2 2 0 0 0 0 0 0 0 0 0 0 0 0 0 0 0 0 0 0 0 0 0 0 0 0
62 55 193 96 50 48 50 61 88 100 132 102 133 219 200 180 140 26 6 3 0 0 0 0 0 0 0 0 0 0 0 0 0 0 0 0 0 0 0 0 0 0 0
0 0 9 5 6 1 1 14 11 21 38 65 120 205 234 173 159 169 5 6 1 1 0 0 0 0 0 0 0 0 0 0 0 0 0 0 0 0 0 0 0 0 0
1 0 0 0 4 7 4 0 0 1 3 72 55 95 180 174 8 36 3 10 5 5 0 0 0 0 0 0 0 0 0 0 0 0 0 0 0 0 0 0 0 0 0
33 0 0 0 7 12 10 2 1 0 0 6 5 5 6 23 66 24 6 6 1 2 5 0 0 0 5 8 7 3 0 0 0 0 0 0 0 0 0 4 0 0 0
52 3 0 0 0 4 13 6 7 2 0 2 0 2 12 33 7 24 15 7 2 0 0 0 0 3 7 10 7 5 0 0 0 0 0 0 2 12 1 0 0 0 0
151 35 0 0 14 2 12 8 32 23 20 16 4 5 5 0 0 7 13 0 0 0 0 0 0 3 14 18 14 0 0 0 0 0 6 16 27 11 5 0 2 0 0
146 36 24 1 7 2 2 24 44 50 75 57 52 61 33 0 0 0 0 0 0 0 0 0 0 12 17 7 0 0 0 0 1 14 22 9 3 3 2 0 0 0 0
184 107 70 0 2 7 6 10 20 13 11 75 112 74 17 3 0 0 0 0 0 0 2 4 1 4 2 4 3 0 0 0 0 0 7 11 10 2 0 0 0 0 0
212 149 103 20 0 0 0 9 37 32 18 11 19 79 23 1 0 0 0 0 0 3 3 1 0 0 0 0 3 7 7 4 4 17 21 12 3 4 0 0 0 0 0
93 141 135 113 69 70 1 0 45 29 24 20 11 6 1 0 0 0 0 0 0 0 7 1 1 0 0 0 2 0 5 27 23 8 12 4 3 0 0 0 0 0 0
53 109 104 86 79 87 73 18 22 45 41 20 9 0 2 0 1 3 2 8 2 0 0 0 1 3 0 6 1 11 3 5 8 9 6 2 0 0 0 0 0 0 0

GFSGL_con_mucape_054.txt.gz
CAPE
796 590 733 426 258 237 63 77 49 11 8 3 21 3 0 0 0 0 0 0 0 0 0 15 51 81 130 160 137 138 121 50 37 0 8 13 4 23 11 6 11 0 0
976 710 683 313 406 223 119 71 2 1 0 2 0 0 0 0 0 0 0 0 0 0 0 0 0 1 65 67 70 127 125 57 3 0 0 1 4 28 17 29 18 0 0
965 546 846 233 339 178 81 91 60 36 20 0 0 0 0 0 0 0 0 0 0 0 0 0 0 0 0 2 44 46 28 13 12 0 0 5 9 19 15 10 4 9 1
796 716 847 342 340 155 122 73 72 71 3 0 0 0 0 0 0 0 0 0 0 0 0 0 0 0 0 0 0 0 0 0 1 5 1 10 22 9 25 10 17 3 0
673 551 908 519 310 194 152 106 85 86 0 0 0 0 0 0 0 0 0 0 0 0 0 0 0 0 0 0 0 0 0 0 0 0 4 13 11 7 11 10 7 0 0
557 534 623 747 546 362 198 195 146 126 52 0 0 0 0 0 0 0 0 0 0 0 0 0 0 0 0 0 0 0 0 0 0 0 0 4 12 3 0 0 0 0 0
519 648 639 759 660 465 319 285 203 153 102 57 14 0 0 0 0 0 0 0 0 0 0 0 0 0 0 0 0 0 0 0 0 0 0 0 0 0 0 0 0 4 8
819 469 910 936 571 377 296 199 220 138 126 95 60 15 0 0 0 0 0 0 0 0 0 0 0 0 0 0 0 0 0 0 0 0 0 0 0 0 0 0 0 3 13
971 565 668 628 348 165 124 92 33 35 125 83 62 41 20 0 0 0 0 0 0 0 0 0 0 0 0 0 0 0 0 0 0 0 0 0 0 0 0 0 0 3 13
1468 1354 1029 668 336 156 75 83 13 49 2 65 118 86 77 25 0 0 0 0 0 0 0 0 0 0 0 0 0 0 0 0 0 0 0 0 0 0 0 0 0 0 1
975 768 540 291 69 7 90 109 44 25 124 95 122 90 77 62 0 0 0 0 0 0 0 0 0 0 0 0 0 0 0 0 0 0 0 0 0 0 0 0 0 0 11
629 488 272 205 205 243 281 189 55 5 55 124 108 90 108 62 25 19 0 0 0 0 0 0 1 0 0 0 0 0 0 0 0 0 0 0 0 0 0 0 0 0 0
635 444 393 347 321 368 383 293 176 76 118 141 129 137 156 110 59 39 35 0 0 0 0 0 0 0 3 3 0 0 0 0 0 0 0 0 0 0 0 0 0 0 0
1166 976 849 584 329 303 186 192 300 391 167 200 204 173 202 127 130 113 44 0 0 0 0 0 0 0 0 0 0 0 0 0 0 0 0 0 0 0 0 0 0 0 0
473 526 455 292 258 165 114 126 131 205 364 523 435 435 411 291 219 86 18 6 4 0 0 0 0 0 0 0 0 0 0 0 0 0 0 0 0 0 0 0 0 0 0
40 48 51 21 10 15 13 7 11 23 69 90 134 158 396 274 185 117 69 11 1 3 0 0 0 0 0 0 0 0 0 0 0 0 0 0 0 0 0 0 0 0 0
37 7 0 1 28 8 17 4 0 0 0 3 33 71 94 98 223 166 107 33 32 0 0 0 0 0 0 0 0 0 0 0 0 0 0 0 0 0 0 0 0 0 0
90 37 3 0 0 0 6 3 6 2 0 3 5 23 65 155 237 221 168 136 110 2 1 0 0 0 0 0 0 0 0 0 0 0 0 0 0 0 0 0 0 0 0
116 86 15 0 0 0 0 10 3 3 2 2 4 7 49 15 42 195 165 17 54 32 1 5 13 0 0 0 0 0 0 4 0 0 0 0 0 0 0 0 0 0 0
103 101 40 1 0 0 0 0 12 11 5 1 1 6 2 24 39 30 9 67 60 58 6 14 14 14 0 2 3 0 6 4 6 0 0 0 0 0 0 0 0 0 0
189 136 65 11 5 0 0 0 1 9 32 36 33 37 25 18 12 35 45 8 43 104 62 32 2 13 8 1 6 2 9 3 0 0 0 0 0 0 0 0 0 3 2
101 124 105 70 18 9 1 0 0 0 14 23 16 38 70 51 43 14 0 0 9 15 0 0 7 4 0 5 12 11 14 0 0 0 0 0 0 1 10 22 12 7 3
2 23 91 96 83 61 24 9 0 0 1 9 15 35 78 87 47 5 0 0 0 0 0 0 0 1 3 19 36 30 2 1 1 0 2 1 8 29 27 27 5 1 1
0 1 10 71 86 56 54 45 16 0 0 0 53 85 96 141 148 64 2 0 0 0 0 0 0 0 4 8 27 4 1 1 1 1 1 5 9 17 0 1 5 9 4
0 0 8 38 26 42 63 38 8 4 13 13 2 8 31 84 57 33 2 2 0 0 1 2 0 0 0 1 2 4 4 2 4 6 14 6 4 7 1 6 9 4 1
0 0 8 30 65 81 66 33 7 0 2 29 28 18 10 7 6 9 8 13 20 25 11 3 1 0 4 5 2 0 0 1 0 0 2 11 19 21 8 2 3 0 0

GFSGL_con_mucape_057.txt.gz
CAPE
997 589 639 354 185 295 244 97 0 0 0 14 0 16 21 1 0 0 0 0 0 0 1 19 35 87 111 206 198 140 334 434 23 16 3 0 0 0 0 10 6 0 0
966 652 680 324 224 175 86 30 25 0 0 17 0 0 0 0 0 0 0 0 0 0 0 0 11 48 105 140 149 151 332 205 71 11 0 4 0 0 6 16 18 6 0
1173 785 579 375 469 217 110 50 0 0 0 0 0 0 0 0 0 0 0 0 0 0 0 0 0 0 29 48 95 124 80 99 37 6 0 14 8 15 17 24 18 19 2
1154 744 676 430 351 201 98 78 50 60 37 0 0 0 0 0 0 0 0 0 0 0 0 0 0 0 0 0 8 4 4 0 6 4 0 12 16 27 27 11 8 24 7
937 625 688 603 324 282 176 80 88 66 8 0 0 0 0 0 0 0 0 0 0 0 0 0 0 0 0 0 0 0 0 0 0 3 4 6 15 24 28 13 5 8 0
623 671 842 781 459 336 242 172 130 98 49 0 0 0 0 0 0 0 0 0 0 0 0 0 0 0 0 0 0 0 0 0 0 0 5 11 23 26 24 5 0 1 0
792 599 476 801 699 468 256 165 134 127 83 39 12 1 0 0 0 0 0 0 0 0 0 0 0 0 0 0 0 0 0 0 0 0 0 1 9 8 6 1 0 0 0
985 565 616 751 590 523 297 248 117 137 94 80 55 42 3 0 0 0 0 0 0 0 0 0 0 0 0 0 0 0 0 0 0 0 0 0 0 0 0 0 0 0 0
1114 958 667 932 892 561 303 215 136 115 30 104 55 68 49 5 0 0 0 0 0 0 0 0 0 0 0 0 0 0 0 0 0 0 0 0 0 0 0 0 0 0 0
1225 1118 906 856 693 503 301 150 61 20 14 37 95 63 76 45 8 0 0 0 0 0 0 0 0 0 0 0 0 0 0 0 0 0 0 0 0 0 0 0 0 0 0
1272 960 745 643 467 292 181 73 31 7 30 1 17 14 78 72 82 25 0 0 0 0 0 0 0 0 0 0 0 0 0 0 0 0 0 0 0 0 0 0 0 0 0
686 594 441 163 10 72 278 258 56 5 26 58 30 65 98 69 105 92 45 0 0 0 0 0 0 0 0 0 0 0 0 0 0 0 0 0 0 0 0 0 0 0 0
559 461 305 357 416 402 418 374 265 83 48 53 65 36 53 78 106 113 91 73 0 0 0 0 0 0 0 0 0 0 0 0 0 0 0 0 0 0 0 0 0 0 0
1017 554 564 518 376 657 403 264 289 514 249 96 103 112 75 76 173 155 104 131 58 25 0 0 0 0 0 0 0 0 0 0 0 0 0 0 0 0 0 0 0 0 0
258 115 105 203 215 181 191 142 92 98 134 298 370 381 227 247 257 234 122 187 54 48 4 2 0 0 0 0 0 0 0 0 0 0 0 0 0 0 0 0 0 0 0
0 0 15 20 19 5 0 1 0 0 4 21 107 230 382 456 181 275 211 122 144 58 43 0 0 0 0 0 0 0 0 0 0 0 0 0 0 0 0 0 0 0 0
0 0 0 0 5 0 0 0 0 0 0 0 2 4 53 81 99 276 232 157 139 114 78 72 8 0 0 0 0 0 0 0 0 0 0 0 0 0 0 0 0 0 0
0 0 0 0 0 0 0 0 0 2 2 1 4 1 4 4 44 119 259 205 162 72 137 84 58 1 0 0 0 0 0 0 0 0 0 0 0 0 0 0 0 0 0
19 15 2 0 0 0 0 0 0 1 5 4 6 1 4 9 17 109 175 163 135 156 74 43 36 17 1 1 0 0 0 0 0 0 0 0 0 0 0 0 0 0 0
93 74 39 2 5 15 2 0 5 0 0 0 3 4 0 5 3 9 26 54 87 45 76 66 65 34 17 4 4 0 0 0 0 0 0 0 0 0 0 0 0 0 0
0 74 176 73 73 63 50 37 22 0 0 0 8 27 29 28 34 20 26 43 44 42 32 75 110 73 13 29 21 3 0 0 2 0 6 0 0 0 0 0 0 0 0
0 0 0 61 74 59 80 66 40 18 0 0 0 5 9 5 33 59 57 49 35 10 22 12 10 69 88 24 52 36 33 12 25 8 0 0 0 0 0 0 0 0 4
0 0 0 0 8 49 82 84 69 47 2 0 0 0 8 19 27 76 90 12 2 0 0 0 0 0 1 29 43 62 23 32 34 0 0 0 0 0 0 0 9 14 20
0 0 0 0 7 21 27 66 87 88 33 0 0 0 0 1 39 76 81 69 0 1 0 0 0 11 21 34 34 25 29 30 21 0 0 0 0 0 0 1 6 25 27
0 0 0 0 1 41 45 32 45 45 24 2 3 10 15 4 4 11 58 92 17 0 3 8 12 1 6 0 2 1 5 14 21 0 0 0 2 0 0 4 5 1 3
7 0 0 0 7 37 40 38 40 26 22 12 7 8 18 20 24 3 0 25 34 5 19 27 30 2 1 1 1 0 0 1 7 5 0 0 0 10 6 0 3 1 12

GFSGL_con_mucape_060.txt.gz
CAPE
1383 950 549 373 276 81 94 111 31 5 0 0 0 41 32 23 6 0 0 1 0 0 3 8 12 46 160 317 319 188 98 272 231 3 5 0 0 0 0 1 1 0 0
1283 714 515 376 70 186 201 55 25 11 9 28 32 0 0 0 0 0 0 0 0 0 0 0 5 37 79 171 256 197 291 187 206 123 61 43 0 0 0 2 3 0 0
1194 826 628 301 233 249 104 37 44 23 0 13 6 0 0 0 0 0 0 0 0 0 0 0 0 0 35 105 123 111 295 290 354 327 94 3 10 6 14 14 20 2 7
1207 942 585 491 398 284 177 53 14 18 20 7 5 0 0 0 0 0 0 0 0 0 0 0 0 0 0 13 67 50 104 89 71 282 12 0 5 18 17 17 14 2 22
1081 951 486 431 374 281 195 80 63 56 51 39 17 0 0 0 0 0 0 0 0 0 0 0 0 0 0 0 0 0 11 9 11 48 12 10 3 18 26 16 12 4 12
905 734 551 563 470 337 274 197 86 80 58 56 58 3 0 0 0 0 0 0 0 0 0 0 0 0 0 0 0 0 0 0 0 0 2 9 17 19 24 29 12 2 3
691 571 448 735 710 460 347 208 122 102 58 48 34 34 6 0 0 0 0 0 0 0 0 0 0 0 0 0 0 0 0 0 0 0 0 7 19 25 22 13 1 0 0
1011 722 444 410 583 675 546 296 181 105 61 57 34 41 57 4 0 0 0 0 0 0 0 0 0 0 0 0 0 0 0 0 0 0 2 1 0 4 5 2 2 0 0
1341 942 648 408 505 554 588 339 217 172 103 35 60 52 23 58 24 0 0 0 0 0 0 0 0 0 0 0 0 0 0 0 0 0 0 0 0 0 0 0 0 3 2
1193 1040 893 508 661 526 326 191 142 73 41 49 3 18 53 76 62 2 0 0 0 0 0 0 0 0 0 0 0 0 0 0 0 0 0 0 0 0 0 0 0 0 0
1273 1181 919 545 425 325 182 99 34 5 0 3 45 14 14 46 71 83 21 0 0 0 0 0 0 0 0 0 0 0 0 0 0 0 0 0 0 0 0 0 0 0 0
878 592 464 285 50 0 0 128 86 37 12 0 10 2 25 16 58 76 92 25 5 3 0 0 0 0 0 0 0 0 0 0 0 0 0 0 0 0 0 0 0 0 0
338 265 191 73 64 94 507 467 282 95 65 35 31 27 0 30 74 50 73 102 73 42 20 4 0 0 0 0 0 0 0 0 0 0 0 0 0 0 0 0 0 0 0
392 231 148 103 103 164 123 136 248 287 475 299 112 48 17 7 38 71 54 72 77 87 51 59 8 0 0 0 0 0 0 0 0 0 0 0 0 0 0 0 0 0 0
322 181 117 120 71 72 74 69 97 103 68 167 239 353 294 157 161 114 97 144 127 96 57 7 18 34 3 0 0 0 0 0 0 0 0 0 0 0 0 0 0 0 0
20 1 0 0 0 0 0 0 0 0 0 0 0 13 126 226 239 165 240 169 148 123 88 30 13 47 43 0 0 0 0 0 0 0 0 0 0 0 0 0 0 0 0
0 0 0 0 0 0 0 0 0 0 0 0 0 0 0 3 6 30 112 107 173 193 168 79 87 62 62 56 2 4 0 0 0 0 0 0 0 0 0 0 0 0 0
0 0 0 0 0 0 0 0 0 0 0 0 1 2 8 1 2 12 32 56 57 210 173 167 151 56 62 56 2 0 7 10 1 0 0 0 0 0 0 0 0 0 0
2 0 1 5 0 0 0 0 0 0 0 0 1 9 13 12 3 6 16 41 112 165 143 86 80 55 7 32 11 3 17 6 6 2 0 0 0 0 0 0 0 0 0
79 94 87 78 41 39 35 1 0 0 0 0 0 1 8 10 14 24 15 14 33 62 84 93 118 71 38 18 11 1 5 0 2 0 0 0 0 0 0 0 0 0 0
0 0 0 0 56 109 65 43 16 0 0 0 0 0 0 0 0 9 22 51 57 51 78 86 86 83 44 93 94 44 20 12 0 3 0 1 6 16 1 0 0 0 0
0 0 0 0 0 0 65 68 74 45 53 7 10 0 0 0 0 0 0 5 58 53 64 60 39 43 57 26 27 62 92 38 3 9 8 7 28 21 19 0 2 0 0
0 0 0 0 0 0 0 4 77 95 50 43 26 0 0 0 0 17 6 0 0 14 0 0 0 0 0 11 16 7 11 14 61 57 24 6 61 15 4 0 0 0 0
0 0 0 0 0 0 0 43 65 57 54 52 27 5 0 0 0 5 10 5 18 26 1 0 0 0 2 0 17 34 59 78 46 58 29 24 33 12 0 0 0 0 0
0 0 3 1 0 0 0 21 32 42 42 37 15 0 0 0 0 0 2 14 16 42 51 22 1 2 8 3 0 1 13 14 10 18 6 1 0 0 0 0 0 0 0
2 1 3 0 0 1 14 23 34 34 31 30 28 24 11 7 9 16 8 0 0 0 8 14 16 4 0 4 9 2 5 1 1 1 1 0 5 1 0 1 0 2 0

GFSGL_con_mucape_066.txt.gz
CAPE
3126 2916 2594 2179 1860 1468 1387 1181 1061 859 632 669 695 790 647 499 407 382 330 280 411 404 454 575 744 895 866 1375 1595 1642 1323 330 34 119 2 110 0 9 0 0 4 0 0
3404 3177 2687 2422 1920 1650 1364 1201 1038 838 714 608 528 550 538 387 248 184 154 111 157 189 176 496 679 501 949 1174 1453 1274 1498 323 47 170 158 29 0 4 0 3 0 0 0
3593 3281 2575 2294 1983 1789 1400 1242 829 836 679 554 571 556 508 336 194 108 72 76 96 136 182 261 280 349 643 770 1095 916 603 68 86 107 43 62 73 15 2 0 6 2 3
3440 2885 2434 2295 1887 1641 1424 1264 1032 914 815 658 630 547 482 291 183 17 0 0 85 93 146 122 144 150 394 438 719 388 240 113 230 182 162 52 3 7 9 7 2 2 7
3502 2666 2401 2253 1871 1698 1424 1269 1095 981 899 859 739 586 479 275 127 18 0 0 83 125 141 104 82 10 0 120 414 331 129 165 131 109 16 10 18 15 9 8 8 5 5
3418 2604 2472 2375 2008 1930 1672 1420 1438 1257 1119 971 768 511 331 152 11 0 0 0 7 54 134 16 11 0 0 0 0 61 72 42 60 14 45 73 14 8 14 4 7 8 2
3324 2546 2510 2409 2085 1991 1901 1776 1695 1604 1449 1309 895 546 163 95 26 0 0 3 0 2 31 18 3 0 0 4 0 0 0 25 89 165 37 9 17 8 23 16 21 2 9
3105 2439 2521 2466 2129 2060 2163 2011 1979 1637 1494 1398 1097 588 34 12 11 1 0 45 7 1 0 2 8 5 1 3 30 11 7 5 0 4 52 18 19 4 17 19 28 22 45
2852 2521 2356 2322 2109 2091 2163 2092 2197 1539 1569 1495 1381 695 106 17 3 0 3 46 23 22 6 0 1 6 0 0 10 17 44 19 0 0 1 3 5 16 5 15 18 20 43
2850 2571 2479 2341 2198 2240 2245 2192 1340 1040 1082 792 799 585 84 2 1 0 3 68 106 49 47 1 0 0 0 0 3 13 20 24 9 3 0 0 0 1 0 67 80 74 86
2749 2557 2462 2320 2509 2208 2066 1697 1380 1154 659 774 583 616 289 19 1 13 11 10 84 59 22 17 0 0 0 0 0 7 6 27 2 20 22 27 27 21 16 35 95 71 79
2725 2529 2387 2063 2137 1689 1721 1127 819 789 568 635 484 235 242 78 3 0 4 7 22 38 22 13 1 0 0 0 0 0 0 0 0 0 0 0 0 4 16 36 44 42 29
1704 1411 1479 1341 1268 935 1084 754 410 724 584 400 244 440 465 332 183 0 0 0 16 16 2 0 0 0 0 0 0 0 0 0 0 0 0 0 0 0 0 0 0 0 0
629 325 374 475 809 724 800 706 521 539 460 288 598 660 443 476 229 94 2 5 5 0 12 35 8 11 13 27 6 4 2 5 1 0 0 0 0 0 0 0 0 0 0
473 368 477 933 416 968 799 414 182 163 117 256 223 259 254 164 109 81 56 98 43 26 23 6 11 5 11 15 16 11 17 14 18 9 1 0 0 0 10 2 0 1 0
517 670 747 651 592 273 101 41 0 0 0 0 0 0 1 0 0 0 4 16 70 65 53 44 79 86 30 51 59 17 10 39 33 34 6 0 0 11 22 56 57 28 0
1079 1341 295 84 97 58 12 0 13 0 0 0 0 0 0 0 0 0 0 0 2 2 8 40 68 85 31 82 47 69 92 74 45 31 11 9 20 29 6 10 36 61 17
215 41 52 59 33 37 50 27 5 7 35 69 0 0 0 0 0 0 0 1 23 12 20 32 31 25 19 78 68 107 24 22 60 39 31 8 9 9 7 4 7 39 21
192 91 237 121 134 105 88 49 41 54 66 65 26 1 0 0 0 0 0 0 67 72 6 4 10 12 8 2 9 8 0 55 36 4 2 17 7 4 10 0 0 0 0
302 188 220 542 207 214 126 83 75 130 188 198 140 83 22 9 18 31 31 111 12 13 23 23 14 16 10 12 0 0 0 6 1 3 0 0 1 1 2 0 2 0 0
113 171 31 83 141 62 57 72 123 179 180 223 179 122 16 0 27 38 50 66 75 79 74 104 55 102 54 14 1 0 0 0 1 0 15 19 42 56 20 40 4 0 0
0 0 0 1 9 11 17 32 76 157 221 239 193 181 2 5 47 61 77 79 66 70 100 76 96 68 45 46 50 57 32 27 38 22 27 4 13 22 62 37 13 9 0
1 0 0 1 4 1 6 37 92 133 162 126 42 41 27 38 54 72 68 65 62 22 10 4 8 10 6 5 5 2 39 22 42 65 87 55 48 29 5 15 15 0 0
8 6 6 10 7 13 40 55 65 8 61 67 78 49 52 52 34 28 43 25 23 18 22 19 0 0 0 0 2 5 2 3 14 6 4 13 80 53 1 2 1 5 0
2 3 4 5 2 15 50 37 10 6 15 10 16 27 26 13 3 0 3 0 12 0 0 0 0 0 0 7 10 2 1 0 0 0 0 0 0 0 0 0 0 0 0
4 4 5 11 10 13 8 16 19 10 6 3 10 9 4 31 8 18 30 42 5 0 0 13 6 0 0 0 0 0 0 0 0 0 0 0 0 0 0 0 0 0 0

GFSGL_con_mucape_069.txt.gz
CAPE
2916 3029 2730 2186 2099 1834 1768 1320 1134 1073 898 753 580 1159 886 756 703 493 619 469 368 509 575 527 706 896 1124 1718 1985 768 1555 1577 431 4 59 0 30 1 5 4 0 0 0
3361 3080 2888 2566 2397 2130 1825 1277 1314 1051 935 817 582 423 945 645 341 374 255 151 226 212 315 388 570 761 868 1197 1581 1273 1407 1513 113 20 48 116 6 0 13 0 0 0 0
3749 3296 2434 2892 2502 2818 1780 1380 1211 1099 982 791 618 710 982 794 235 207 186 208 185 222 215 382 386 426 663 877 1132 1345 1225 1024 82 67 151 75 10 2 62 2 0 0 3
3674 3303 2464 2587 2749 2255 1736 1481 1206 1170 1161 1036 890 902 488 401 243 158 18 4 173 170 198 218 232 273 596 686 896 938 896 312 112 50 149 102 18 8 17 29 9 1 3
3318 3226 2563 2567 2359 2100 1682 1491 1313 1191 1182 1184 984 948 854 413 160 208 57 46 167 180 160 195 231 14 8 185 307 817 337 207 146 132 46 114 21 25 14 24 6 9 5
3364 3170 2636 2705 2897 2204 2033 1661 1445 1961 1511 1664 1115 1034 635 644 29 34 0 140 128 179 216 136 143 0 0 0 30 185 260 193 131 146 137 44 12 22 17 19 5 13 2
3929 3287 2819 2890 2628 3062 2519 1685 2129 2073 2148 2035 1754 1163 790 447 28 15 9 0 101 88 109 127 69 0 8 9 0 0 76 80 60 13 23 48 56 62 30 21 25 25 8
4289 3318 2968 2890 2715 2552 2659 2304 2074 2223 1905 2074 1781 1340 1099 411 42 17 7 1 121 76 13 50 150 108 32 41 71 61 16 5 2 7 12 21 30 21 24 30 55 33 9
3950 3300 2969 2978 2883 2855 2917 3210 2762 2168 2118 1763 1549 1282 1115 562 23 14 3 2 64 209 91 15 19 76 0 0 113 141 66 48 3 3 3 23 9 6 4 21 22 22 1
3833 3134 2883 2816 2833 2873 2894 3207 2752 2174 1728 1246 1069 876 706 401 19 0 1 6 32 219 291 200 1 0 0 0 74 86 75 114 7 0 1 0 6 6 7 69 25 11 32
3361 3172 2937 2788 2828 2531 2944 2779 2207 1762 1347 1195 918 841 670 503 186 0 4 6 5 64 137 188 102 1 0 0 0 155 96 38 9 28 41 52 45 91 43 41 303 298 193
3442 3174 2934 2889 2481 2543 2710 2566 1820 1518 1427 1025 874 830 452 647 40 2 20 21 2 39 149 143 101 16 2 1 0 0 5 8 35 13 86 59 57 39 31 63 306 243 170
3688 3444 3278 3038 2716 2359 2179 1810 1090 1023 929 966 586 561 618 460 370 21 23 1 15 17 21 17 32 1 4 3 0 0 0 0 0 0 7 7 1 0 43 80 125 17 5
1798 1711 1551 1834 1745 1540 1556 1178 869 692 784 661 503 652 905 979 689 483 51 18 0 4 26 30 7 8 21 5 16 14 13 33 27 17 8 4 0 0 0 0 0 0 0
1145 958 1215 1230 1110 1039 1149 782 834 699 530 470 251 221 175 166 184 127 119 206 146 116 47 180 93 90 51 39 17 28 40 21 18 18 10 22 18 5 0 0 0 0 0
693 807 733 870 1000 1224 1136 354 148 122 8 0 6 0 0 0 0 0 0 2 27 26 57 47 98 172 132 200 148 41 24 21 28 11 16 27 24 15 3 0 0 0 0
1084 1048 992 846 844 450 186 132 229 41 0 0 0 0 0 0 0 0 0 0 0 0 0 0 0 0 3 51 58 62 10 51 38 19 32 6 9 11 3 0 0 0 0
858 252 675 228 125 41 75 93 7 157 138 46 4 0 0 0 0 0 0 0 3 4 0 9 13 16 23 7 11 23 24 45 39 41 11 35 17 23 7 16 2 1 0
65 48 86 106 77 64 242 210 117 99 57 80 192 14 1 0 0 0 0 0 0 25 87 81 64 25 18 17 27 18 42 53 38 54 63 47 3 8 22 17 15 11 1
8 22 9 6 7 192 147 91 78 128 253 439 217 65 9 8 66 77 21 95 226 100 53 119 83 82 21 8 9 2 2 0 2 2 2 2 16 25 3 7 8 11 3
32 97 61 63 2 93 111 93 88 137 296 363 373 131 76 60 115 112 129 114 67 50 33 173 138 287 317 160 76 42 38 9 6 0 0 0 0 2 2 0 21 9 23
30 76 101 133 110 86 80 119 107 91 180 204 339 185 2 24 41 32 25 35 32 44 62 65 78 12 9 5 4 0 10 3 34 79 123 82 35 4 14 24 6 0 2
0 11 18 9 23 24 24 38 78 157 170 102 62 15 5 12 10 25 39 15 9 8 8 7 0 0 0 0 0 4 3 7 16 17 0 2 22 65 20 6 7 0 4
5 10 9 5 9 28 38 44 22 13 27 17 10 24 23 21 14 8 13 7 2 5 19 0 6 0 0 0 0 0 5 2 2 0 2 1 0 2 0 0 2 2 0
21 19 4 11 20 22 34 13 10 7 6 0 0 1 10 2 3 4 31 0 2 4 0 0 10 18 29 0 0 0 0 0 0 0 20 34 25 18 23 3 2 2 0
6 5 3 2 5 9 5 2 5 1 1 1 0 0 6 2 6 23 24 24 23 6 32 8 7 10 6 1 0 0 0 0 0 0 0 34 20 17 6 16 18 19 16

GFSGL_con_mucape_072.txt.gz
CAPE
3650 3249 3297 2953 2818 2935 2846 2383 1898 2010 1758 1335 639 1210 1093 1231 1129 1175 937 818 549 716 733 506 547 760 779 1322 1127 807 559 242 165 137 2 20 7 9 0 0 1 0 0
3540 3505 3225 2942 2846 2881 2725 2443 2384 2215 1681 1674 1379 1009 978 1144 1090 468 398 587 454 427 322 501 571 662 701 594 525 587 517 235 181 160 55 49 45 3 0 0 0 0 0
3606 3290 3028 2751 2989 2770 2829 2497 2472 2012 1861 1493 1483 1247 1077 1100 648 617 434 495 492 506 263 257 585 593 604 716 702 838 504 173 138 121 98 86 35 7 0 17 9 0 0
3364 3589 3491 3108 2904 2705 2678 2669 2240 2188 2114 1101 1154 1044 818 899 726 734 330 157 426 429 162 258 472 669 762 894 949 667 331 180 145 97 77 75 65 8 17 3 4 6 0
3859 3567 3662 3143 3098 2596 2691 2661 2377 2118 1707 1591 1252 1112 1021 633 228 330 266 226 334 405 232 293 193 93 5 152 319 582 342 365 226 219 135 147 49 23 27 15 5 5 5
3979 3858 3807 3742 2798 2473 2475 2698 2554 2283 2262 2091 1711 1159 1211 1333 58 38 59 19 158 264 121 190 93 0 0 0 94 356 264 151 107 427 122 55 41 26 45 33 16 15 6
4100 3615 3679 3650 3472 3200 2819 2709 2469 2438 2655 2442 2111 1393 1190 1210 264 2 2 5 24 89 138 225 139 117 77 30 0 75 182 193 54 51 95 68 64 48 38 33 19 33 39
4270 3620 3610 3541 3084 2806 2612 2703 2774 2870 2725 2550 2209 1974 1701 657 297 50 0 17 13 17 69 254 160 141 82 209 149 126 144 21 142 35 17 4 6 15 48 33 48 24 27
4254 3979 3274 3412 3047 2774 2830 2889 2892 3049 2684 2268 2186 1966 1889 676 185 7 0 0 14 2 11 56 131 190 94 8 99 246 104 16 21 13 3 3 0 0 1 6 7 6 4
3995 3276 3006 3277 3072 2917 2806 2979 3065 2703 2414 1881 1951 1637 1034 813 146 0 0 0 13 19 13 64 55 8 74 1 14 125 196 183 5 0 0 1 83 8 1 0 3 14 0
3899 2953 2335 2640 3183 2903 2800 2829 2758 2533 2220 2317 1739 1631 1457 1038 168 8 0 0 0 24 10 4 41 28 0 3 0 56 95 98 88 125 100 42 5 28 3 2 10 4 1
2882 2487 1684 2317 2599 2610 2535 2368 2461 2350 2257 1899 1680 1434 1117 789 156 18 0 1 23 16 122 0 19 32 25 0 0 0 39 63 131 165 116 147 97 97 42 7 13 86 85
680 14 762 1468 2196 2758 2550 2237 2126 2094 1771 1604 1294 911 1412 1262 335 109 0 0 15 2 7 1 7 24 34 13 5 2 0 0 0 0 19 120 67 62 105 78 103 136 120
303 1 534 947 2081 2317 1548 1900 1371 1179 1326 1534 1278 843 1272 1543 1198 182 40 11 0 0 0 0 0 7 7 8 3 17 14 11 0 5 11 7 35 15 2 6 17 36 6
792 671 872 1337 1288 1297 1463 1118 1201 608 921 1131 1027 622 594 181 197 127 80 64 27 10 68 185 178 13 18 13 8 24 33 25 11 20 19 14 12 48 4 13 11 5 3
1123 844 1053 1114 998 980 924 410 497 227 122 105 113 31 4 3 0 0 0 0 0 0 2 2 26 44 48 34 65 70 30 28 34 11 27 37 39 12 17 14 5 13 12
798 768 778 418 516 563 1069 677 30 1 1 0 11 0 0 0 0 0 0 0 0 0 0 2 35 43 31 41 60 22 56 55 18 36 65 10 7 5 13 15 39 25 1
400 355 354 218 271 274 352 326 131 24 3 14 15 0 0 0 0 0 0 0 0 6 12 55 8 24 30 19 40 28 56 29 18 49 31 12 14 44 22 47 25 34 9
142 197 130 24 69 53 9 11 10 24 223 258 40 14 1 0 0 0 0 0 59 48 53 239 211 129 30 55 17 10 12 8 0 2 7 2 0 4 12 2 2 12 18
11 37 27 11 31 23 6 30 28 29 38 88 122 23 15 12 4 10 2 123 65 48 34 103 169 214 112 34 7 1 1 1 3 1 0 0 0 0 0 1 4 15 23
0 0 0 0 9 1 2 53 94 76 91 121 54 19 64 11 0 6 0 2 3 24 15 17 13 0 0 0 3 93 3 15 30 22 15 9 26 16 1 0 0 0 0
16 41 47 14 32 31 17 40 67 26 67 90 42 44 31 7 3 11 18 24 25 8 6 19 8 3 1 5 5 5 1 1 0 1 10 23 23 33 10 0 0 11 14
11 0 10 69 95 65 77 89 86 107 104 63 38 29 13 16 19 17 9 1 5 3 2 2 0 0 0 0 0 0 0 0 0 0 0 11 15 27 25 30 29 36 9
0 0 1 7 19 80 67 45 55 27 34 32 9 9 14 15 16 23 0 0 5 0 0 0 0 0 0 0 0 0 0 0 0 0 0 10 11 13 21 27 27 18 18
9 22 8 20 67 85 55 47 33 23 34 38 30 27 10 0 0 0 0 0 1 4 11 12 5 7 1 0 0 0 0 0 0 0 0 0 23 15 6 3 2 1 3
1 4 1 13 16 26 20 4 19 9 13 6 0 0 0 0 1 4 9 17 6 15 10 16 0 0 0 0 0 0 0 0 0 0 0 0 15 21 19 7 11 5 7

GFSGL_con_mucape_075.txt.gz
CAPE
2319 2526 2466 2365 2079 1626 1905 1486 1292 902 637 476 393 592 515 419 403 224 267 258 210 197 291 314 289 330 271 232 442 372 369 275 138 85 50 25 27 1 6 0 0 0 0
2618 2572 2565 2412 2069 2006 1557 1710 924 1036 824 585 365 465 491 509 402 318 202 203 156 154 200 200 169 312 282 214 237 285 280 263 168 129 78 54 52 29 9 3 3 0 0
2818 2666 2386 2293 2033 2127 1824 1495 1135 948 676 683 499 364 270 269 235 209 64 62 37 106 163 110 45 207 325 299 344 325 238 262 156 128 93 70 83 32 1 0 8 7 0
2653 2644 2513 2190 2082 2017 1814 1606 1373 932 928 821 528 445 393 199 169 154 89 7 0 50 79 5 149 216 151 337 360 395 291 183 115 97 114 74 88 53 7 3 12 12 1
2666 2666 2428 2181 2255 2129 1671 1681 1257 1036 1059 879 711 422 220 189 153 137 60 34 0 14 34 79 137 81 9 45 219 340 310 207 146 169 168 113 82 46 15 17 12 8 1
2678 2600 2846 2474 2279 2141 1993 1695 1254 1011 955 806 591 482 334 150 110 88 58 23 22 46 15 52 67 31 0 7 234 297 277 193 369 177 161 163 133 131 82 34 33 8 8
2847 2930 3098 2612 2156 1845 1690 1736 1389 955 1046 818 750 564 462 355 204 60 1 5 8 21 36 10 14 92 45 0 60 251 269 185 48 35 205 88 142 133 57 32 30 29 24
3336 3100 2835 2515 1908 1787 1508 1252 1108 1084 1007 1266 1045 998 714 588 394 100 0 0 3 6 18 7 7 6 95 41 0 22 34 106 146 102 38 18 20 46 74 88 73 44 44
3407 2901 2860 2463 2204 1603 1250 1064 1171 1189 1402 1429 1214 1168 816 740 274 147 0 0 0 1 17 13 13 46 45 5 84 33 17 0 36 43 50 19 7 0 4 22 70 31 20
3507 3274 2953 2336 1903 1326 911 1064 1331 1394 1363 1257 1022 851 940 665 287 35 10 0 0 0 0 0 4 4 20 5 0 75 72 28 18 1 0 9 18 0 0 0 0 8 18
3099 2792 1296 606 20 169 673 1311 1293 1418 1296 1091 1131 944 571 412 201 92 10 2 0 0 0 0 4 8 2 0 0 39 33 42 101 37 6 4 11 98 31 1 0 0 3
2134 1691 1272 745 486 139 44 235 1077 1070 970 1124 1027 755 743 514 233 97 16 14 0 0 0 0 0 3 3 0 0 0 9 46 61 52 52 61 31 61 71 36 3 2 3
1166 1047 930 550 3 0 0 0 709 852 889 933 746 578 640 577 289 129 48 29 2 0 0 0 0 0 14 1 0 0 0 0 0 2 7 7 95 61 50 26 8 4 6
937 464 318 0 18 67 40 138 549 674 694 633 633 660 743 550 380 229 125 51 31 0 0 0 0 0 0 0 0 0 0 0 5 0 0 8 4 0 72 115 85 73 51
657 624 189 75 36 322 572 714 686 494 540 650 671 572 578 516 405 258 128 118 39 2 0 5 10 1 1 2 3 2 2 1 6 16 12 16 15 20 15 6 53 98 94
717 495 314 108 348 591 525 605 513 326 362 447 286 189 245 377 218 94 91 102 54 29 21 20 23 15 16 8 29 17 35 20 15 4 18 29 48 38 39 26 23 23 19
387 385 217 192 245 411 350 358 233 141 101 87 122 48 0 5 0 0 0 0 0 0 0 13 0 0 0 0 3 10 18 18 43 23 29 29 44 54 21 27 32 29 16
24 154 187 153 184 233 202 282 74 48 0 1 0 0 0 0 0 0 0 0 0 0 0 0 0 4 5 6 4 35 24 7 0 2 12 15 22 16 19 39 38 35 32
6 5 36 37 93 22 103 42 41 2 1 9 0 4 12 10 3 0 0 30 6 0 54 18 4 4 5 3 1 0 0 0 0 0 2 0 0 0 0 0 0 0 0
2 23 10 1 0 5 10 39 28 19 40 46 32 21 21 23 7 9 51 59 1 2 30 8 6 17 24 2 2 0 2 2 0 1 1 2 3 0 0 0 0 0 0
0 0 0 4 0 0 5 11 12 5 14 51 53 34 19 34 33 36 17 11 1 0 2 0 5 0 2 9 10 2 4 3 3 0 0 0 3 2 8 3 15 2 3
0 0 18 5 0 0 4 1 15 17 20 28 50 42 19 16 32 30 29 39 31 20 8 0 1 1 0 0 0 0 5 4 0 0 0 0 3 0 0 0 0 10 0
0 0 0 2 10 4 5 6 7 32 35 44 28 35 44 46 57 57 40 36 15 0 0 0 0 0 0 0 0 0 0 0 0 0 0 0 2 2 7 11 9 3 0
0 0 3 25 18 14 28 46 20 4 15 28 26 34 41 53 38 49 18 0 0 0 0 0 0 0 0 0 0 0 0 0 0 0 0 0 0 0 1 2 0 0 0
0 1 9 31 37 33 30 41 58 25 23 27 31 34 28 5 4 0 0 0 0 0 0 0 0 0 0 0 0 0 0 0 0 0 0 0 0 0 1 4 6 2 1
3 7 15 22 24 30 52 56 59 44 25 12 13 0 0 0 0 0 0 0 0 0 0 0 0 0 0 0 0 0 0 0 0 0 0 0 0 0 0 3 0 0 0

GFSGL_con_mucape_078.txt.gz
CAPE
1685 2134 2008 1902 1849 1546 1379 1107 887 1010 690 536 485 468 717 409 509 394 209 137 48 30 17 67 106 164 185 154 194 186 140 126 107 88 38 36 28 26 1 0 0 0 6
1606 1973 1993 2030 2052 1759 1453 1410 1331 965 775 597 334 390 378 283 194 53 38 140 83 78 70 147 119 70 145 129 158 164 220 195 214 210 70 53 45 41 17 0 0 0 0
1771 2052 2167 2153 2133 1920 1573 1655 1522 1003 889 620 482 293 334 327 243 158 112 44 47 130 98 45 93 92 159 184 188 184 180 217 251 117 95 83 45 71 33 24 1 0 0
2028 2136 2244 2328 2194 1953 1737 1507 1454 1008 983 592 645 458 187 100 149 92 49 45 0 33 70 21 10 75 110 149 162 178 124 101 79 139 54 90 40 98 81 8 9 2 2
2323 2434 2636 2470 2179 1865 1896 1578 1320 1150 985 794 727 526 538 374 173 183 107 69 38 1 24 38 49 59 0 0 114 164 169 238 320 44 82 60 58 93 83 30 17 15 0
2433 2360 2286 2313 2122 1790 1777 1684 1431 1187 1003 870 849 696 363 256 176 215 191 102 73 35 61 42 50 2 0 0 215 267 135 98 7 65 121 118 89 87 95 55 45 39 8
2395 2360 2247 2473 2261 1965 1902 1726 1418 1160 992 935 861 557 474 422 360 279 258 101 108 27 49 74 81 22 5 3 223 259 168 156 18 4 8 166 119 83 101 81 39 44 39
2509 2561 2420 2410 1951 1742 1315 1008 1079 1214 957 834 829 741 566 520 467 430 317 100 46 30 46 70 58 81 80 10 74 132 130 91 8 5 3 3 15 19 57 90 52 51 43
2583 2613 2478 1726 729 408 159 389 158 757 919 753 806 831 799 807 624 506 293 124 27 5 34 49 56 49 124 89 72 23 0 0 45 42 24 0 0 0 0 1 2 9 11
2364 2810 2769 2067 1206 413 0 0 0 0 427 474 963 1102 912 744 647 510 355 90 90 24 0 15 53 75 60 37 105 52 34 0 0 0 0 0 0 0 0 0 0 3 11
1939 1898 2086 2081 1773 1030 565 118 16 0 119 285 828 1033 1040 749 570 392 81 38 80 31 2 0 21 54 30 30 37 62 89 54 10 0 0 0 0 0 4 0 0 1 4
1307 1569 1457 1287 1334 845 405 168 72 9 151 363 623 717 745 568 365 219 123 31 59 69 3 0 9 34 35 0 0 4 60 17 38 23 0 0 0 0 27 47 17 13 7
861 829 712 658 462 113 73 16 22 0 174 410 504 484 530 462 348 186 66 35 94 77 17 6 0 21 47 27 7 0 0 1 33 46 23 13 24 47 37 10 34 39 14
820 544 319 192 2 0 0 0 0 5 9 236 306 411 467 499 412 202 72 31 45 62 54 21 7 14 22 35 31 26 4 0 0 0 0 0 0 0 0 31 60 56 41
695 580 537 332 46 344 20 0 0 20 237 201 220 229 227 236 434 259 92 22 40 66 55 46 29 22 32 35 32 8 0 4 17 21 17 8 7 9 12 21 56 96 99
720 1065 493 332 281 269 350 209 202 177 302 369 145 172 310 260 284 203 71 45 61 41 42 41 72 83 39 61 58 65 51 36 36 20 29 44 36 34 49 19 23 18 18
88 347 439 404 92 93 147 249 288 159 218 223 142 153 165 232 265 211 130 100 121 82 75 133 106 95 7 3 5 25 20 11 17 59 46 45 5 39 25 21 20 27 26
9 13 79 162 216 184 241 383 178 131 89 70 39 35 23 0 0 0 0 0 1 9 0 0 0 0 5 8 8 5 57 27 4 1 1 1 0 2 5 14 15 11 11
8 8 15 62 71 55 64 90 91 74 72 25 43 7 0 0 0 0 0 0 5 22 47 14 0 0 0 1 0 0 0 0 0 0 0 0 1 0 0 0 0 0 0
3 3 16 7 9 16 17 23 23 2 9 14 3 3 6 7 2 14 59 39 42 92 132 85 18 6 10 12 5 0 0 0 0 0 4 5 1 1 0 0 0 0 0
0 0 2 0 0 0 9 11 41 39 7 20 26 6 16 21 7 74 49 30 69 73 63 59 64 30 44 50 38 1 0 1 2 0 0 0 0 0 0 0 0 0 4
0 0 3 7 16 13 11 17 18 13 12 9 33 39 31 47 39 47 53 62 54 42 37 9 11 7 1 1 0 0 2 1 1 0 0 0 0 0 0 0 0 0 0
0 0 0 3 10 6 20 18 25 33 31 20 43 21 51 67 65 52 42 54 34 43 19 1 2 0 0 0 0 0 0 0 0 0 0 0 0 0 0 0 0 0 0
0 0 9 0 3 44 34 49 47 36 73 85 61 63 40 34 34 26 25 33 7 6 2 0 0 0 0 0 0 0 0 0 0 0 0 0 0 0 0 0 0 0 0
6 11 6 11 34 100 65 32 46 30 30 41 41 30 34 37 20 5 0 0 0 0 0 0 0 0 0 0 0 0 0 0 0 0 0 0 0 0 0 0 0 0 0
9 30 37 53 53 37 61 57 61 63 58 32 61 62 13 2 0 0 0 0 0 0 0 0 0 0 0 0 0 0 0 0 0 0 0 0 0 0 0 0 0 0 0

GFSGL_con_mucape_084.txt.gz
CAPE
1241 1112 1107 1229 1586 1718 1299 1201 1340 799 587 960 641 572 479 192 202 288 158 233 217 14 3 0 0 0 8 47 70 63 57 7 27 37 23 40 22 34 31 14 2 1 18
1262 1179 1161 1356 1900 1775 1264 1369 1504 1207 754 840 754 563 539 451 394 354 285 205 124 45 0 0 0 0 42 37 48 60 62 52 14 6 5 26 26 47 28 23 4 6 5
1465 1289 1319 1742 1957 1785 1475 1461 1525 1275 980 938 771 636 543 368 448 382 155 93 67 40 1 0 32 16 45 6 1 21 43 44 13 7 6 3 23 82 66 14 34 41 47
1554 1479 1551 1329 1733 1864 1501 1505 1242 1092 910 872 887 707 415 281 376 339 156 72 21 32 11 0 0 20 145 54 74 62 45 237 214 109 87 41 61 73 69 43 32 44 55
1515 1463 1289 1055 1319 1740 1495 1567 1165 1022 1162 993 791 696 553 423 287 220 158 59 24 13 0 0 0 16 0 21 42 87 4 13 10 67 184 238 89 102 94 29 29 87 74
991 895 515 576 1193 1589 1547 1617 1218 1085 916 824 730 656 513 473 306 126 106 30 71 47 31 8 1 0 23 0 0 0 25 23 5 0 208 32 41 90 173 63 41 65 71
415 451 222 3 548 1521 1518 1512 1255 1058 725 610 523 531 414 339 278 189 80 39 21 28 28 15 10 0 0 4 12 89 161 88 76 20 46 31 47 59 83 74 66 71 70
47 13 15 125 558 1139 1353 1100 870 738 407 122 360 319 425 333 338 372 217 161 169 71 34 25 13 8 0 1 66 247 54 52 82 30 2 4 11 37 107 89 116 72 62
260 26 129 910 1038 1542 1514 1339 1072 980 797 308 278 266 84 344 256 326 285 267 287 161 61 0 12 9 0 0 43 79 39 37 31 25 4 7 5 63 78 85 88 25 50
1017 1046 1007 2060 1980 2119 1911 1734 1625 1531 1353 788 548 356 356 196 0 214 349 411 355 257 99 0 0 11 3 3 0 4 2 0 3 29 36 10 10 10 0 1 6 21 43
512 478 371 645 1520 2179 2325 2560 2478 1684 1270 656 669 512 437 0 0 43 260 334 391 345 98 0 0 12 7 7 9 2 22 7 2 24 10 7 24 23 0 0 0 11 46
244 528 409 313 333 1296 1728 1495 1674 1394 662 562 458 278 114 0 0 0 70 408 417 418 143 0 2 9 11 0 0 0 15 28 14 9 26 33 15 16 24 12 0 0 1
11 41 153 248 183 132 45 13 52 107 101 12 0 0 0 0 1 49 149 342 312 330 14 28 18 5 0 0 0 0 0 2 0 4 24 42 17 27 47 49 41 50 54
0 0 27 31 107 45 5 0 0 0 0 0 0 11 5 14 63 130 208 218 186 32 8 16 11 6 12 0 0 0 0 0 0 0 0 0 38 21 1 4 2 3 4
0 0 0 0 4 0 0 0 0 0 0 0 0 6 46 1 50 100 207 129 85 33 15 16 18 0 6 0 0 6 11 10 5 10 8 8 6 13 11 5 1 3 29
0 0 0 0 5 36 19 20 8 1 0 0 0 0 13 21 83 122 107 52 59 69 84 65 4 4 1 8 10 27 30 25 7 19 41 49 54 42 24 40 56 30 25
0 0 0 0 0 30 39 50 68 7 17 36 27 4 0 77 34 42 93 59 54 63 35 20 27 36 66 53 52 38 42 28 25 26 28 30 39 51 47 50 39 52 34
0 0 0 0 5 2 24 41 72 74 28 17 36 20 63 48 48 57 74 56 60 45 90 127 36 57 45 27 14 19 18 15 18 13 10 17 17 13 1 0 2 7 10
0 0 0 0 14 6 8 22 18 17 15 7 0 55 102 51 93 50 40 35 48 60 98 41 13 13 9 31 14 3 1 1 1 0 4 2 0 0 0 0 0 0 0
0 0 0 0 0 16 4 7 0 16 52 28 116 253 68 61 27 48 32 24 6 45 24 23 11 13 0 0 0 0 0 0 0 0 0 0 0 0 0 0 0 0 1
0 0 0 0 0 0 0 28 19 9 5 26 21 3 6 6 0 8 60 81 93 90 74 51 41 15 0 0 0 0 0 0 0 0 0 0 0 0 0 0 0 0 1
0 0 0 0 0 1 3 13 3 3 16 31 3 0 1 1 0 56 49 78 88 57 40 33 25 28 7 0 0 4 3 2 1 0 0 0 0 0 0 0 0 0 0
0 0 0 0 0 0 9 7 10 36 14 0 6 0 20 38 24 30 45 53 53 61 43 43 28 9 0 1 3 0 0 0 0 0 0 0 0 0 0 0 0 0 0
0 0 0 0 0 15 35 45 34 18 10 0 1 1 29 44 40 49 55 42 29 9 18 17 0 0 0 0 0 0 0 0 0 0 0 0 0 0 0 0 0 0 0
9 14 19 19 26 37 42 58 172 176 72 42 52 54 66 63 63 44 31 11 5 3 2 0 0 0 0 0 0 0 0 0 0 0 0 0 0 0 0 0 0 0 0
37 54 56 47 36 32 37 53 109 135 127 137 69 57 31 37 6 16 3 0 0 0 0 0 0 0 0 0 0 0 0 0 0 0 0 0 0 0 0 0 0 0 0

GFSGL_con_mucape_087.txt.gz
CAPE
1787 1787 1610 1649 1577 2116 2049 1835 1800 1846 1628 1649 1881 1703 1472 1007 509 227 111 45 94 251 257 366 490 540 227 352 587 327 267 142 141 7 11 6 3 14 35 27 21 27 5
1952 1886 1791 1795 1670 1926 1913 1932 1881 1918 1578 1571 1804 1697 1567 1348 1023 1078 1153 781 883 769 525 441 242 50 68 166 411 569 462 474 309 136 1 0 0 12 4 16 10 6 1
1792 1903 1913 1842 1873 2132 2257 2088 2022 1946 1721 1423 1596 1574 1541 1480 1468 1374 1140 812 703 628 527 548 555 538 626 947 605 428 390 369 158 25 40 10 1 0 10 24 26 7 8
1764 1842 1973 1829 1982 2216 2374 2169 2135 2062 1890 1687 1565 1638 1533 1397 1279 1138 1205 925 733 515 593 468 371 496 631 617 545 591 297 290 246 220 118 0 0 4 3 41 50 31 6
1619 1741 1388 1389 1808 2228 2200 2361 2265 2247 1952 1701 1516 1436 1383 1241 960 1034 1043 949 823 631 483 351 323 178 86 161 269 418 203 174 19 21 13 5 17 32 25 29 27 49 6
1321 1289 1328 903 864 951 931 1372 2239 2203 1854 1507 1368 1329 1187 886 417 277 570 679 754 673 622 376 207 25 32 20 23 0 89 97 153 88 14 9 1 167 65 55 29 29 32
254 531 369 270 505 376 190 441 1114 2203 2208 1762 1668 1446 1149 1181 438 271 142 461 559 571 637 446 258 73 80 140 11 8 4 25 38 264 119 157 123 1 5 20 76 11 14
51 42 57 77 98 70 63 125 314 1065 2198 2278 1811 1551 1327 1153 520 310 241 454 579 486 441 358 342 373 226 127 208 169 161 74 85 26 178 187 192 147 53 35 78 56 52
193 388 213 79 71 25 53 121 315 927 1827 2001 1047 814 792 1065 529 328 292 573 602 456 381 327 302 308 76 0 229 124 207 182 56 12 3 8 15 26 38 34 79 91 59
505 387 378 385 687 940 303 371 824 1060 1136 1089 1023 980 689 199 184 190 313 559 584 441 379 352 126 138 46 4 248 345 416 378 221 110 25 9 11 18 49 27 53 80 57
276 324 292 220 239 786 1246 1317 1586 1838 1904 1516 1430 1274 1132 190 245 204 220 243 436 411 398 347 237 26 10 4 3 455 262 220 112 314 266 205 176 100 57 46 44 112 95
36 66 70 94 88 82 191 521 826 1080 1220 1018 1372 1042 1133 291 186 224 107 48 3 459 377 522 220 16 32 4 9 39 19 62 233 238 192 182 159 171 195 208 140 59 61
0 1 29 12 9 12 19 3 20 22 34 78 142 111 18 16 0 0 0 0 0 345 458 311 132 30 37 23 15 0 4 240 308 297 257 265 250 283 260 229 178 169 153
0 0 0 1 0 1 4 11 0 0 0 0 0 0 6 16 28 56 0 0 0 40 165 219 76 55 44 46 19 2 0 38 130 180 246 321 219 105 294 206 129 126 143
7 11 2 0 1 0 4 9 0 1 0 0 0 0 22 28 28 0 5 20 29 98 185 52 52 54 50 29 26 17 0 1 1 0 0 1 3 26 24 14 15 26 80
0 0 1 0 0 9 0 0 1 11 20 10 13 5 0 0 1 0 1 12 68 68 23 32 57 53 85 61 27 38 18 25 24 26 25 27 30 30 28 50 48 36 73
0 2 2 6 27 0 0 1 38 21 31 21 9 18 15 0 0 30 16 42 8 22 34 56 73 146 182 133 92 123 73 84 51 34 39 21 23 31 34 7 13 2 24
1 0 0 1 10 0 0 8 2 4 1 7 29 10 17 14 9 40 31 5 7 27 67 60 63 61 69 62 74 85 78 26 17 13 14 3 10 4 2 1 8 6 0
5 1 1 0 3 9 35 2 0 0 1 0 0 11 12 27 41 35 51 46 8 36 68 76 61 58 89 68 46 19 2 4 12 17 8 1 1 0 6 0 0 0 0
5 0 0 1 1 13 36 2 0 0 0 4 0 19 49 103 35 51 54 44 8 21 53 43 69 75 67 58 26 5 4 1 12 12 13 0 0 0 0 0 0 13 21
8 3 0 1 3 40 24 2 13 8 2 0 3 0 10 14 33 36 3 6 2 66 93 95 118 98 77 36 3 0 0 0 12 15 1 1 0 0 0 0 16 17 8
7 2 0 2 0 26 48 114 26 12 28 25 26 0 0 0 2 0 0 0 65 77 58 50 34 48 36 27 26 2 0 6 2 0 0 0 0 0 0 0 0 0 0
4 8 14 3 49 19 134 94 134 20 12 5 6 6 0 1 6 1 1 9 42 43 44 20 49 49 32 8 0 0 0 0 0 0 0 0 0 0 0 0 0 0 0
26 31 24 40 25 29 14 160 25 21 2 11 1 1 1 5 2 22 14 35 12 12 38 36 17 10 1 0 0 0 0 0 0 0 0 0 0 0 0 0 0 0 0
40 46 32 55 50 60 45 348 282 51 21 23 2 6 2 6 57 50 26 0 12 13 5 1 0 0 0 0 0 0 0 0 0 0 0 0 0 0 0 0 0 0 0
18 25 26 32 26 15 87 40 63 78 65 58 52 49 17 32 22 3 3 1 1 0 0 0 0 0 0 0 0 0 0 0 0 0 0 0 0 0 0 0 0 0 0

GFSGL_con_mucape_093.txt.gz
CAPE
3542 4061 4119 3360 3029 2853 2504 2821 2774 2411 3076 2270 1781 1758 1896 1988 1947 1747 1396 931 968 987 1052 1060 1012 1010 755 1294 1249 1531 1795 1367 960 1118 1471 798 234 255 237 242 243 149 3
2514 3277 3071 3303 2749 2500 2274 2740 2951 2801 2976 2607 2214 1718 1830 2117 1785 1503 1344 845 822 800 693 744 718 744 1177 1346 896 1444 1465 1426 1369 895 984 964 393 321 320 159 89 64 75
2176 2122 1471 477 2092 2470 2370 2551 2869 2690 2910 2576 2379 1751 1610 1613 2116 1948 1492 1236 1079 1260 1287 1570 1182 1178 1301 1702 987 1379 697 1533 1253 1184 1012 1007 132 130 1 3 1 7 11
2032 1570 1228 130 156 1192 2691 2831 2697 3069 2582 2688 2587 1835 1669 1433 1512 1832 1905 1643 1808 1465 1588 1219 1071 987 1279 1229 1263 1169 1329 982 750 1034 860 1012 535 131 12 4 2 3 20
1485 832 263 103 325 913 2106 2929 3159 2812 2615 2862 2660 2432 2479 1563 1172 2016 1712 1623 1808 1459 1537 1142 998 901 272 391 822 1558 1618 769 312 335 603 908 400 80 2 2 1 3 15
939 588 30 4 4 709 2047 2845 3049 3339 3182 2854 2479 2272 2478 1472 950 918 1002 1505 1830 1364 1589 1160 1350 416 172 61 0 10 293 746 1164 1000 810 300 927 154 12 8 5 3 6
1207 1340 525 133 36 230 2148 2606 2921 3165 3533 3398 2690 2501 2286 2038 1059 941 796 1135 1160 1577 1566 1329 849 454 485 492 77 0 0 0 3 539 525 397 561 435 62 0 0 21 47
671 1075 1276 1199 1200 1726 2008 2595 2777 3129 2771 2289 2357 3091 2894 2614 1531 1252 925 1359 1400 1387 1323 1235 1301 1046 960 597 705 322 114 80 9 0 265 567 557 661 214 6 3 17 4
426 534 461 421 866 1220 1746 1539 1630 2069 1859 1840 2162 2778 3010 2780 1431 1212 939 1397 1321 1372 1284 1316 1135 959 838 256 389 809 620 674 122 51 104 90 47 218 366 29 0 3 3
693 645 696 842 948 1398 1217 836 794 1714 1837 1238 1922 2464 2446 2701 1915 1151 973 977 1186 862 1904 1911 648 702 600 306 549 814 837 483 383 173 75 0 0 19 70 125 3 23 93
172 530 895 747 835 962 1107 1688 1898 1865 1488 1652 1638 2120 1975 1668 1709 1074 856 836 719 886 755 874 999 585 401 305 268 792 787 1039 517 624 239 142 111 150 87 177 144 24 46
16 69 126 147 370 585 723 646 733 802 793 716 900 987 1183 1130 898 865 851 753 608 386 644 779 921 653 515 286 226 108 323 181 1095 435 331 625 269 239 170 260 391 539 602
83 61 28 51 51 225 305 487 595 982 941 594 510 517 626 761 1242 667 494 370 258 325 370 147 5 213 309 306 143 114 143 377 303 470 328 541 890 266 322 601 494 559 615
0 31 51 52 24 62 88 131 188 171 330 262 180 113 163 370 399 352 50 198 145 0 0 1 108 74 201 267 149 41 143 242 196 296 287 579 465 1112 956 716 940 612 504
2 2 37 13 49 32 30 0 2 67 29 0 50 54 93 111 45 4 1 0 170 122 6 24 13 19 63 181 140 39 92 307 290 420 859 686 932 1067 1060 914 961 789 463
9 0 0 0 8 27 21 78 9 0 0 0 1 0 0 0 0 2 5 0 1 5 1 59 52 55 103 138 105 50 85 88 192 244 433 471 920 781 572 868 650 616 522
20 15 0 0 0 14 26 16 26 16 6 1 0 0 0 0 6 0 16 15 1 0 0 6 58 71 195 61 33 47 83 156 187 378 680 346 344 82 58 239 384 234 203
11 0 2 6 0 0 23 34 29 35 15 10 5 0 0 0 0 4 6 13 10 6 2 6 28 30 0 47 34 4 57 86 251 417 259 167 148 107 101 298 261 192 81
6 10 11 0 0 0 2 48 78 33 24 20 28 6 0 0 0 0 0 0 7 11 0 2 10 2 17 17 22 42 48 56 26 89 154 211 188 127 73 44 40 33 22
10 2 0 0 0 3 39 199 121 108 54 33 33 22 0 0 0 18 17 17 59 54 23 35 20 7 11 41 43 36 28 35 43 59 51 66 119 53 25 39 13 15 16
3 16 18 0 12 36 29 64 203 228 142 22 61 5 0 0 0 3 11 67 61 59 51 13 52 34 38 42 17 17 8 6 34 48 87 141 145 127 66 35 18 26 25
18 34 35 51 58 67 98 94 293 335 215 99 38 0 0 6 0 0 1 9 7 36 2 9 9 12 4 20 7 2 3 9 37 4 0 40 60 41 29 8 7 10 14
24 24 37 41 170 45 179 268 395 428 288 148 2 0 10 0 1 1 5 1 0 0 4 3 1 3 24 3 3 8 5 49 95 55 64 61 67 27 14 13 8 8 1
12 33 11 30 153 233 357 270 255 149 140 88 1 10 15 10 1 5 0 0 17 46 34 0 1 2 4 81 87 81 77 65 66 44 9 3 4 1 0 0 0 0 0
38 27 28 27 30 58 311 213 163 199 106 37 17 12 6 14 13 27 1 0 0 15 3 0 7 10 8 0 5 0 0 8 16 16 2 1 0 0 0 0 0 0 0
15 19 20 27 29 26 28 181 470 352 246 137 120 10 2 7 7 41 8 21 17 10 14 1 10 21 6 0 0 1 0 0 0 0 0 0 0 0 0 0 0 0 0

GFSGL_con_mucape_096.txt.gz
CAPE
3454 3458 3701 3486 3178 2941 2531 1890 2328 3298 2986 2296 2490 2273 2216 2240 2254 2137 2018 1804 1640 1591 1365 1398 1279 1278 592 375 328 249 154 173 258 220 728 274 192 203 134 170 38 0 9
3247 2745 2467 1766 2202 1880 1861 2170 2320 2803 2949 2380 2511 2462 2434 2395 2112 2014 1755 1368 1556 1680 1338 1108 1187 1306 1196 1191 876 653 605 491 545 334 841 596 276 224 205 152 61 64 4
1139 1366 1298 913 166 0 490 1148 2076 2468 2732 2353 2582 2400 2295 2371 2021 1775 1681 1830 1827 1592 1491 1355 1031 1158 1190 602 827 750 693 796 899 785 601 665 308 80 12 3 4 4 19
849 1196 1341 1449 879 270 358 355 1106 1621 2091 2265 2189 2432 2200 2149 2341 1702 1696 1816 1967 1693 1708 1304 1003 967 1223 789 749 714 661 582 620 619 762 714 285 64 0 0 5 0 2
826 360 366 541 954 335 36 198 1171 1872 1931 2077 1895 2397 2286 2263 1446 2108 1808 1752 1832 1617 1636 1462 881 1021 1136 953 1016 830 781 790 640 433 501 352 240 28 1 0 3 3 2
561 454 174 212 98 68 54 178 1317 1804 2075 2062 2204 2076 2047 1573 954 1204 1686 1698 1804 1965 1926 1728 1565 831 512 266 166 245 602 774 631 469 357 237 207 98 33 2 0 8 0
668 1039 300 232 216 214 288 628 1576 1977 2557 2191 1811 1531 1825 2020 1426 906 1248 1767 1941 1789 1802 1549 1365 792 573 629 188 86 1 154 159 309 274 262 173 229 71 45 2 3 0
997 1260 1156 860 719 371 545 720 1081 1550 1699 1264 1209 1309 2020 1977 1373 1011 684 1603 1754 1831 1839 1735 1451 1143 1280 818 833 263 152 127 10 0 35 417 547 398 215 122 17 4 6
980 1067 959 1069 802 503 369 809 972 902 555 849 1552 2376 2254 1506 1225 1362 945 1394 1652 1695 1661 1514 1423 1152 1057 457 688 781 622 369 138 69 19 98 206 340 279 91 21 22 87
384 395 1072 1139 767 789 995 622 298 579 508 643 780 1592 1954 1829 1485 956 925 1084 1393 1397 1786 1582 1150 1070 804 724 416 839 747 680 363 144 100 45 158 163 178 52 0 0 17
126 292 698 524 622 952 736 1036 879 929 992 1282 1576 1654 1677 1770 2114 1288 957 1008 1330 1408 1058 1041 1076 806 551 526 481 834 606 436 467 393 268 187 22 145 132 161 8 0 1
371 105 13 10 26 199 597 861 1175 1145 1045 1153 858 567 623 1257 1046 1105 1142 947 752 856 1112 1160 860 563 563 474 410 356 350 242 446 325 393 226 98 111 73 163 238 0 0
308 451 363 11 0 145 350 564 457 957 1149 1095 822 860 649 874 1141 754 613 640 503 403 352 457 367 212 245 466 490 338 284 191 321 345 298 268 339 254 226 234 313 257 236
152 279 511 593 53 139 252 90 123 214 366 280 294 275 356 375 190 180 108 226 178 327 203 133 76 12 154 115 160 267 264 165 238 243 206 319 328 244 333 416 268 304 314
17 66 275 109 156 643 395 221 90 160 93 99 73 118 86 79 107 108 64 23 18 73 32 19 19 10 7 0 3 8 205 164 175 170 251 168 170 193 263 252 355 371 266
15 2 0 0 0 8 457 380 13 3 20 6 0 0 0 0 0 0 0 0 2 3 13 11 16 53 63 69 26 13 108 92 124 95 100 98 85 117 207 187 205 205 143
25 11 0 0 0 15 17 109 213 101 15 8 2 0 0 0 0 0 0 0 0 0 0 0 0 6 4 25 63 105 41 72 54 43 40 63 107 91 122 153 151 87 86
16 0 5 20 0 0 0 35 33 111 51 42 7 7 1 0 0 0 0 0 0 0 0 0 0 0 0 19 38 40 26 32 36 20 6 38 97 60 96 88 109 83 61
5 11 11 0 0 0 0 0 31 142 68 87 87 16 1 0 0 0 0 0 0 2 0 11 0 0 2 11 55 38 39 32 28 4 46 37 12 65 70 70 63 69 65
11 4 1 3 0 0 3 106 114 507 398 153 68 15 0 0 0 0 0 24 2 0 16 9 0 0 7 8 11 0 4 2 2 31 52 52 21 34 14 19 39 36 46
0 6 12 18 37 38 82 189 908 633 525 376 133 1 0 0 0 0 0 0 0 11 11 42 24 1 10 36 10 14 1 21 4 24 14 9 13 19 9 12 0 0 20
1 1 5 11 1 35 21 91 331 496 236 163 35 3 0 0 0 0 2 1 0 0 2 19 30 29 33 23 25 28 34 27 14 3 4 3 8 3 2 2 0 48 43
2 0 0 3 9 25 114 95 56 281 328 80 1 1 0 4 5 3 0 0 1 0 5 6 5 6 18 20 22 28 8 2 2 1 2 6 6 3 5 0 0 46 32
0 11 3 33 42 88 111 83 115 130 107 94 3 0 6 6 5 6 0 0 8 2 1 1 3 5 6 4 2 8 7 5 2 0 0 0 0 0 41 6 14 8 2
3 20 0 27 18 23 32 244 400 350 168 176 66 8 2 2 15 22 4 2 12 24 16 22 0 4 6 4 42 35 52 51 33 18 1 0 21 16 2 0 0 0 0
17 48 66 91 9 76 49 327 320 619 593 543 365 31 2 0 4 14 27 3 1 5 0 5 6 6 14 12 10 16 5 2 2 2 0 2 3 0 0 0 0 0 0

GFSGL_con_mucape_099.txt.gz
CAPE
2444 2302 2216 1854 2355 1891 1225 1073 1760 1541 1900 1661 1431 1502 1511 1515 1307 1176 960 854 940 1081 1071 901 792 456 349 295 165 47 25 25 24 22 69 112 135 90 110 48 18 6 12
2527 2206 1937 1633 1398 1008 665 359 518 1379 1490 1610 1550 1581 1524 1325 1099 971 862 1073 1016 929 794 744 839 727 590 452 279 144 75 35 31 32 170 149 139 138 69 57 4 6 0
2281 1170 912 110 890 638 240 39 243 346 842 1102 1324 1163 1480 1392 1260 1008 900 731 927 808 846 750 604 622 544 439 345 307 220 219 241 225 226 223 194 120 64 107 126 16 14
1474 841 278 148 572 732 237 99 51 0 316 999 1348 1336 1348 1583 1438 904 926 895 898 869 805 760 686 522 332 491 301 235 265 185 211 172 155 177 186 106 39 68 5 5 9
819 999 898 806 746 705 641 270 203 0 67 1073 1583 1433 1515 1338 1342 1215 955 922 894 847 909 796 682 545 452 485 335 246 228 208 210 219 232 180 166 74 47 23 0 0 4
431 499 462 215 110 124 60 55 164 517 1098 1349 1438 1345 1345 1472 1283 1352 1237 945 923 968 916 768 787 654 586 620 515 297 209 193 236 198 151 165 135 104 42 37 0 0 0
940 729 315 53 0 3 10 30 136 418 671 931 995 1095 1125 1223 1246 1202 1168 1076 955 1010 1032 974 959 752 674 433 365 319 413 351 155 85 120 89 58 75 69 63 7 0 0
683 592 383 152 44 0 15 39 0 64 422 554 660 853 1013 1178 1189 1094 979 1032 1109 1011 972 1086 873 649 597 583 358 273 201 116 66 161 115 53 53 121 104 86 21 10 6
482 533 577 410 332 208 15 40 173 353 393 480 696 826 763 904 1286 1178 944 755 855 753 959 1044 1008 709 451 553 440 405 347 234 105 23 0 0 0 157 187 174 119 0 2
317 295 433 396 533 315 226 187 197 196 172 409 363 318 445 777 1142 1108 949 645 574 495 471 635 885 974 814 474 438 459 340 240 144 118 88 88 100 217 258 186 76 0 1
180 152 254 304 320 456 517 521 271 240 275 174 307 287 602 834 783 1076 877 621 381 231 280 654 935 966 902 784 530 383 294 292 359 241 128 114 113 103 168 143 93 0 0
56 52 19 6 5 94 136 189 296 481 283 199 361 409 494 433 341 435 524 492 501 650 716 785 613 673 729 794 708 493 442 363 254 183 192 119 93 99 62 112 64 26 0
0 0 76 51 0 13 32 138 92 67 175 219 161 204 279 224 153 163 225 310 438 377 593 525 406 443 580 418 646 517 422 388 284 185 173 125 102 98 52 62 111 69 10
0 0 0 0 43 0 1 0 0 0 7 17 32 92 132 181 141 132 83 61 107 167 316 379 364 324 218 272 291 230 342 438 351 237 170 114 97 122 83 104 106 104 78
0 0 0 0 0 7 79 0 0 0 0 0 0 0 0 0 2 9 16 21 53 56 76 119 113 134 156 29 0 0 95 155 267 254 200 153 73 65 83 140 156 157 120
0 0 0 0 0 0 0 8 38 4 0 0 0 0 0 0 0 0 0 0 0 1 5 16 6 21 25 9 13 4 2 0 0 87 157 143 81 36 95 120 163 150 119
0 0 0 0 0 0 0 0 22 34 2 0 0 0 0 0 0 0 0 0 0 0 0 0 0 0 0 9 11 3 4 3 3 15 68 143 74 45 66 61 79 91 69
0 0 0 0 0 0 0 0 0 25 13 1 0 0 0 0 0 0 0 0 0 0 0 0 0 1 2 0 1 2 8 38 40 53 62 84 49 38 46 22 31 31 42
0 0 0 0 0 0 0 1 0 10 40 49 26 0 0 0 0 0 0 0 0 3 5 2 4 4 11 16 2 23 35 16 42 48 54 50 80 52 25 22 13 27 46
0 0 0 0 3 17 4 19 22 70 66 41 24 6 0 0 0 1 0 0 0 0 4 1 4 0 11 14 9 27 26 22 38 34 4 37 45 46 7 6 26 44 48
0 0 0 5 2 26 9 35 125 160 74 52 29 0 0 0 0 0 5 0 3 0 0 0 2 4 8 3 0 10 23 6 32 11 16 22 59 4 25 13 36 36 47
0 0 0 0 0 1 27 24 38 144 83 47 15 0 0 0 0 0 0 0 0 0 0 0 0 3 3 3 1 5 6 13 7 30 28 18 27 17 13 5 13 9 4
0 0 0 0 2 0 21 41 25 43 83 25 30 0 0 1 1 4 5 9 3 0 13 1 10 9 3 1 10 8 20 17 32 49 38 28 9 3 2 14 14 0 0
0 0 0 0 7 4 1 42 89 125 86 103 32 0 0 0 6 16 18 9 18 4 0 1 13 5 5 9 6 4 6 3 3 3 0 16 6 4 8 5 0 3 2
0 0 0 11 10 0 0 212 223 297 305 164 164 59 20 0 0 1 13 15 18 1 2 1 0 0 2 0 1 2 5 4 29 52 1 3 0 53 43 2 1 2 23
0 0 0 3 23 0 4 78 408 462 450 413 347 269 101 7 0 0 5 9 5 14 5 5 9 16 9 2 15 6 24 58 52 36 23 38 29 0 0 0 0 0 0

GFSGL_con_mucape_102.txt.gz
CAPE
1982 1706 1503 1579 1731 1265 1017 1422 1525 1036 1099 1067 1190 1123 1109 1014 1015 836 892 809 683 803 827 777 788 681 679 499 409 254 138 108 97 42 36 55 126 124 165 155 124 123 91
824 1497 1298 1236 1238 1095 1134 911 1148 1023 905 1121 1172 1068 1062 1130 1066 1016 892 763 772 601 735 910 755 758 622 362 368 256 149 63 55 34 31 111 145 132 104 67 47 31 8
885 1350 908 328 118 110 134 248 600 524 524 603 645 795 994 1017 1266 873 833 940 679 595 653 648 560 664 769 585 476 394 215 103 40 24 35 142 166 142 69 68 22 48 2
1554 1159 531 0 6 16 81 6 42 60 131 74 248 597 867 957 971 1146 944 785 626 649 676 663 541 568 643 535 491 397 295 224 179 147 126 121 119 85 74 33 12 3 67
1113 806 342 384 280 298 175 10 75 24 0 0 79 420 780 862 917 996 874 728 525 496 706 696 629 578 525 470 470 470 267 226 232 127 92 92 97 27 4 0 12 2 7
428 691 560 434 396 483 283 270 299 251 70 0 322 639 671 766 1104 1079 1059 979 653 576 646 711 728 679 576 478 388 426 317 190 120 91 85 139 105 79 1 0 2 4 0
689 318 269 193 161 134 95 102 139 76 85 251 425 367 704 713 758 745 923 1062 1076 828 670 640 614 626 605 599 520 561 493 247 116 83 106 101 72 89 73 0 4 3 0
516 441 314 110 79 33 6 0 7 2 52 255 356 338 435 436 347 582 590 631 1041 1002 896 746 712 701 644 675 526 379 388 299 251 199 98 63 69 55 61 22 0 7 9
337 457 376 363 381 298 61 18 17 45 90 203 304 360 303 285 353 388 338 370 546 712 815 842 809 705 798 759 455 387 397 272 258 183 129 113 91 62 80 47 29 0 5
153 179 351 367 365 349 191 22 53 68 77 194 254 222 381 293 243 263 247 279 287 338 553 744 527 448 508 599 412 383 371 325 244 210 197 62 3 0 19 109 43 1 2
87 119 145 140 220 268 245 222 123 78 24 39 96 59 106 112 102 291 405 389 325 343 416 240 172 251 400 530 337 240 338 349 272 280 216 127 85 72 104 121 181 141 21
0 15 4 0 1 27 50 66 90 143 117 67 69 138 206 166 140 160 185 237 225 300 442 326 226 261 335 395 477 528 482 437 404 347 320 223 163 131 135 164 170 110 71
0 0 0 3 0 0 0 1 15 75 86 107 69 96 138 207 161 96 80 130 183 225 278 355 466 542 538 514 498 393 674 571 556 416 342 290 263 209 123 118 116 119 75
0 0 0 0 0 0 0 0 0 5 0 0 0 0 27 87 101 103 73 77 51 27 56 129 256 308 305 356 391 402 332 428 422 428 449 379 280 207 167 125 84 26 58
0 0 0 0 0 0 0 0 0 0 3 0 0 0 0 0 0 0 8 26 21 9 9 30 53 87 92 109 134 175 189 200 162 244 270 311 194 171 107 140 102 66 40
0 0 0 0 0 0 0 0 0 0 0 0 0 0 0 0 0 0 0 0 0 0 0 0 2 5 25 25 22 20 48 13 9 3 7 91 111 102 89 111 103 82 121
0 0 0 0 0 0 0 0 0 2 9 3 0 0 0 0 0 0 0 0 0 0 0 1 0 0 0 3 7 4 8 7 11 25 23 1 8 41 65 92 64 72 88
0 0 0 0 0 0 0 0 0 0 0 13 6 2 0 0 0 0 0 0 0 0 1 1 1 1 0 1 4 1 0 0 3 4 3 5 10 21 77 69 61 42 62
0 0 0 0 0 0 0 3 1 0 0 20 42 32 17 0 0 0 0 0 0 1 0 0 1 3 4 1 0 15 25 23 0 22 16 23 11 11 114 80 86 70 71
0 0 0 0 0 0 9 43 82 71 68 63 36 34 13 0 0 0 0 6 2 0 0 0 0 0 3 12 31 28 21 11 8 32 27 26 8 27 58 38 95 79 88
0 0 0 0 0 2 23 29 67 71 73 76 39 13 0 0 0 0 0 0 0 0 0 5 0 1 0 11 12 28 21 9 50 27 3 11 9 61 21 24 88 92 45
0 0 0 0 0 0 26 21 19 20 38 39 26 14 0 0 0 0 1 0 2 3 9 6 3 3 1 5 11 11 7 0 14 33 1 0 9 9 24 43 90 74 37
0 0 0 0 0 0 9 31 33 28 37 42 5 2 0 0 0 0 1 1 2 8 0 0 4 16 11 17 1 9 21 34 8 52 8 13 31 35 94 47 30 52 38
0 0 0 0 0 0 4 9 47 45 45 59 41 4 0 0 0 0 0 0 4 8 13 0 0 15 19 20 4 7 3 4 6 28 54 38 44 64 41 21 22 29 16
0 0 0 0 0 0 4 3 30 57 52 77 67 56 57 48 48 19 9 8 2 35 9 0 1 12 0 0 3 1 4 3 8 23 6 0 0 4 4 2 0 58 37
0 0 0 0 0 4 4 11 10 81 81 154 106 134 148 157 117 38 0 5 15 4 17 2 0 10 12 4 1 0 1 13 0 1 0 1 2 3 0 0 0 0 0

GFSGL_con_mucape_105.txt.gz
CAPE
98 257 832 476 670 786 868 654 670 864 934 956 910 928 977 995 898 817 793 628 521 610 611 582 484 588 556 672 751 605 430 334 269 157 63 50 53 70 90 131 92 118 166
132 135 19 368 566 506 560 812 879 920 946 955 981 943 971 967 859 812 793 819 639 654 594 511 596 590 628 587 535 488 370 217 150 104 75 58 65 125 105 109 90 77 80
160 48 26 29 29 0 163 244 444 567 1026 944 926 964 1066 935 789 810 859 854 745 624 484 567 554 645 612 660 614 431 388 278 118 53 44 43 94 162 128 76 35 19 2
743 457 455 167 37 2 0 0 0 25 257 553 448 561 673 744 848 708 915 895 674 597 717 373 464 528 458 534 657 563 413 373 195 115 70 63 146 167 167 125 34 4 11
879 703 24 17 19 0 18 0 0 95 47 58 111 289 153 366 590 586 724 718 613 825 719 482 555 547 413 449 519 525 426 408 281 346 287 193 162 121 95 96 50 330 30
1397 1036 877 546 368 265 70 138 22 44 88 17 0 23 50 310 566 625 413 570 820 708 646 454 429 552 522 497 438 434 302 291 306 178 158 142 120 132 128 173 60 3 160
315 380 390 406 343 289 178 204 332 88 92 166 41 0 50 178 361 485 416 339 646 606 577 420 391 514 530 536 518 424 354 372 446 340 136 114 92 138 199 164 115 95 64
353 227 82 52 44 53 78 86 95 113 83 127 103 4 5 31 250 251 218 263 287 619 541 527 474 504 473 458 421 377 375 400 450 455 253 164 179 103 158 201 176 123 59
221 186 208 200 170 118 27 0 0 5 15 37 29 71 165 198 280 256 257 178 187 240 414 487 444 485 529 520 447 410 465 338 220 215 269 261 197 137 161 161 167 143 88
68 101 175 198 167 182 138 3 7 14 35 27 145 209 253 263 260 234 191 157 129 88 130 249 367 491 512 563 477 417 439 367 242 223 209 159 172 89 149 136 113 56 41
39 66 75 90 100 99 156 98 89 109 106 73 72 150 221 230 163 145 115 131 156 204 193 248 331 407 458 250 224 289 342 221 212 177 241 195 175 201 127 66 4 50 32
0 0 1 0 0 3 43 108 145 127 79 84 101 143 156 129 139 58 109 101 98 177 268 317 367 288 98 153 226 275 327 397 355 320 266 317 238 186 179 86 75 71 56
0 0 0 0 0 0 0 0 53 64 63 64 77 81 94 117 117 98 76 49 71 71 71 122 212 259 291 404 425 395 324 250 311 358 341 275 331 352 253 193 83 67 65
0 0 0 0 0 0 0 0 0 0 0 8 13 20 4 1 14 90 115 86 75 41 53 52 43 80 171 237 238 281 327 371 346 239 150 190 223 224 209 237 184 103 112
0 0 0 0 0 0 0 0 0 0 0 0 0 0 0 0 0 0 0 0 0 0 0 0 0 2 9 33 76 127 171 186 203 252 191 104 135 191 206 204 161 103 82
0 0 0 0 0 0 0 0 0 0 0 0 0 0 0 0 0 0 0 0 0 0 0 0 0 0 0 0 2 13 45 41 59 138 123 44 21 34 99 298 183 190 81
0 0 0 0 0 0 0 0 0 3 8 7 6 5 0 0 0 0 0 0 0 0 0 0 2 0 0 0 0 0 0 4 51 25 33 25 23 28 41 23 11 133 196
0 0 0 0 0 0 0 0 0 0 0 0 18 19 15 2 0 0 0 0 0 0 0 0 0 0 0 2 0 0 7 3 0 12 15 24 27 4 21 9 5 26 181
0 0 0 0 0 0 0 13 11 4 4 3 26 53 35 21 6 0 0 0 0 0 0 0 3 1 3 4 0 1 1 4 0 0 95 37 37 27 30 16 4 10 41
0 0 0 0 0 0 0 0 5 35 64 78 54 40 22 11 0 0 0 0 0 0 0 0 2 2 2 3 6 2 7 11 9 23 53 68 46 79 116 73 33 17 38
0 0 0 0 0 0 0 0 0 0 4 12 18 15 6 0 0 0 0 0 4 2 3 3 3 1 0 1 2 9 14 6 11 20 83 40 51 86 89 84 72 63 67
0 0 0 0 0 0 0 0 10 0 0 10 19 15 0 0 0 0 0 0 0 3 0 4 0 0 3 7 6 2 8 5 12 13 16 72 24 33 19 37 55 89 97
0 0 0 0 0 0 0 0 0 21 14 25 36 24 0 0 0 0 0 0 0 0 0 2 4 0 4 7 6 7 1 3 8 16 65 22 29 52 15 8 50 111 68
0 0 0 0 0 0 0 0 0 0 24 25 22 51 35 16 0 0 0 0 0 0 0 4 2 0 0 0 0 0 1 3 1 0 2 6 3 21 19 25 7 92 71
0 0 0 0 0 0 0 0 0 0 0 19 51 48 54 36 25 13 0 0 0 4 2 18 31 26 15 0 0 0 0 0 15 0 1 9 10 17 2 3 11 3 28
0 0 0 0 0 0 0 0 0 0 6 0 43 59 50 41 37 33 8 2 0 0 4 6 38 55 30 16 3 1 0 0 1 8 10 2 2 0 1 4 3 0 1

GFSGL_con_mucape_111.txt.gz
CAPE
636 815 1247 1190 1143 1793 1538 2035 1838 1969 2086 1951 2082 1815 1703 1737 1767 1768 1765 1752 1387 1708 1413 1307 1231 1363 2077 1263 1028 884 751 909 794 706 779 590 906 774 593 792 687 860 660
1226 846 619 609 550 897 1496 1649 1442 1742 1952 1570 1759 1875 1806 1784 1836 1622 1470 1325 1458 1500 1509 1403 1356 1214 1407 1688 1396 600 658 664 490 554 594 628 777 759 358 364 583 248 315
1082 960 1038 872 766 514 888 1100 993 1641 1733 1488 1698 2020 2030 2204 1823 1770 1780 1625 1604 1606 1634 1529 1483 1467 1404 1192 1216 945 585 696 640 636 777 502 655 547 431 100 87 64 53
891 862 796 678 556 370 184 65 72 130 416 988 1728 1716 1853 2081 2188 1946 1560 1972 1941 1700 1734 1376 1436 1404 1433 1331 1210 1169 1055 687 575 542 465 606 423 643 483 427 245 204 187
747 762 711 566 165 74 74 48 14 23 29 206 474 862 1259 1250 1030 1325 1378 1401 1542 1483 1471 1441 1363 1080 701 914 924 1116 961 618 576 494 703 646 361 279 304 318 306 317 172
1233 795 466 265 55 22 24 15 18 41 58 105 204 322 476 695 599 552 1055 1534 1531 1457 1473 1245 1283 535 455 326 295 408 792 1007 512 445 375 435 418 658 751 350 242 341 236
521 430 472 329 157 113 67 76 56 34 77 68 105 82 198 374 142 177 189 574 626 439 590 639 1234 951 561 955 350 330 331 321 445 1014 919 904 935 1100 1089 908 397 433 426
97 174 163 118 138 200 132 130 110 144 99 90 51 2 0 0 11 56 91 111 348 179 231 301 461 1049 940 998 1152 985 796 790 475 491 872 1214 1206 1424 1206 1054 878 561 329
140 181 217 277 294 230 279 279 121 69 78 108 6 51 12 61 62 13 9 47 75 95 181 215 290 304 363 267 510 950 1045 1067 507 396 422 481 481 387 467 836 708 377 136
98 146 206 334 607 287 228 327 189 112 163 135 131 110 93 133 51 37 32 143 100 107 116 143 87 117 103 107 139 471 917 756 1417 1143 462 239 230 225 175 379 861 623 388
132 162 135 108 223 351 500 465 317 288 209 270 274 164 196 329 287 182 95 489 353 104 75 72 162 61 54 98 100 169 511 237 632 983 1520 1730 806 684 565 234 614 756 586
10 2 0 4 51 131 523 548 547 575 585 492 125 75 92 115 120 109 125 155 74 148 131 145 89 82 64 80 64 70 100 66 92 397 337 532 482 478 522 619 602 746 827
0 0 0 0 0 122 211 245 275 342 322 253 126 141 98 89 218 188 140 73 48 49 51 84 49 17 40 30 52 97 141 97 65 71 170 277 272 466 407 775 724 786 756
0 0 0 0 0 0 0 20 3 0 0 0 26 33 10 3 53 49 58 69 36 10 24 83 67 21 50 60 69 46 62 79 75 51 111 196 393 493 322 429 316 189 153
0 0 0 0 0 0 0 0 18 23 0 0 0 0 0 0 0 0 0 0 0 0 0 0 0 0 0 0 0 0 18 24 31 46 36 110 262 317 250 245 265 221 95
0 0 0 0 0 0 0 0 0 0 0 0 0 0 0 0 0 0 0 0 0 0 0 0 0 0 2 1 0 0 0 3 5 23 33 48 85 165 121 205 214 128 115
0 0 0 0 0 0 0 0 0 1 7 12 0 3 2 0 0 0 0 0 0 0 0 0 0 0 1 4 11 16 15 9 26 25 2 3 23 45 107 194 150 147 136
0 0 0 0 0 0 14 14 0 0 0 0 0 0 6 5 5 0 0 0 1 1 2 3 2 4 3 2 2 14 23 19 33 20 15 35 6 11 38 56 73 105 117
0 0 0 0 0 0 0 0 0 0 0 0 17 5 10 16 13 0 0 0 4 3 4 5 9 5 4 6 7 23 25 1 5 37 38 5 33 20 8 13 45 35 74
0 0 0 0 0 0 0 0 0 0 0 0 0 0 9 0 21 44 12 11 7 6 7 0 5 12 2 25 35 30 30 18 26 17 3 28 45 50 42 10 55 51 52
0 0 0 0 0 0 0 0 0 0 0 0 0 0 0 1 0 3 8 10 2 2 7 7 6 1 2 9 35 32 29 15 25 31 32 1 0 0 16 61 73 37 73
0 0 0 0 0 0 0 0 0 0 0 0 0 9 0 1 27 16 16 16 2 4 6 13 12 0 1 18 24 20 6 0 7 10 27 34 31 34 8 1 16 61 310
4 0 0 0 0 0 0 0 0 0 0 0 0 26 23 33 46 60 52 30 19 5 3 7 7 0 17 31 29 25 16 9 9 4 13 32 26 23 33 15 1 3 5
5 3 3 0 0 0 0 0 0 0 0 0 2 13 57 100 96 88 103 63 68 68 59 36 13 10 27 55 48 45 42 36 0 0 15 44 68 54 1 5 20 0 1
10 2 0 0 0 0 0 0 0 0 0 0 0 0 12 40 78 136 158 162 130 109 86 70 71 41 76 109 19 18 36 18 9 2 0 34 84 66 58 1 6 6 1
1 0 1 4 2 4 5 8 6 7 3 0 2 9 18 29 44 85 125 160 210 161 97 95 80 63 86 125 85 28 16 22 12 14 2 4 83 78 67 64 8 1 16

GFSGL_con_mucape_114.txt.gz
CAPE
1254 1192 1677 1844 1729 2214 2273 1889 2786 2771 1916 2142 2906 2735 2732 2823 2615 2953 2826 2361 2238 1829 1889 1861 1587 1885 1458 2402 2596 1636 1715 1997 1471 834 679 778 1087 1271 1074 1136 1097 1059 1536
1747 1855 1530 1248 1640 1651 2422 2500 2513 2556 1714 2108 2351 2257 2863 2474 2930 2550 2177 1891 1740 1549 1504 1788 1673 1575 2270 2454 2343 2007 1874 1899 1074 1076 822 780 972 1309 1202 1259 1174 852 1157
1694 1884 1895 1656 1540 1605 1403 1868 1963 2190 2390 2362 2354 2510 2360 2353 2276 2529 2303 1938 1900 1869 1652 1897 2042 1864 1986 2312 1857 1938 1312 1617 1111 823 764 762 646 803 1149 1136 946 641 154
1732 1752 1766 1806 1873 1405 1389 1302 1385 1331 1569 1774 1918 1830 2122 2167 2308 1917 1986 2047 2000 1944 1888 1758 1640 1751 1697 1969 1886 1729 1887 1165 1017 1238 814 676 638 907 945 841 944 758 608
1731 1666 1701 1444 1072 1080 946 765 487 532 413 388 597 1117 1461 1697 1490 1846 1998 2249 2051 2042 1753 1550 1613 1587 911 1266 1486 1495 2017 1174 853 618 890 731 447 684 841 755 673 1532 812
1530 1618 1516 1417 931 894 766 607 554 435 317 330 295 226 465 663 698 874 995 2510 2240 2144 2379 1842 1744 1029 843 858 712 449 996 1977 1290 892 752 700 924 1001 1021 777 744 555 434
896 927 1202 1086 956 817 635 631 448 250 221 379 277 343 496 796 537 534 544 1657 2045 2121 2280 1884 1593 1091 899 1256 413 384 267 489 545 1518 1199 1083 990 1064 1340 1211 1161 688 548
601 576 734 919 765 665 734 454 346 359 351 242 256 468 461 529 111 132 148 385 1372 1372 1366 1483 1214 960 897 663 547 480 777 847 658 739 1025 1348 1625 1255 1170 1028 1194 1597 1064
267 216 344 569 495 590 595 657 693 631 292 107 128 213 252 316 40 11 42 25 346 620 409 429 357 125 73 112 101 221 331 1151 671 493 474 553 581 554 603 1013 902 1096 807
90 219 263 549 586 729 707 615 585 553 506 531 427 198 131 496 146 25 0 36 281 463 473 199 115 79 27 40 67 167 260 403 1244 1018 1068 508 382 503 291 543 1018 1110 721
217 81 199 410 642 675 642 658 582 649 748 542 175 201 243 144 241 33 15 93 431 374 390 101 10 0 0 19 29 94 129 516 369 527 509 1284 1046 1628 1791 835 836 1415 1235
51 58 106 308 327 625 838 826 838 853 748 388 186 159 116 78 96 59 89 42 181 440 182 308 130 34 33 35 24 28 43 61 161 301 697 527 1373 1427 1333 560 1133 1552 2099
48 108 129 74 145 488 590 521 345 542 831 449 259 209 82 56 80 68 49 46 34 28 14 12 19 9 10 23 31 24 54 34 57 201 279 332 1013 730 759 323 315 334 1664
14 16 44 1 29 116 145 122 50 13 9 26 82 148 109 15 2 1 0 3 1 11 4 20 69 38 25 38 26 29 30 23 145 205 173 78 128 192 143 266 220 251 528
0 0 0 0 0 0 12 107 92 27 0 8 10 14 15 14 0 0 0 0 0 0 0 0 0 0 0 0 1 1 3 12 43 50 47 93 169 371 460 525 489 410 299
4 2 0 6 11 3 0 4 0 0 0 0 0 0 0 0 0 0 0 0 0 0 0 1 0 0 0 0 0 0 1 0 4 7 10 17 53 141 248 572 390 272 305
0 5 17 18 35 46 56 17 73 2 0 0 0 0 0 0 0 0 0 0 0 0 0 0 0 2 3 2 2 4 4 8 21 13 17 21 30 28 30 73 314 269 191
0 0 15 14 9 18 20 18 24 34 32 29 0 0 0 0 1 3 0 0 4 2 5 0 4 11 2 0 3 6 4 9 4 20 43 31 12 51 59 37 13 259 293
0 0 0 0 0 0 0 2 4 6 7 11 40 16 4 2 0 0 0 0 13 19 24 27 13 3 4 6 8 16 22 17 11 22 17 2 26 74 53 74 48 5 19
1 0 0 0 0 0 0 0 0 0 0 2 1 2 10 0 7 30 13 32 25 29 22 10 12 8 3 6 18 30 23 25 31 23 28 26 27 29 24 24 40 87 68
1 1 0 2 0 0 0 0 0 0 0 3 4 3 0 0 0 6 6 13 22 24 21 17 12 12 8 9 9 18 24 8 12 21 19 13 11 20 25 64 51 23 1
8 21 9 5 4 3 0 0 0 0 0 2 6 6 2 16 7 17 18 25 32 29 25 23 25 17 9 7 29 57 36 10 11 12 16 12 20 40 40 29 29 31 52
47 50 46 49 45 13 19 21 27 24 1 0 0 2 13 29 47 45 48 57 59 61 66 67 49 37 31 31 43 44 36 58 52 57 47 46 44 36 34 26 35 22 10
26 47 45 54 53 10 39 37 27 15 15 15 10 7 9 28 38 65 82 87 98 92 85 85 69 55 50 49 59 71 88 104 98 91 66 71 53 27 54 47 58 45 23
53 50 47 49 57 58 53 54 48 46 45 53 49 43 37 48 44 53 71 101 140 169 148 126 113 74 71 84 93 93 75 15 21 14 15 55 80 67 76 84 84 76 43
36 22 16 23 32 38 39 30 29 32 36 25 27 32 61 82 90 83 86 91 92 108 155 185 234 183 154 136 107 73 60 40 0 0 2 48 69 37 71 111 79 64 39

GFSGL_con_mucape_117.txt.gz
CAPE
1619 1638 1436 1705 2192 2373 1794 2256 2595 3113 2463 1032 1772 1880 2925 3114 3219 2890 2855 2753 2837 2625 2368 2345 2250 2490 1587 1564 1319 1518 1577 1937 1513 890 1061 2118 1692 1522 1151 1402 1554 1385 1404
1481 2507 2378 1906 1690 2131 2532 2602 2379 2693 2685 1377 1031 614 479 1831 3036 2864 2530 2118 2478 2418 2367 2311 2366 1654 2520 2473 2391 2281 1677 2029 1421 1602 1390 1259 1514 2026 1917 1681 1701 1054 1370
1640 1785 2439 2464 2141 2378 2238 2096 2132 2156 1965 1840 1685 653 731 2397 2694 2639 2400 2256 2354 2497 2147 2154 2302 2250 2470 2442 2567 2278 1897 1920 1510 1344 1067 800 975 1139 1924 1756 1716 1647 1016
1621 1894 1898 2144 2047 1990 2040 1837 1657 1510 1265 1538 1947 1565 1025 1504 2430 2442 2283 2460 2381 2290 2575 2431 2671 2494 2717 2582 2551 2668 2534 1601 1703 1269 813 353 618 919 1189 1132 1547 1492 897
1499 1614 1818 1833 1907 1768 1766 1524 1274 1186 1142 1026 1109 1199 1486 1309 1581 2024 2106 2005 2462 2355 2447 2454 2495 2045 1463 2045 1941 2829 2388 1686 1213 1226 525 482 598 1108 788 796 1111 631 1877
1222 1382 1503 1844 1614 1607 1492 1307 1074 877 767 688 659 638 769 892 932 822 973 1963 2107 2430 2570 2634 2356 1163 1009 959 813 941 1532 1794 1453 803 691 648 1932 1277 788 737 972 997 685
832 1014 1189 1380 1353 1279 1242 1157 1088 1078 902 686 648 593 459 654 320 454 584 989 1445 2110 2308 2626 2247 1278 1164 1675 692 557 578 400 493 1702 1616 1594 1535 1434 1806 1877 1751 1602 931
432 688 911 830 961 1228 1234 1345 1268 1222 1108 1117 672 679 684 634 322 414 332 902 1333 1715 1822 2279 2087 1980 1986 1323 1750 1341 1108 717 663 641 789 1042 1610 1693 1814 1871 2061 1800 1418
37 266 318 394 255 813 1000 1157 1359 943 1222 1008 831 648 723 703 211 24 19 315 634 1011 1168 1116 1343 932 581 526 1176 1293 861 653 468 264 212 274 353 307 589 1831 1399 1600 755
21 71 14 176 351 868 1078 1175 1139 1189 1001 914 652 468 208 447 155 55 2 148 240 328 535 302 203 239 216 143 344 221 279 140 130 136 133 151 116 140 243 940 1052 1170 1248
195 210 241 223 136 275 1131 950 1012 994 969 696 354 212 149 135 126 124 42 99 427 563 260 56 9 28 50 85 93 57 53 8 79 193 101 113 334 1051 1630 916 1677 1088 1424
287 262 397 449 734 787 865 910 988 558 834 378 131 115 107 99 141 146 77 49 145 117 137 182 39 17 17 2 6 11 14 26 33 111 163 203 125 270 494 1573 1278 1063 551
403 312 310 592 470 876 1122 1209 631 797 926 465 597 577 221 129 108 106 135 106 74 375 50 61 54 56 73 62 35 25 19 5 33 80 75 65 145 206 291 387 474 796 367
288 136 156 98 209 651 629 527 364 296 470 368 539 518 232 285 125 24 21 9 20 27 5 1 9 26 34 17 31 27 0 4 61 228 266 192 384 338 112 69 44 49 139
61 36 7 1 0 103 200 178 114 2 4 158 51 121 65 0 0 0 0 0 0 0 0 0 1 4 8 17 12 24 26 79 54 59 80 156 153 183 277 304 541 451 385
104 17 10 33 34 14 39 135 0 0 0 0 0 0 0 0 0 0 0 0 0 0 0 11 10 4 1 2 0 0 0 1 4 5 7 7 8 9 20 31 207 364 381
114 251 51 20 33 29 35 36 321 0 0 0 0 0 0 0 0 0 0 0 0 0 0 14 12 13 20 24 18 9 0 5 9 5 6 8 9 9 11 18 17 14 22
51 0 41 22 3 10 6 9 29 35 57 21 0 0 0 0 0 0 0 0 0 1 12 21 8 33 27 1 0 0 5 8 7 12 10 7 4 26 22 6 18 37 32
8 1 7 2 0 0 0 4 6 6 4 3 16 0 0 0 0 0 0 0 0 7 15 16 29 17 9 6 1 0 7 15 9 12 24 22 22 14 13 21 17 14 15
12 0 0 2 5 1 0 0 0 0 1 6 6 18 5 0 0 8 7 22 34 14 32 29 29 30 0 0 5 7 29 25 18 24 10 13 10 7 11 15 20 38 43
40 38 0 18 9 2 3 0 0 0 0 1 2 6 0 0 0 2 15 19 21 31 28 27 18 44 48 1 14 36 51 39 40 34 37 31 32 13 11 20 15 15 23
50 49 43 49 49 39 11 0 15 18 13 2 0 2 0 5 6 9 7 17 27 43 36 41 38 35 23 25 18 6 15 39 48 50 35 52 37 34 35 21 20 12 10
27 37 25 24 31 33 39 51 58 47 49 38 30 17 10 20 24 29 49 52 46 53 56 55 50 47 66 48 46 50 45 47 63 55 53 60 61 60 57 58 54 30 40
40 35 39 46 49 30 29 23 39 30 32 39 43 43 49 50 40 38 48 102 58 106 72 106 121 87 114 149 98 70 58 52 68 93 120 106 86 80 82 74 74 66 86
7 33 21 41 36 35 24 18 15 15 17 26 10 4 0 13 9 3 8 13 20 16 37 54 84 55 73 51 40 71 32 49 82 66 107 95 102 132 83 92 83 76 79
21 21 16 22 15 8 6 8 6 8 13 24 7 8 12 28 17 7 9 7 6 2 0 2 12 10 9 5 9 43 43 26 38 73 183 117 92 62 56 99 85 71 63

GFSGL_con_mucape_120.txt.gz
CAPE
2737 2456 2119 1902 2366 2896 2670 2366 2448 2574 2090 1459 1566 1442 1588 1154 1091 1451 1866 1853 1883 1974 2062 1812 1715 1709 1517 1278 1460 1286 1207 1204 1183 1048 1201 1065 2117 1622 1160 1529 1448 1574 1377
1947 2354 2575 2675 2473 2199 2228 2649 2260 2198 1822 1763 1115 642 434 451 44 347 1003 1536 1751 1922 2012 1854 1647 1703 1752 1343 1557 1261 1223 1534 1450 1148 1020 1078 1103 1543 1723 1660 1342 1083 1049
1419 1142 1860 1892 1947 2100 2221 2075 2324 2032 1704 1351 960 609 279 215 105 3 46 1140 1480 1512 1746 1916 1627 1640 1612 1403 1324 1050 1214 1262 1322 1110 891 1492 845 1105 1546 1593 1765 1455 1223
1092 1204 1300 1362 1729 1834 1872 1950 1880 1835 1819 1315 1100 808 474 337 74 0 25 297 943 1448 1598 1603 1688 1572 1462 1533 1549 1600 1599 1487 1478 1211 1122 1058 922 1113 1122 1086 1328 1197 958
949 946 1403 1610 1806 1740 1643 1696 1686 1519 1361 1782 1756 1294 794 621 199 18 79 185 58 1239 1635 1764 1664 1417 1513 1593 1683 1602 1756 1521 1332 1126 927 911 517 756 519 548 772 824 973
681 906 1043 1149 1573 1569 1595 1633 1389 1297 1080 1371 1310 1235 1002 625 495 449 50 403 113 0 1131 1760 1681 1344 1393 1446 1622 1480 1759 1477 1245 1065 763 641 753 543 525 644 591 627 327
401 561 758 1052 1267 1676 1570 1362 1188 1261 1477 1352 1290 1102 1078 974 586 379 234 324 138 653 1271 1792 1675 1505 1239 1056 1034 1141 1095 968 1083 951 823 1046 532 664 695 467 492 473 743
139 186 139 252 536 889 978 934 1032 1101 1441 1428 1399 1193 892 787 464 378 506 469 761 1018 1305 1461 1539 1401 1185 965 893 720 620 548 437 398 987 1050 583 415 412 302 291 525 1002
64 172 145 101 271 104 256 601 628 1445 1326 1142 1238 1040 979 635 459 346 314 740 695 842 1114 1265 1156 1236 1072 701 700 699 719 577 501 498 397 402 302 191 161 137 139 246 328
67 63 98 90 31 265 317 786 571 1091 789 1153 1009 901 709 565 482 209 13 257 419 427 870 578 382 494 642 514 439 467 377 381 368 261 228 106 63 46 36 41 149 203 513
47 72 98 100 83 142 205 278 360 464 523 562 451 468 343 246 356 273 77 130 346 562 667 377 107 117 118 110 104 91 63 94 93 78 56 32 82 185 247 188 166 140 154
109 118 146 164 134 177 105 32 67 74 210 453 367 225 256 242 234 209 122 70 112 198 277 333 41 15 10 8 22 19 19 12 15 16 4 58 42 46 78 106 202 188 166
231 336 521 322 290 299 255 295 217 177 224 333 493 673 384 227 115 107 128 114 154 178 92 99 6 5 1 11 4 0 0 2 8 3 39 97 59 50 142 176 183 132 103
280 318 396 454 368 500 291 84 76 69 182 352 507 442 449 163 62 62 70 72 88 68 45 41 27 7 4 5 0 10 7 1 11 77 198 249 298 209 166 212 130 35 2
212 347 496 410 529 487 102 80 33 34 48 68 73 51 23 0 0 0 0 0 13 0 13 0 0 2 1 0 0 11 7 21 1 43 116 125 184 164 163 206 195 149 139
208 325 194 123 156 387 391 161 0 0 0 0 0 30 1 0 0 0 0 0 0 0 0 42 145 153 71 77 11 16 11 12 59 12 15 12 13 14 12 20 41 49 36
293 283 137 35 20 282 192 231 212 21 9 0 0 0 0 0 0 0 0 0 0 0 0 257 123 95 60 112 46 16 11 6 0 0 10 11 16 15 6 10 22 27 14
523 35 43 29 1 8 29 67 74 259 170 35 0 0 0 0 0 0 0 0 0 0 3 57 63 169 47 19 7 1 1 7 6 10 12 3 12 17 13 6 7 10 18
0 0 0 24 5 12 23 5 4 17 36 419 21 6 0 0 0 0 0 0 0 33 49 91 46 194 37 41 32 5 12 29 18 19 16 24 21 13 8 10 8 6 9
132 0 0 38 30 6 7 1 1 21 45 29 58 112 8 0 0 0 12 48 195 85 69 60 89 115 98 64 42 53 23 26 7 22 22 31 30 23 0 0 0 0 12
16 41 5 18 47 41 44 15 3 44 22 19 24 41 39 37 20 17 130 173 132 48 44 31 17 117 155 90 61 62 40 41 65 31 41 64 45 30 34 20 21 32 7
54 145 43 21 38 43 17 33 29 45 58 28 57 25 1 9 31 47 47 26 29 79 111 248 76 56 66 77 81 40 20 22 23 57 16 35 40 62 60 41 31 34 21
45 31 34 27 54 26 59 22 31 45 52 47 45 14 17 19 11 17 14 21 56 47 18 41 50 56 31 69 89 116 38 63 85 97 98 87 74 62 55 59 55 40 51
47 19 14 30 16 23 22 27 33 13 24 45 39 25 16 16 15 12 9 5 7 17 19 44 42 62 37 27 48 20 45 34 31 60 116 118 130 123 93 87 54 57 53
30 5 11 27 8 3 0 0 0 0 0 10 10 10 0 0 1 0 0 0 2 6 13 23 33 38 23 33 34 54 66 29 35 54 32 49 141 117 96 98 79 82 90
0 1 0 1 0 0 0 0 0 0 8 4 1 0 0 0 3 1 0 0 0 0 4 11 6 8 17 0 0 10 14 25 17 22 25 15 65 87 69 79 100 74 138

GFSGL_con_mucape_123.txt.gz
CAPE
141 423 1129 1165 1536 2179 2138 2061 1932 1693 1566 1341 1172 1135 960 883 876 944 1064 1185 1166 1178 1378 1453 1307 1225 1133 1025 802 783 767 732 582 656 562 596 905 899 705 878 602 685 649
180 474 494 567 802 1298 1574 2042 2048 1857 1760 1625 1204 1054 788 655 453 212 439 565 773 841 989 1111 1257 1329 1227 1144 946 817 756 647 610 480 538 820 756 767 644 617 760 599 641
74 260 489 496 612 839 1201 1436 1493 1751 1654 1682 1462 984 560 506 193 84 102 408 387 597 831 1024 998 1216 1283 1152 1087 806 737 653 726 814 883 920 831 665 563 652 685 714 685
0 0 158 395 543 594 766 1140 1343 1403 1153 1352 1338 1073 969 598 44 39 0 90 1 79 869 1014 1027 1004 1087 1140 1144 1049 799 828 927 947 883 744 710 696 710 505 675 864 838
1 3 54 179 337 612 884 1087 1319 1222 993 1004 1159 1010 729 461 312 25 0 0 8 59 301 849 834 945 1140 1060 1094 1126 1027 961 1018 1032 961 996 891 866 635 511 483 437 509
0 45 82 70 252 215 508 932 1032 1195 1004 916 958 1013 797 580 511 308 286 81 67 31 30 34 305 595 441 789 1057 1144 1056 1153 1103 925 864 726 699 686 562 300 206 214 176
40 13 53 9 17 17 135 513 1098 1072 989 912 822 815 882 845 693 549 283 100 82 145 59 0 8 111 106 281 507 896 1101 1178 1103 937 797 703 654 555 246 240 201 134 104
1 14 22 32 1 0 14 335 588 635 569 618 634 698 697 704 662 634 371 371 241 39 34 151 16 0 2 57 328 527 659 979 1107 972 755 566 608 388 180 204 154 102 109
3 12 29 52 13 2 61 72 216 232 325 367 509 482 466 432 446 584 553 441 353 267 196 257 270 107 149 202 325 495 533 492 624 634 518 433 569 283 145 105 72 54 37
5 20 70 59 40 37 85 99 128 141 255 258 346 280 308 428 469 484 456 420 366 341 252 332 446 438 535 506 323 356 374 404 425 365 409 327 293 166 117 92 65 59 88
16 42 80 70 78 57 17 4 6 159 249 253 242 205 367 550 544 476 299 198 303 254 224 226 192 289 232 316 334 420 353 308 260 227 148 109 79 41 47 29 15 27 52
19 85 103 86 93 137 39 27 4 90 160 105 120 155 151 212 194 257 281 236 202 160 170 218 242 146 76 53 99 112 151 157 142 61 18 32 52 59 29 86 136 72 41
54 109 135 147 162 107 82 119 107 94 130 141 107 26 80 108 143 225 180 194 193 144 132 83 21 45 21 24 34 45 55 20 17 3 1 3 2 4 5 37 77 79 54
81 102 178 192 187 214 34 82 108 124 163 172 130 18 6 17 32 78 123 169 145 146 89 51 50 29 30 22 19 21 20 20 1 7 25 34 40 21 17 20 46 45 19
126 103 61 50 212 85 31 0 0 3 80 53 11 8 0 2 8 0 0 31 58 70 18 21 27 54 25 6 7 3 44 26 6 2 13 53 26 22 5 1 11 23 31
164 107 61 22 42 200 62 27 18 1 0 0 0 0 0 0 0 0 0 0 0 26 21 10 9 14 8 13 1 20 72 58 8 0 0 0 0 0 0 0 0 3 2
175 160 34 16 10 8 11 72 57 31 11 0 0 0 0 0 0 0 0 0 0 0 0 23 28 17 9 7 0 3 0 0 0 0 0 0 0 0 0 3 0 0 8
7 10 0 0 5 1 9 27 45 49 37 20 0 0 0 0 0 0 0 0 0 0 5 17 15 15 17 13 11 10 4 0 0 0 0 0 2 4 3 4 3 2 9
2 0 0 3 7 0 0 0 0 0 27 67 13 6 0 0 0 0 0 0 0 0 2 29 30 23 9 0 0 0 0 0 0 0 0 0 0 0 0 0 0 0 0
159 15 6 12 13 5 0 0 0 0 0 45 36 22 8 0 0 0 5 8 20 59 66 18 65 46 37 13 0 0 0 0 0 0 2 5 9 14 8 3 0 0 0
39 42 36 31 28 15 22 21 8 21 23 27 17 80 55 5 5 15 28 39 45 70 64 16 75 74 66 35 9 6 14 1 12 22 32 37 33 46 39 26 31 39 19
24 17 19 23 18 25 20 16 21 30 20 14 19 27 25 17 9 11 20 21 21 17 33 58 24 19 48 79 43 19 31 3 2 12 17 32 43 42 49 40 31 27 22
37 23 37 21 21 17 20 15 0 12 14 15 12 10 11 16 16 18 14 12 27 29 32 40 42 53 24 46 48 37 37 12 20 6 17 18 32 37 30 26 31 37 26
7 17 16 5 1 9 11 5 8 9 12 7 1 0 0 0 0 0 2 10 16 19 24 19 29 26 38 47 48 43 65 64 83 67 27 34 44 43 51 60 62 59 54
4 4 0 1 0 0 0 0 1 0 0 0 0 0 0 0 0 0 0 0 0 0 0 7 14 16 15 13 21 25 11 8 15 37 47 38 20 42 33 39 53 56 55
0 0 0 0 0 0 0 0 0 0 0 0 0 0 0 0 0 0 0 0 0 0 0 0 0 0 0 0 0 0 0 0 0 5 0 1 9 12 6 45 46 41 20

GFSGL_con_mucape_126.txt.gz
CAPE
0 0 21 19 75 217 460 1084 1489 1371 1279 1314 1225 1044 850 782 804 821 700 608 720 680 952 1073 1001 929 873 814 850 724 663 599 384 374 329 432 513 493 592 623 533 461 605
0 0 0 0 54 112 144 269 980 1394 1255 1208 1241 1125 1145 1016 500 508 153 212 64 396 625 893 1081 933 902 848 822 753 676 595 455 444 450 500 459 557 638 620 617 649 591
0 0 0 0 15 61 136 229 584 860 1081 1063 929 1108 1092 806 599 417 173 42 69 95 443 329 526 847 848 893 948 784 732 756 461 436 433 446 459 589 781 645 487 480 579
0 0 0 2 22 58 129 287 471 650 724 818 887 1041 876 706 716 489 2 3 41 78 53 238 403 418 669 893 946 927 809 775 659 551 526 508 571 822 732 595 599 505 546
0 0 0 0 32 0 20 92 200 448 736 855 842 947 794 763 773 552 318 53 2 0 0 0 176 274 625 827 902 954 950 829 674 617 596 633 676 691 580 671 644 578 439
0 0 0 0 1 1 0 0 3 35 495 827 861 890 730 864 812 689 487 196 0 4 0 1 18 356 794 1006 1053 1039 971 911 710 679 706 630 637 715 592 576 587 442 382
0 0 0 0 5 1 0 0 0 2 576 880 880 874 817 809 779 684 478 295 101 16 2 0 39 19 40 167 547 675 819 921 1009 816 759 749 722 698 483 462 367 344 281
0 4 1 5 13 25 6 78 11 19 410 599 763 748 800 740 638 475 413 390 193 90 70 50 61 33 10 0 92 301 219 230 554 957 994 664 730 674 539 408 253 229 168
0 8 5 3 5 14 15 5 1 54 313 332 441 545 579 645 671 499 407 392 425 356 169 99 60 68 38 29 0 4 44 222 302 356 448 652 592 489 465 366 175 130 104
10 3 10 4 25 33 22 35 19 16 97 220 308 344 375 328 403 463 365 429 430 429 340 320 294 225 154 239 158 59 86 162 252 341 385 423 442 374 356 228 119 49 18
5 22 29 35 25 17 52 45 10 271 261 219 229 271 256 256 276 335 354 299 383 375 342 311 273 233 307 330 262 390 371 317 293 320 258 252 202 229 219 169 100 40 47
22 54 42 57 103 104 78 76 49 22 106 208 129 120 127 161 184 197 192 189 261 286 305 265 187 181 184 156 172 168 194 227 232 211 223 187 155 125 85 50 43 9 17
41 50 46 50 154 73 103 106 117 84 102 15 5 75 131 134 113 166 191 209 204 195 179 206 170 81 49 34 28 46 82 184 146 167 144 26 10 3 23 34 34 19 29
32 34 25 33 86 63 80 142 201 88 110 122 42 31 14 12 62 141 148 154 135 164 127 73 34 37 38 35 17 35 45 28 47 103 42 8 20 22 34 13 8 18 10
42 21 17 67 90 23 29 23 83 48 0 3 0 0 3 2 1 0 27 80 83 62 77 22 29 65 35 32 15 36 42 37 53 49 40 44 10 1 1 10 15 16 40
100 122 71 26 20 118 55 29 16 8 7 0 0 0 0 0 0 0 0 3 0 0 1 0 28 45 24 26 9 49 55 50 3 2 1 1 1 0 0 0 0 1 3
66 62 9 26 0 24 100 73 36 37 12 8 0 0 0 0 0 0 0 0 1 0 7 60 69 48 78 14 16 27 0 0 0 0 0 0 0 0 0 0 0 0 3
79 21 9 10 9 1 8 24 50 43 35 8 0 0 0 0 0 0 0 0 4 6 25 25 23 23 23 8 4 4 0 0 0 0 0 0 0 0 0 0 0 0 4
16 56 16 15 1 1 0 0 0 0 35 44 3 0 0 0 0 0 0 0 1 6 12 30 25 15 9 0 3 0 0 0 0 0 0 0 0 0 0 0 0 0 0
95 62 23 24 12 15 13 4 4 6 3 42 33 22 2 0 0 0 0 0 4 12 30 19 50 42 34 8 10 8 2 2 0 0 0 2 8 16 20 20 7 7 9
47 49 17 15 28 15 18 13 16 19 19 19 52 33 18 15 8 1 0 0 1 3 19 27 36 55 49 22 7 0 0 0 0 0 0 0 5 14 30 46 41 31 21
22 23 12 19 19 7 2 1 13 8 14 9 10 9 13 26 31 20 18 17 11 11 20 27 35 46 50 64 65 33 29 32 3 13 21 17 32 23 22 33 22 15 10
8 16 28 17 21 19 12 4 3 0 0 0 0 0 0 0 2 5 8 15 10 18 19 27 42 49 46 51 39 62 51 47 36 33 24 26 13 14 25 24 23 27 27
4 1 17 24 25 19 7 13 17 10 3 1 0 0 0 0 0 0 0 0 0 0 0 0 3 5 14 27 33 49 77 16 65 25 40 46 63 45 44 44 43 43 29
0 0 0 2 10 3 2 1 0 0 0 0 0 0 0 0 0 0 0 0 0 0 0 0 0 0 0 0 0 3 14 14 11 8 0 0 0 4 28 36 14 45 65
0 0 0 0 0 0 0 0 0 0 0 0 0 0 0 0 0 0 0 0 0 0 0 0 0 0 0 0 0 0 0 0 0 0 0 0 0 0 0 0 0 0 0

GFSGL_con_mucape_129.txt.gz
CAPE
0 0 0 0 0 0 0 1 56 159 800 996 1013 963 941 874 787 671 695 575 160 468 323 402 501 466 416 417 471 499 365 278 225 308 285 322 252 287 361 419 439 486 458
0 0 0 0 0 0 0 0 7 76 179 716 959 970 976 902 863 813 720 746 470 167 0 8 297 539 503 524 489 423 391 432 427 376 334 325 302 310 400 386 408 502 503
0 0 0 0 0 0 0 0 0 29 115 299 856 840 783 667 513 539 372 397 278 20 0 0 3 165 491 461 442 395 426 481 509 514 453 454 396 336 320 342 486 596 406
0 0 0 0 0 0 2 1 1 0 27 222 403 582 675 629 508 468 425 415 318 0 5 4 8 17 144 451 432 484 540 455 556 608 543 551 502 416 400 421 599 554 394
0 0 0 0 0 0 0 0 2 0 1 31 198 422 536 535 463 592 524 490 480 122 31 0 2 23 155 296 404 486 506 465 448 534 629 559 508 481 455 481 456 380 426
0 0 0 0 0 0 0 1 0 0 4 0 1 249 520 453 564 673 638 565 385 198 4 0 0 0 0 0 148 435 514 461 528 504 599 566 471 479 512 478 420 384 389
0 0 0 0 0 2 6 0 5 1 30 6 48 500 951 761 744 738 777 690 425 196 58 0 0 0 35 28 140 408 423 636 651 660 549 634 593 578 524 471 482 378 307
0 0 0 6 4 0 0 0 49 11 10 115 259 554 911 854 956 880 778 690 490 345 262 138 1 0 14 63 23 9 41 259 566 742 836 818 761 683 602 542 448 259 214
0 0 2 23 19 12 8 0 23 19 7 52 244 321 563 882 915 853 729 684 478 431 409 185 62 0 13 19 55 7 0 1 144 285 371 507 697 695 636 488 363 193 128
0 0 8 24 41 39 44 10 1 38 81 29 193 238 345 548 604 737 623 484 370 280 314 420 228 39 15 41 44 19 24 50 4 81 94 189 274 462 554 429 289 154 96
0 6 15 11 32 75 30 24 65 14 90 126 142 141 160 226 338 470 466 433 336 247 260 283 342 198 118 100 119 137 231 313 186 49 44 31 160 638 358 347 314 207 110
0 4 1 33 80 32 56 27 101 76 9 52 72 133 195 166 194 261 283 313 250 398 298 380 418 337 201 190 202 235 240 247 359 239 200 150 199 191 156 185 224 187 110
0 14 24 32 42 13 38 119 106 119 100 1 6 43 140 150 107 145 211 200 225 205 182 215 248 215 192 206 237 249 258 216 311 248 164 28 147 106 63 70 54 61 81
5 17 1 25 45 37 33 47 21 21 10 0 0 3 0 6 65 86 98 134 154 164 197 193 166 178 166 143 98 98 119 183 184 170 113 79 43 22 20 6 15 40 24
0 1 1 18 30 48 10 9 6 19 11 18 9 0 0 0 0 37 93 105 103 110 111 79 73 106 42 80 60 53 36 41 26 37 59 37 26 9 26 48 45 40 53
28 20 4 8 60 96 57 41 28 43 22 9 33 17 0 0 0 0 18 5 3 6 0 2 9 21 13 24 18 25 13 24 28 32 53 35 29 7 3 2 2 7 18
34 48 49 19 18 13 79 39 45 49 20 6 0 0 0 0 0 0 0 3 34 48 50 71 82 76 42 5 41 15 3 8 7 2 0 0 0 0 0 0 0 0 3
10 53 21 22 16 0 0 0 7 24 58 9 0 0 0 0 0 0 0 14 33 41 65 57 44 28 40 41 20 0 0 0 0 0 0 0 0 0 0 0 0 0 0
2 8 9 2 1 0 0 3 0 3 32 7 3 2 0 0 0 0 3 7 11 23 46 46 42 24 12 10 5 0 0 0 0 0 0 0 0 0 0 0 0 0 0
34 14 19 17 17 10 18 10 8 6 21 56 51 11 1 6 0 0 0 8 12 32 31 34 72 59 41 23 13 18 16 2 0 0 0 0 0 7 15 17 6 2 8
25 38 27 20 19 16 2 9 25 44 43 52 27 20 13 8 7 13 17 16 21 31 39 50 79 83 73 38 28 18 12 13 3 3 5 6 18 35 32 26 52 44 38
0 0 0 0 6 16 17 17 19 23 20 24 22 20 14 13 8 7 12 17 13 14 21 26 51 59 82 75 63 52 44 25 19 5 13 14 22 32 30 27 20 8 4
8 0 11 21 16 25 26 21 11 10 6 2 1 0 0 0 0 0 0 0 0 0 0 0 0 4 27 47 31 34 56 67 64 55 48 35 27 25 31 35 47 43 35
0 1 17 30 21 26 25 25 9 7 3 0 0 0 0 0 0 0 0 0 0 0 0 0 0 0 0 0 0 3 14 21 33 39 17 13 10 9 10 36 54 44 50
16 19 23 17 8 17 16 4 0 0 0 0 0 0 0 0 0 0 0 0 0 0 0 0 0 0 0 0 0 0 0 0 0 0 0 0 0 0 0 0 0 0 0
0 0 1 0 0 0 0 0 0 0 0 0 0 0 0 0 0 0 0 0 0 0 0 0 0 0 0 0 0 0 0 0 0 0 0 0 0 0 0 0 0 0 0

GFSGL_con_mucape_132.txt.gz
CAPE
0 0 0 0 0 1 0 1 2 4 2 45 175 556 913 1006 973 823 941 968 784 714 560 400 160 435 352 312 347 309 338 386 293 345 404 359 231 542 552 594 498 671 566
0 0 0 0 0 0 0 0 0 2 2 9 62 217 594 826 925 895 829 793 892 689 618 569 215 75 5 181 415 402 326 355 371 390 475 283 377 420 616 758 573 377 597
0 0 0 0 0 0 0 0 2 4 4 7 13 72 304 644 844 849 805 729 567 618 538 245 64 0 0 1 355 396 490 469 375 377 377 642 447 342 395 345 422 688 451
0 0 0 0 0 0 0 0 0 1 4 2 3 15 125 309 669 639 610 594 502 449 541 523 228 0 0 0 67 445 465 375 307 320 329 504 421 336 347 486 557 339 632
0 0 0 0 0 0 0 0 0 0 3 2 0 0 7 170 282 531 390 523 515 426 409 524 327 40 0 0 19 232 392 427 316 209 426 320 425 295 368 410 436 813 484
0 0 0 0 0 0 0 0 0 0 3 0 0 1 5 6 9 277 347 328 403 459 489 411 330 22 0 0 36 46 405 506 370 318 485 762 365 416 590 500 456 321 418
0 0 0 0 0 0 8 10 13 6 0 0 3 0 5 2 20 110 371 327 333 387 518 459 367 113 0 0 35 102 143 260 341 455 404 518 446 672 635 351 391 436 621
0 0 0 0 0 18 22 36 30 0 0 34 24 11 13 74 199 386 474 377 372 477 617 592 459 239 41 13 32 18 39 116 84 281 515 667 748 835 619 753 590 403 375
0 0 0 0 8 15 45 50 16 0 4 45 22 10 26 126 339 552 518 593 603 595 597 490 408 442 185 52 127 79 144 81 87 1 150 370 460 475 468 377 383 461 394
0 0 0 0 32 25 36 67 42 23 0 27 50 216 365 202 344 654 589 512 520 479 457 408 391 327 201 48 74 58 14 47 34 25 34 115 312 443 425 406 703 487 386
0 0 0 29 44 34 29 61 48 91 0 6 59 65 74 65 116 206 328 319 426 548 404 424 333 317 205 42 31 3 27 55 35 46 66 94 80 63 35 216 448 499 297
0 0 8 38 34 34 29 65 42 50 0 0 16 34 48 56 118 151 135 141 303 243 307 386 478 279 197 183 99 71 70 74 147 200 212 151 159 22 17 61 256 457 308
0 0 3 12 25 40 15 5 18 25 19 0 3 18 15 79 124 236 209 315 195 243 374 381 210 180 201 241 194 180 176 168 206 268 325 223 267 189 136 214 191 250 273
0 0 0 0 13 58 17 16 9 25 52 58 58 0 5 3 24 33 60 156 175 171 168 256 273 242 200 183 170 197 278 259 207 421 328 308 168 142 148 67 149 148 85
0 2 0 2 20 86 43 48 17 16 40 58 62 32 3 0 43 59 5 9 38 46 38 98 120 12 22 70 58 69 134 102 152 177 158 189 154 88 26 19 34 45 61
0 0 0 0 24 20 113 94 63 31 18 25 18 13 16 18 88 66 31 37 34 8 2 2 3 0 1 0 1 0 4 16 21 35 17 10 12 4 6 21 23 28 45
0 0 4 7 15 16 1 26 18 55 16 13 28 18 19 29 46 30 52 53 41 50 65 67 54 38 20 28 27 1 0 0 0 14 29 17 0 0 3 9 11 6 12
0 0 0 10 9 8 0 0 1 75 33 24 23 18 19 18 12 15 12 43 44 36 41 30 20 20 23 14 0 0 0 1 0 0 0 0 0 0 0 0 0 0 5
0 0 1 11 4 7 6 3 22 47 31 41 29 20 20 15 19 19 17 25 41 53 58 34 21 7 8 18 17 11 4 0 0 0 0 0 0 0 0 0 0 0 0
13 17 12 36 41 30 32 16 23 59 70 74 31 30 38 49 39 31 24 28 29 41 59 77 73 55 31 15 27 34 18 11 8 4 8 17 13 14 10 6 0 2 4
9 21 27 19 29 23 22 31 44 46 51 28 44 32 26 19 15 14 17 13 5 8 11 24 48 93 97 65 12 13 19 16 17 20 20 16 27 39 46 33 39 58 34
4 9 13 15 13 18 28 37 35 25 26 22 12 12 4 0 0 0 0 0 0 0 0 0 0 0 26 53 64 68 53 52 43 31 32 18 29 34 49 55 47 47 35
29 3 0 0 11 24 36 25 27 24 9 3 1 0 0 0 0 0 0 0 0 0 0 0 0 0 0 0 1 16 21 32 53 53 42 48 52 46 40 39 34 52 48
0 0 1 10 5 14 14 15 12 3 0 0 0 0 0 0 0 0 0 0 0 0 0 0 0 0 0 0 0 0 0 1 4 6 10 28 24 15 14 18 15 32 18
12 9 12 16 10 3 0 0 0 0 0 0 0 0 0 0 0 0 0 0 0 0 0 0 0 0 0 0 0 0 0 0 0 0 0 0 0 0 0 0 0 0 0
0 0 0 0 0 0 0 0 0 0 0 0 0 0 0 0 0 0 0 0 0 0 0 0 0 0 0 0 0 0 0 0 0 0 0 0 0 0 0 0 0 0 0